Index of /

[ICO]NameLast ModifiedSize

[TXT]Us Citizenship Test Questions Answers 20122010-01-02T09:03:00+00:00 22 MB 
[TXT]Understanding The Mole Bean Lab Answers2010-01-03T06:22:00+00:00 20 MB 
[TXT]Uniden 60 Answering Machine Manual2010-01-04T03:41:00+00:00 18 MB 
[TXT]Unit 4 Vocab Answers2010-01-05T01:00:00+00:00 22 MB 
[TXT]Urinary System Answers Coloring2010-01-05T22:19:00+00:00 25 MB 
[TXT]Us History Eoc Review Packet Answers2010-01-06T19:38:00+00:00 20 MB 
[TXT]Us History Textbook Answers2010-01-07T16:57:00+00:00 25 MB 
[TXT]Unidad 4 Etapa 1 Exam Form Answer2010-01-08T14:16:00+00:00 24 MB 
[TXT]Understanding Basic Statistics 5th Edition Answer Key2010-01-09T11:35:00+00:00 24 MB 
[TXT]Unit 7 Homework Answers2010-01-10T08:54:00+00:00 22 MB 
[TXT]Unit 8 Answers2010-01-11T06:13:00+00:00 24 MB 
[TXT]Usa Studies Weekly 5th Grade Answers2010-01-12T03:32:00+00:00 24 MB 
[TXT]Unanswerable Science Questions2010-01-13T00:51:00+00:00 19 MB 
[TXT]Unit 10 Gas Laws Homework Chemistry Answers2010-01-13T22:10:00+00:00 24 MB 
[TXT]Unit 4 Macroeconomics Activity 49 Answers2010-01-14T19:29:00+00:00 18 MB 
[TXT]Unit 4 Macroeconomics Lesson 2 Activity 36 Answer Key2010-01-15T16:48:00+00:00 18 MB 
[TXT]Unit 4 Section A Supplement Chemistry Answers2010-01-16T14:07:00+00:00 21 MB 
[TXT]United States History Textbook Answers2010-01-17T11:26:00+00:00 17 MB 
[TXT]Unit 1 Answers To Recommended End Of Chapter Problems2010-01-18T08:45:00+00:00 19 MB 
[TXT]Unit 2 Pre Test Microeconomics Answers2010-01-19T06:04:00+00:00 24 MB 
[TXT]Uscg Ics 800 Answers2010-01-20T03:23:00+00:00 18 MB 
[TXT]Usa Studies Weekly Week30 Answers Corssowrd2010-01-21T00:42:00+00:00 20 MB 
[TXT]Us Regents Answers2010-01-21T22:01:00+00:00 20 MB 
[TXT]Uniden 24ghz Digital Answering System Manual2010-01-22T19:20:00+00:00 21 MB 
[TXT]Unit Iii Worksheet 3 Answers2010-01-23T16:39:00+00:00 18 MB 
[TXT]Unit 9 Using Modifiers Correctly Answer Key2010-01-24T13:58:00+00:00 23 MB 
[TXT]Usatestprep Biology Answers2010-01-25T11:17:00+00:00 18 MB 
[TXT]Unit 7 Worksheet 9 The Virus Answer Key2010-01-26T08:36:00+00:00 23 MB 
[TXT]Unit 3 Chemistry Study Guide Answers2010-01-27T05:55:00+00:00 17 MB 
[TXT]Unit 3 Activity Sheet Amdm Answers2010-01-28T03:14:00+00:00 22 MB 
[TXT]Ugc Net Answer Key June 20132010-01-29T00:33:00+00:00 18 MB 
[TXT]Unit Conversions Pltw Answers2010-01-29T21:52:00+00:00 23 MB 
[TXT]Unisa Past Exam Papers With Answers Fec15012010-01-30T19:11:00+00:00 25 MB 
[TXT]Understanding Earth Excersise Answers2010-01-31T16:30:00+00:00 20 MB 
[TXT]Unit Hsc 2007 Answers2010-02-01T13:49:00+00:00 20 MB 
[TXT]Unit 15 Review Answers2010-02-02T11:08:00+00:00 25 MB 
[TXT]Us History Lesson 21 Handout 37 Answers2010-02-03T08:27:00+00:00 23 MB 
[TXT]Uscis Citizenship 100 Questions Answers2010-02-04T05:46:00+00:00 19 MB 
[TXT]Uniden Dect 60 Cordless Phone With Digital Answering System Manual2010-02-05T03:05:00+00:00 23 MB 
[TXT]Unbroken Discussion Questions And Answers2010-02-06T00:24:00+00:00 21 MB 
[TXT]Unit 10 Test Algebra Equations Answers2010-02-06T21:43:00+00:00 25 MB 
[TXT]Understanding Australian Accounting Standards Loftus Answers2010-02-07T19:02:00+00:00 22 MB 
[TXT]Unit 9 Geometry Answers Key2010-02-08T16:21:00+00:00 20 MB 
[TXT]Unit 2 Macroeconomics Lesson 3 Activity 13 Answer Key2010-02-09T13:40:00+00:00 18 MB 
[TXT]Usva History Sol Released Test Answers2010-02-10T10:59:00+00:00 20 MB 
[TXT]Us History June 2013 Answers2010-02-11T08:18:00+00:00 21 MB 
[TXT]United States Questions And Answers2010-02-12T05:37:00+00:00 20 MB 
[TXT]Unit 9 The Gas Laws Answer Key2010-02-13T02:56:00+00:00 25 MB 
[TXT]Us History Eoct Spring 2014 Answer Key2010-02-14T00:15:00+00:00 21 MB 
[TXT]Us History Lesson 12 Handout Answers2010-02-14T21:34:00+00:00 22 MB 
[TXT]Us Naturalization Questions And Answers2010-02-15T18:53:00+00:00 23 MB 
[TXT]Unit 5 Section 3 Reteaching Activity Answers2010-02-16T16:12:00+00:00 22 MB 
[TXT]Using Solubility Curves Answer Key2010-02-17T13:31:00+00:00 17 MB 
[TXT]Upcos Physical Setting Chemistry Answer Key2010-02-18T10:50:00+00:00 17 MB 
[TXT]Understanding Bacteria Video Review Sheet Answer Key2010-02-19T08:09:00+00:00 17 MB 
[TXT]Upfront Magazine Question Answer Key2010-02-20T05:28:00+00:00 18 MB 
[TXT]Using Source Documents Aplia Answers2010-02-21T02:47:00+00:00 24 MB 
[TXT]Upstream Pre Intermediate B1 Workbook Answer2010-02-22T00:06:00+00:00 19 MB 
[TXT]Unit 12 Reproductive System Answers2010-02-22T21:25:00+00:00 25 MB 
[TXT]Unit 10 English Holt Mcdougal Answers2010-02-23T18:44:00+00:00 24 MB 
[TXT]Uniden Answering Machine Directions2010-02-24T16:03:00+00:00 24 MB 
[TXT]Upsc General Studies Answer Key 20132010-02-25T13:22:00+00:00 18 MB 
[TXT]Unit 6 Sticky Tape Post Lab Answers2010-02-26T10:41:00+00:00 22 MB 
[TXT]Unit 8 Kinetics And Equilibrium Answers2010-02-27T08:00:00+00:00 23 MB 
[TXT]Urinary System Glomerular Filtration Answers2010-02-28T05:19:00+00:00 21 MB 
[TXT]Unit 34 Answers Hvac2010-03-01T02:38:00+00:00 25 MB 
[TXT]Upstream Workbook B2 Answers2010-03-01T23:57:00+00:00 22 MB 
[TXT]Upco Earth Science Review Answer Sheet2010-03-02T21:16:00+00:00 19 MB 
[TXT]Unit 12 Reproductive System Activity Answers2010-03-03T18:35:00+00:00 19 MB 
[TXT]Unit Circle Worksheet Answers2010-03-04T15:54:00+00:00 20 MB 
[TXT]Urban Geo Intro Duction Answers2010-03-05T13:13:00+00:00 24 MB 
[TXT]Us History Eoct Review Answer Sheet2010-03-06T10:32:00+00:00 18 MB 
[TXT]United States Government Democracy Action Answer Key2010-03-07T07:51:00+00:00 25 MB 
[TXT]Us History Reteaching Activity Answer Key2010-03-08T05:10:00+00:00 18 MB 
[TXT]Unanswered Cries By Osman Conteh2010-03-09T02:29:00+00:00 19 MB 
[TXT]Uniden Phones Manual Answering2010-03-09T23:48:00+00:00 20 MB 
[TXT]Upcos Physical Setting Chemistry Review Answers2010-03-10T21:07:00+00:00 22 MB 
[TXT]Unthemed Sample Answer Booklet2010-03-11T18:26:00+00:00 23 MB 
[TXT]Us Navy Questions And Answers2010-03-12T15:45:00+00:00 19 MB 
[TXT]Unit D Concepts Review Answers2010-03-13T13:04:00+00:00 17 MB 
[TXT]Unit Hsc 036 Answers2010-03-14T10:23:00+00:00 20 MB 
[TXT]Unit 8 Stoichiometry Test Answers2010-03-15T07:42:00+00:00 25 MB 
[TXT]Uptet 2013 Exam Answer Key2010-03-16T05:01:00+00:00 23 MB 
[TXT]Unit 4 Resources Poetry Answers Pearson Education2010-03-17T02:20:00+00:00 20 MB 
[TXT]Ucsmp Geometry Lesson Master Answers2010-03-17T23:39:00+00:00 17 MB 
[TXT]Unit 5 Resources Prosperity And Protest Answers2010-03-18T20:58:00+00:00 23 MB 
[TXT]Upsc Question Papers With Answers 20112010-03-19T18:17:00+00:00 22 MB 
[TXT]Usmc Mci 8011b Answers2010-03-20T15:36:00+00:00 24 MB 
[TXT]Unit Review Sheet Answers 202010-03-21T12:55:00+00:00 25 MB 
[TXT]Usa Today Crossword Answers Free2010-03-22T10:14:00+00:00 22 MB 
[TXT]Ubc Chemistry 121 Past Exams And Answers2010-03-23T07:33:00+00:00 23 MB 
[TXT]Unit 10 Level C Answers2010-03-24T04:52:00+00:00 24 MB 
[TXT]Us Lacrosse Test Answers2010-03-25T02:11:00+00:00 23 MB 
[TXT]Unit 3 World History Plato Answers2010-03-25T23:30:00+00:00 20 MB 
[TXT]Us History Answers For Plato Answer Key2010-03-26T20:49:00+00:00 22 MB 
[TXT]Unidad 2 Etapa 1 Lectura C Answers2010-03-27T18:08:00+00:00 19 MB 
[TXT]Unit 3 Vocab E Answers2010-03-28T15:27:00+00:00 20 MB 
[TXT]Uniden Telephone Answering Machine2010-03-29T12:46:00+00:00 19 MB 
[TXT]Us History Lesson 23 Handout 26 Answers2010-03-30T10:05:00+00:00 21 MB 
[TXT]Ugc Net Answer Key June 2013 Paper 12010-03-31T07:24:00+00:00 22 MB 
[TXT]Unit 6 Motion And Forces Answer Key2010-04-01T04:43:00+00:00 22 MB 
[TXT]Unit 5 Vocabulary Workshop Answers2010-04-02T02:02:00+00:00 19 MB 
[TXT]Upstream Advanced C1 Students Answers2010-04-02T23:21:00+00:00 24 MB 
[TXT]Unit 12 Level D Answers2010-04-03T20:40:00+00:00 22 MB 
[TXT]Unite 9 Lecon 17 Workbook Answers2010-04-04T17:59:00+00:00 20 MB 
[TXT]Upco39s Intermediate Level Science Answer Key2010-04-05T15:18:00+00:00 18 MB 
[TXT]Upsc Key Answers 20122010-04-06T12:37:00+00:00 25 MB 
[TXT]Understanding Our Universe Answer Key2010-04-07T09:56:00+00:00 17 MB 
[TXT]Uneb Biology Questions And Answers2010-04-08T07:15:00+00:00 24 MB 
[TXT]Understanding The Us Constitution Answers2010-04-09T04:34:00+00:00 18 MB 
[TXT]Unit 5 Genetics Packet Answers2010-04-10T01:53:00+00:00 17 MB 
[TXT]Unisa Past Exam Papers With Answers Mno26012010-04-10T23:12:00+00:00 18 MB 
[TXT]Us Va History Sol 2013 Answers2010-04-11T20:31:00+00:00 18 MB 
[TXT]Uniden 58 Answering Machine Manual2010-04-12T17:50:00+00:00 23 MB 
[TXT]Us History Chapter 23 Guided Reading Answers2010-04-13T15:09:00+00:00 22 MB 
[TXT]Understanding The Scriptures Answers2010-04-14T12:28:00+00:00 19 MB 
[TXT]Unit 6 1 Ionic Naming Answers2010-04-15T09:47:00+00:00 21 MB 
[TXT]Uw Physics Tutorial Homework Answers2010-04-16T07:06:00+00:00 19 MB 
[TXT]Uk Citizen Test Questions And Answers2010-04-17T04:25:00+00:00 18 MB 
[TXT]Unit 3 Quiz 1 Biology Answer Key2010-04-18T01:44:00+00:00 21 MB 
[TXT]Unisa Past Exam Papers With Answers Ecs15012010-04-18T23:03:00+00:00 24 MB 
[TXT]Ucc Model Exam Answer2010-04-19T20:22:00+00:00 25 MB 
[TXT]Uniden Phones Answering Machine Instructions2010-04-20T17:41:00+00:00 19 MB 
[TXT]Unit Iv Test V1 Answers2010-04-21T15:00:00+00:00 21 MB 
[TXT]Ugc Answer Key 20132010-04-22T12:19:00+00:00 20 MB 
[TXT]Unit 5 The French Revolution Begins Answers2010-04-23T09:38:00+00:00 25 MB 
[TXT]Urinary System Matching Answer Sheet2010-04-24T06:57:00+00:00 23 MB 
[TXT]Unit 4 Answer Sheets Springboard English 22010-04-25T04:16:00+00:00 23 MB 
[TXT]Us Citizenship Questions And Answers 20132010-04-26T01:35:00+00:00 18 MB 
[TXT]Unit Exam Test Answer Kuta Software2010-04-26T22:54:00+00:00 19 MB 
[TXT]Us Coast Guard Questions And Answers2010-04-27T20:13:00+00:00 20 MB 
[TXT]Uiowa Final Exam Managerial Account 2013 Answers2010-04-28T17:32:00+00:00 23 MB 
[TXT]Us History Chapter 18 Study Guide Answers2010-04-29T14:51:00+00:00 22 MB 
[TXT]Ultimate Guide To Job Interview Answers Download2010-04-30T12:10:00+00:00 19 MB 
[TXT]Unit 5 Macroeconomics Multiple Choice Sample Answers2010-05-01T09:29:00+00:00 20 MB 
[TXT]Unit 3 Stacks Of Kinematic Curves Answers2010-05-02T06:48:00+00:00 17 MB 
[TXT]Unit 3 Microeconomics Lesson 2 Activity 25 Answer Key2010-05-03T04:07:00+00:00 20 MB 
[TXT]Urine Case Studies With Answers2010-05-04T01:26:00+00:00 19 MB 
[TXT]Usatestprep Benchmark Test Answers2010-05-04T22:45:00+00:00 17 MB 
[TXT]Unit 3 Macroeconomics Lesson 4 Activity 24 Answer Key2010-05-05T20:04:00+00:00 18 MB 
[TXT]Unit 25 Special Refrigeration System Components Answers2010-05-06T17:23:00+00:00 21 MB 
[TXT]Unite 7 Lecon 24 Workbook Answers2010-05-07T14:42:00+00:00 18 MB 
[TXT]Union Grievance Questions And Answers2010-05-08T12:01:00+00:00 20 MB 
[TXT]Unique Global Imports Answer Key2010-05-09T09:20:00+00:00 22 MB 
[TXT]Uop Math 116 Answers2010-05-10T06:39:00+00:00 24 MB 
[TXT]Urban Geography Packet Answers2010-05-11T03:58:00+00:00 25 MB 
[TXT]Unit 18 Answers2010-05-12T01:17:00+00:00 25 MB 
[TXT]Us Army Ssd 3 Answers2010-05-12T22:36:00+00:00 20 MB 
[TXT]Us Constitution Packet Answers2010-05-13T19:55:00+00:00 18 MB 
[TXT]Usasf Test Answers2010-05-14T17:14:00+00:00 17 MB 
[TXT]Urinary System Anatomy Answer2010-05-15T14:33:00+00:00 24 MB 
[TXT]Unidad 2 Leccion 1 Gramatica C Answers2010-05-16T11:52:00+00:00 25 MB 
[TXT]Unit Vii Ws 3b Answers2010-05-17T09:11:00+00:00 17 MB 
[TXT]Understanding Basic Statistics 3rd Edition Answers2010-05-18T06:30:00+00:00 18 MB 
[TXT]Upsc Civil Services Preliminary Exam 2011 Question Paper With Answers2010-05-19T03:49:00+00:00 21 MB 
[TXT]Unit 9 Level F Answers2010-05-20T01:08:00+00:00 20 MB 
[TXT]Us History Unit 2 Answer2010-05-20T22:27:00+00:00 17 MB 
[TXT]Urinary System And Excretion Webquest Answer Key2010-05-21T19:46:00+00:00 19 MB 
[TXT]Unit 6 Study Guide Answers2010-05-22T17:05:00+00:00 17 MB 
[TXT]Universe Ninth Edition Answer Key2010-05-23T14:24:00+00:00 19 MB 
[TXT]Unit Test On Factoring Polynomials Answer Key2010-05-24T11:43:00+00:00 22 MB 
[TXT]U1 Ws3 V2 0 Modeling Chemistry Answers2010-05-25T09:02:00+00:00 21 MB 
[TXT]Usa Studies Weekly Week 25 Answer Key2010-05-26T06:21:00+00:00 17 MB 
[TXT]Unit 4 Money And Monetary Policy Answers2010-05-27T03:40:00+00:00 18 MB 
[TXT]Understing Operating Systems 6th Edition Answers2010-05-28T00:59:00+00:00 23 MB 
[TXT]Unit 3 Resource Glencoe Genetics Answer2010-05-28T22:18:00+00:00 20 MB 
[TXT]Unit 3 Grammar And Usage Answers2010-05-29T19:37:00+00:00 18 MB 
[TXT]Unit 7 Skill Odilon Answers2010-05-30T16:56:00+00:00 18 MB 
[TXT]Unit 6 Vocab Answers2010-05-31T14:15:00+00:00 22 MB 
[TXT]Unit 3 Chemical Equilibrium Assignment 4 Answers2010-06-01T11:34:00+00:00 18 MB 
[TXT]Us History Guided Answers 24 Section 12010-06-02T08:53:00+00:00 19 MB 
[TXT]Unit 5 Assessment Answers2010-06-03T06:12:00+00:00 17 MB 
[TXT]Upstream C1 Workbook Answer Key2010-06-04T03:31:00+00:00 19 MB 
[TXT]Upco Earth Science Answers2010-06-05T00:50:00+00:00 23 MB 
[TXT]Unit 10 Electromagnetic Waves Test Answers2010-06-05T22:09:00+00:00 23 MB 
[TXT]Understanding Pharmacology Study Guide Answer Key2010-06-06T19:28:00+00:00 18 MB 
[TXT]Us History Test Answers2010-06-07T16:47:00+00:00 22 MB 
[TXT]Unit Conversion Gizmo Answers2010-06-08T14:06:00+00:00 23 MB 
[TXT]Unit 5 Geography Challenge Answers2010-06-09T11:25:00+00:00 21 MB 
[TXT]Unit 25 Hvac Exam Quizlet Answer Bing Free Ebooks2010-06-10T08:44:00+00:00 24 MB 
[TXT]Unit 3 Packet Periodic Properties Answers2010-06-11T06:03:00+00:00 24 MB 
[TXT]Unit 14 Vocab Answers Level F2010-06-12T03:22:00+00:00 20 MB 
[TXT]Us History Unit 1 Study Guide Answers2010-06-13T00:41:00+00:00 24 MB 
[TXT]Us Government Lesson 4 Hout 6 Answers2010-06-13T22:00:00+00:00 24 MB 
[TXT]Uptet 2013 Answer Key Series Z2010-06-14T19:19:00+00:00 21 MB 
[TXT]Unidad 1 Etapa Answers2010-06-15T16:38:00+00:00 20 MB 
[TXT]Unit 13 Emathinstruction Review Answers2010-06-16T13:57:00+00:00 18 MB 
[TXT]Understanding And Using English Grammar With Answer Key 22010-06-17T11:16:00+00:00 22 MB 
[TXT]Unanswered Cries By Osman Conteh Characterizetion2010-06-18T08:35:00+00:00 22 MB 
[TXT]University Of Phoenix Exam Answers2010-06-19T05:54:00+00:00 19 MB 
[TXT]Upfront Magazine Answer Sheets2010-06-20T03:13:00+00:00 24 MB 
[TXT]Usa Test Prep Answer Key Zutazeceda2010-06-21T00:32:00+00:00 18 MB 
[TXT]Unit Rate Worksheets With Answers2010-06-21T21:51:00+00:00 24 MB 
[TXT]Unit 3 Linear And Exponential Functions Answers2010-06-22T19:10:00+00:00 24 MB 
[TXT]Unit 7 Balancing Chemical Reactions 2 Answers2010-06-23T16:29:00+00:00 19 MB 
[TXT]Unit 9 2 Modeling Chemistry Answers2010-06-24T13:48:00+00:00 21 MB 
[TXT]Urinary System Test Study Guide Answers2010-06-25T11:07:00+00:00 18 MB 
[TXT]Understanding Financial Statements Answers2010-06-26T08:26:00+00:00 21 MB 
[TXT]Unit 2 Macroeconomics Lesson 3 Activity 15 Answer Key2010-06-27T05:45:00+00:00 22 MB 
[TXT]Uniden Answering Machine Manual2010-06-28T03:04:00+00:00 24 MB 
[TXT]Ucsmp Advanced Algebra Master Answers2010-06-29T00:23:00+00:00 22 MB 
[TXT]Ugc Net 2013 Answer Key2010-06-29T21:42:00+00:00 25 MB 
[TXT]Uniden Telephones With Answering Machine2010-06-30T19:01:00+00:00 25 MB 
[TXT]Unit 8 Test The Cold War Answers2010-07-01T16:20:00+00:00 25 MB 
[TXT]Understanding Populations Answer Key2010-07-02T13:39:00+00:00 22 MB 
[TXT]Unit Iv Answers2010-07-03T10:58:00+00:00 23 MB 
[TXT]Us Bank Online Certification Answers2010-07-04T08:17:00+00:00 18 MB 
[TXT]Upper Intermediate Test Answers2010-07-05T05:36:00+00:00 19 MB 
[TXT]Unanswered Prayers Heavens Helpers2010-07-06T02:55:00+00:00 20 MB 
[TXT]Us History 19 Review Answers2010-07-07T00:14:00+00:00 23 MB 
[TXT]Upper Intermediate Tests Answers2010-07-07T21:33:00+00:00 18 MB 
[TXT]Us History Answers For Homework2010-07-08T18:52:00+00:00 18 MB 
[TXT]Upsc Question Papers With Answers 20102010-07-09T16:11:00+00:00 17 MB 
[TXT]Us And Global Economics Apex Answers2010-07-10T13:30:00+00:00 17 MB 
[TXT]Unit 3 Microeconomics Multiple Choice Answers2010-07-11T10:49:00+00:00 17 MB 
[TXT]Us History Lesson 19 Handout 37 Answers2010-07-12T08:08:00+00:00 22 MB 
[TXT]Us Study Guide Answers2010-07-13T05:27:00+00:00 20 MB 
[TXT]Unit 6 Growth And Reproduction Answers2010-07-14T02:46:00+00:00 18 MB 
[TXT]Upco Science Answers2010-07-15T00:05:00+00:00 18 MB 
[TXT]Usa Test Prep Answers Economics2010-07-15T21:24:00+00:00 17 MB 
[TXT]Usmc Mci Answers For Test 001a2010-07-16T18:43:00+00:00 21 MB 
[TXT]Unit 6 Chapter 20 Section 2 The New Frontier Answers2010-07-17T16:02:00+00:00 17 MB 
[TXT]Unit 2 Finance Park Answers2010-07-18T13:21:00+00:00 18 MB 
[TXT]Unit Iv Worksheet 4 Answers2010-07-19T10:40:00+00:00 19 MB 
[TXT]Usatestprep Literature Crosswords Answers2010-07-20T07:59:00+00:00 25 MB 
[TXT]Upsc 2013 Key Answer Paper Ii2010-07-21T05:18:00+00:00 21 MB 
[TXT]Unit 17 Thermochemistry Test A Answers2010-07-22T02:37:00+00:00 24 MB 
[TXT]Usmle Answers To Sample Questions With Explanations2010-07-22T23:56:00+00:00 17 MB 
[TXT]Usa Test Prep Answers Key For Literature2010-07-23T21:15:00+00:00 25 MB 
[TXT]Unit 11 Organic Chemistry Practice Answers2010-07-24T18:34:00+00:00 20 MB 
[TXT]Unidad 8 Leccion 1 Leer Answers2010-07-25T15:53:00+00:00 25 MB 
[TXT]Us Government Glencoe Answer Key2010-07-26T13:12:00+00:00 22 MB 
[TXT]Uniden Answering Machines2010-07-27T10:31:00+00:00 20 MB 
[TXT]Unit Hsc 2029 Answers2010-07-28T07:50:00+00:00 24 MB 
[TXT]Ucsmp Functions Statistics And Trigonometry Answers2010-07-29T05:09:00+00:00 22 MB 
[TXT]Utah Professional Engineer Law And Rules Examination Answers2010-07-30T02:28:00+00:00 17 MB 
[TXT]Union Peril Answers2010-07-30T23:47:00+00:00 21 MB 
[TXT]Us History Chapter 20 Test Answers2010-07-31T21:06:00+00:00 24 MB 
[TXT]Ultimate Ap Biology Exam Review Answer Key2010-08-01T18:25:00+00:00 20 MB 
[TXT]Uppsc Answer Key 2013 Set B2010-08-02T15:44:00+00:00 25 MB 
[TXT]Uniden Phone Instructions Answering Machine2010-08-03T13:03:00+00:00 21 MB 
[TXT]Uk Citizenship Test Questions And Answers 20132010-08-04T10:22:00+00:00 22 MB 
[TXT]Understanding A Credit Card Statement Answer2010-08-05T07:41:00+00:00 18 MB 
[TXT]Unalienable Rights Guided And Review Answers2010-08-06T05:00:00+00:00 21 MB 
[TXT]Unix Command Multiple Choice More Questions Answers2010-08-07T02:19:00+00:00 22 MB 
[TXT]Unit 24 Expansion Devices Answers2010-08-07T23:38:00+00:00 18 MB 
[TXT]Unit 31 Answers In Spelling 6th Grade2010-08-08T20:57:00+00:00 18 MB 
[TXT]Unit 5 Answer Key Us History2010-08-09T18:16:00+00:00 25 MB 
[TXT]Upco Earth Science Chapter 5 Answers2010-08-10T15:35:00+00:00 19 MB 
[TXT]Unit 10 Vocab Level E Answers2010-08-11T12:54:00+00:00 20 MB 
[TXT]Usa Test Prep Physical Science Answer Key2010-08-12T10:13:00+00:00 25 MB 
[TXT]Upco Physical Setting Review Chemistry Answers2010-08-13T07:32:00+00:00 23 MB 
[TXT]Unit 3 Evolution Answers2010-08-14T04:51:00+00:00 20 MB 
[TXT]Upsc Question Papers With Answers 20132010-08-15T02:10:00+00:00 18 MB 
[TXT]Unit 5 Lesson 4 Activity 47 Answers2010-08-15T23:29:00+00:00 17 MB 
[TXT]Us History Guided Reading Activity Ch 26 Answers2010-08-16T20:48:00+00:00 19 MB 
[TXT]Unidad 3 Leccion 1 Vocabulario A Answers2010-08-17T18:07:00+00:00 23 MB 
[TXT]Us Citizen Test Questions Answers Citizenship2010-08-18T15:26:00+00:00 24 MB 
[TXT]Unanswered Harry Potter Questions2010-08-19T12:45:00+00:00 20 MB 
[TXT]Usa Test Prep Answer Key For Math2010-08-20T10:04:00+00:00 23 MB 
[TXT]Using Irregular Verbs In Past Participle Form Answers2010-08-21T07:23:00+00:00 19 MB 
[TXT]Unit Hsc 037 Answers2010-08-22T04:42:00+00:00 20 MB 
[TXT]Unit 2 Answers2010-08-23T02:01:00+00:00 20 MB 
[TXT]Unit 3 Vocabulary Answers2010-08-23T23:20:00+00:00 22 MB 
[TXT]Us History Semester 1 Review Answers2010-08-24T20:39:00+00:00 18 MB 
[TXT]Unit 13 Emathinstruction Review Answers Lesson 12010-08-25T17:58:00+00:00 25 MB 
[TXT]Unit 8 Asia Test Answers2010-08-26T15:17:00+00:00 23 MB 
[TXT]Us Constitution Test Study Guide Answers2010-08-27T12:36:00+00:00 23 MB 
[TXT]Us Government Guided Reading Answers2010-08-28T09:55:00+00:00 23 MB 
[TXT]Unit 2 Microeconomics Lesson 4 Activity 17 Answer Key2010-08-29T07:14:00+00:00 17 MB 
[TXT]Us History June 2013 Regents Answers2010-08-30T04:33:00+00:00 23 MB 
[TXT]Unit Hsc 026 Answers2010-08-31T01:52:00+00:00 19 MB 
[TXT]Upsc Civil Services 2012 Answer Key2010-08-31T23:11:00+00:00 22 MB 
[TXT]Unit Iii Review Physics Answers2010-09-01T20:30:00+00:00 24 MB 
[TXT]Unit 8 Lesson 3 Top Notch Answers2010-09-02T17:49:00+00:00 23 MB 
[TXT]Unit 5 Resources Prosperity Protest Answers2010-09-03T15:08:00+00:00 19 MB 
[TXT]Unit 4 Test Civil War Answer Key2010-09-04T12:27:00+00:00 25 MB 
[TXT]Unit 10 Cae Answer Key2010-09-05T09:46:00+00:00 25 MB 
[TXT]Us Geography Trivia Questions And Answers Bing2010-09-06T07:05:00+00:00 19 MB 
[TXT]Usatestprep Speaking And Listening Answers2010-09-07T04:24:00+00:00 18 MB 
[TXT]Unit 6 Macroeconomics Activity 49 Answers2010-09-08T01:43:00+00:00 19 MB 
[TXT]Unit 3 Macroeconomics Lesson Activity 23 Answer Key2010-09-08T23:02:00+00:00 18 MB 
[TXT]Unite 1 Test Answers For French 22010-09-09T20:21:00+00:00 25 MB 
[TXT]Urinary System Study Guide Answers2010-09-10T17:40:00+00:00 23 MB 
[TXT]Unite 3 Lecon 11 Workbook Answers2010-09-11T14:59:00+00:00 20 MB 
[TXT]Understanding The Times Answer Key2010-09-12T12:18:00+00:00 25 MB 
[TXT]Us Historypuzzle Answer Key2010-09-13T09:37:00+00:00 25 MB 
[TXT]Us History Chapter 24 Answers2010-09-14T06:56:00+00:00 17 MB 
[TXT]Usatestprep Answer Key 6th Grade2010-09-15T04:15:00+00:00 24 MB 
[TXT]Unity Guess The Movie Answers2010-09-16T01:34:00+00:00 20 MB 
[TXT]Ultimate Spanish Review And Practice Answers2010-09-16T22:53:00+00:00 23 MB 
[TXT]Unit 5 Resource Mcdougal Litell Biology Answers2010-09-17T20:12:00+00:00 17 MB 
[TXT]Unit 4 Test The Judicial Branch Answers2010-09-18T17:31:00+00:00 23 MB 
[TXT]Upper Intermediate Progress Test Answer Key2010-09-19T14:50:00+00:00 18 MB 
[TXT]Unidad 5 Leccion 2 Answers Gramatica2010-09-20T12:09:00+00:00 22 MB 
[TXT]Understanding Psychology Quiz Answers Bing2010-09-21T09:28:00+00:00 25 MB 
[TXT]Unit Six The Classic Tradition Answers2010-09-22T06:47:00+00:00 17 MB 
[TXT]Unit 4 Section B Supplement Answers2010-09-23T04:06:00+00:00 20 MB 
[TXT]Unit Qcf643 Answers2010-09-24T01:25:00+00:00 23 MB 
[TXT]Understanding Integrated Science 1b Answer2010-09-24T22:44:00+00:00 24 MB 
[TXT]Using Financial Accounting Information 8th Edition Answers2010-09-25T20:03:00+00:00 21 MB 
[TXT]Urinary System Wordsearch Answer Key Biologycorner2010-09-26T17:22:00+00:00 20 MB 
[TXT]Upstream Beginner Work Answers2010-09-27T14:41:00+00:00 17 MB 
[TXT]Unit 6 Tesccc Answer Key Algebra 22010-09-28T12:00:00+00:00 18 MB 
[TXT]Unit 6 Lesson 1 Activity 49 Answers2010-09-29T09:19:00+00:00 18 MB 
[TXT]Unit 5 British Literature Answer Sheet2010-09-30T06:38:00+00:00 24 MB 
[TXT]Uniden Digital Answering System D1484 32010-10-01T03:57:00+00:00 20 MB 
[TXT]Usa Studies Weekly Week 23 Answers2010-10-02T01:16:00+00:00 17 MB 
[TXT]Unit 13 Vocabulary Workshop Answers2010-10-02T22:35:00+00:00 23 MB 
[TXT]Unit 3 Biomolecule Test Review Answers2010-10-03T19:54:00+00:00 22 MB 
[TXT]Ugc Net Answer Key 30 June 2013 Sociology2010-10-04T17:13:00+00:00 19 MB 
[TXT]Unit 5 Review Algebra 2 Answers2010-10-05T14:32:00+00:00 25 MB 
[TXT]United States History Chapter 15 Answer Key2010-10-06T11:51:00+00:00 24 MB 
[TXT]Unit 6 Quiz Answers In Algebra2010-10-07T09:10:00+00:00 19 MB 
[TXT]Uniformly Accelerated Particle Model 1 Answer Key2010-10-08T06:29:00+00:00 22 MB 
[TXT]Unit 8 Cscope Test Answers2010-10-09T03:48:00+00:00 18 MB 
[TXT]Usa Studies Weekly Week 12 Answers2010-10-10T01:07:00+00:00 18 MB 
[TXT]Unit 1 Macroeconomics Answer Key2010-10-10T22:26:00+00:00 22 MB 
[TXT]Unidad 3 Etapa 1 Exam Answers2010-10-11T19:45:00+00:00 19 MB 
[TXT]Unit 4 Study Guide Answer Key Wilmot Union High School2010-10-12T17:04:00+00:00 17 MB 
[TXT]Unit 13 Practice Problems With Answers At End2010-10-13T14:23:00+00:00 17 MB 
[TXT]Us History Since 1877 Answer Key2010-10-14T11:42:00+00:00 17 MB 
[TXT]Us History From 1877 Test 2 Answers2010-10-15T09:01:00+00:00 17 MB 
[TXT]Unidad 4 Leccion 2 Answer 1712010-10-16T06:20:00+00:00 24 MB 
[TXT]Unit 8 3 Molar Concentration Answer Key2010-10-17T03:39:00+00:00 18 MB 
[TXT]Unit 207 Use Electronic Equipment Systems Answers2010-10-18T00:58:00+00:00 23 MB 
[TXT]Unit 27 Plumbing Systems Answer Key2010-10-18T22:17:00+00:00 24 MB 
[TXT]Unit Conversion Worksheet Answers2010-10-19T19:36:00+00:00 19 MB 
[TXT]Unit 3 Study Guide Integumentary System Answers2010-10-20T16:55:00+00:00 17 MB 
[TXT]Understanding Psychology Answer Key Template2010-10-21T14:14:00+00:00 21 MB 
[TXT]Unit 2 Resources Short Stories Answers Test2010-10-22T11:33:00+00:00 17 MB 
[TXT]Unit 3 Section A Supplement Answer Key2010-10-23T08:52:00+00:00 21 MB 
[TXT]Unit 1 Economics Edexcel June 2013 Answers2010-10-24T06:11:00+00:00 24 MB 
[TXT]Utkarsh Ras Answer Key 20122010-10-25T03:30:00+00:00 18 MB 
[TXT]Ugc Net 2013 Answer Key Environmental Science2010-10-26T00:49:00+00:00 22 MB 
[TXT]Ucsmp Geometry Answer Key2010-10-26T22:08:00+00:00 17 MB 
[TXT]Unidad 3 Etapa 1 Actividades Para Todos Answers2010-10-27T19:27:00+00:00 25 MB 
[TXT]Unit 3 Geography Challenge Answers Usa2010-10-28T16:46:00+00:00 17 MB 
[TXT]Unit 1 Chemistry Study Guide Answers2010-10-29T14:05:00+00:00 17 MB 
[TXT]Us History Constitution Unit Test Answers2010-10-30T11:24:00+00:00 23 MB 
[TXT]Ucf Math Placement Exam Answers2010-10-31T08:43:00+00:00 22 MB 
[TXT]Unit 2 Uniform Acceleration 4 Answers2010-11-01T06:02:00+00:00 20 MB 
[TXT]Understanding Basic Statistics Fifth Edition Review Answers2010-11-02T03:21:00+00:00 22 MB 
[TXT]Una Vez Mas Terecra Edicion Workbook Answers2010-11-03T00:40:00+00:00 20 MB 
[TXT]Unique Answering Machine Messages2010-11-03T21:59:00+00:00 22 MB 
[TXT]Unit 4 Resources Poetry Answers Pat Mora2010-11-04T19:18:00+00:00 19 MB 
[TXT]Urinary System Matching Answer Key2010-11-05T16:37:00+00:00 22 MB 
[TXT]Understanding Populations Concept Review Answer Key2010-11-06T13:56:00+00:00 24 MB 
[TXT]Us History Guided Reading Answers Unit 4 Chapter 142010-11-07T11:15:00+00:00 25 MB 
[TXT]Umpire Test Exam Answers2010-11-08T08:34:00+00:00 24 MB 
[TXT]Unit 14 Vocabulary And Spelling Answer2010-11-09T05:53:00+00:00 24 MB 
[TXT]Unit 8 Stoichiometry Answers2010-11-10T03:12:00+00:00 17 MB 
[TXT]Us Government Gradpoint Answers2010-11-11T00:31:00+00:00 24 MB 
[TXT]Upstream Intermediate B2 Workbook Answers2010-11-11T21:50:00+00:00 24 MB 
[TXT]Understanding Arguments 8th Edition Answer Key2010-11-12T19:09:00+00:00 24 MB 
[TXT]Unidad 2 Leccion 1 Answers2010-11-13T16:28:00+00:00 25 MB 
[TXT]United States History Fourth Edition Answers2010-11-14T13:47:00+00:00 22 MB 
[TXT]Upstream Elementary A2 Work Answers2010-11-15T11:06:00+00:00 22 MB 
[TXT]Unanswered Questions2010-11-16T08:25:00+00:00 19 MB 
[TXT]United States History Review Book Answers2010-11-17T05:44:00+00:00 22 MB 
[TXT]Us History Workbook Answers2010-11-18T03:03:00+00:00 18 MB 
[TXT]Us History Guided Answers Ch 222010-11-19T00:22:00+00:00 19 MB 
[TXT]Unit 5 The Judicial Branch Answers2010-11-19T21:41:00+00:00 18 MB 
[TXT]Unit Iv 5 Newtons Third Law Answer2010-11-20T19:00:00+00:00 17 MB 
[TXT]Usa Immigration Question And Answer2010-11-21T16:19:00+00:00 20 MB 
[TXT]Urinary System Wordsearch Answer Key Biology Corner2010-11-22T13:38:00+00:00 24 MB 
[TXT]Una Vez Mas Answer Key2010-11-23T10:57:00+00:00 17 MB 
[TXT]Union Pacific Test Answers2010-11-24T08:16:00+00:00 20 MB 
[TXT]Urinary System Worksheets With Answers2010-11-25T05:35:00+00:00 24 MB 
[TXT]Us History Guided Reading Answers2010-11-26T02:54:00+00:00 18 MB 
[TXT]United States History Beginnings To 1877 Answers2010-11-27T00:13:00+00:00 17 MB 
[TXT]Unit 43 Air Source Heat Pumps Answers2010-11-27T21:32:00+00:00 20 MB 
[TXT]Uptu Answer Key 2013 By Resonance2010-11-28T18:51:00+00:00 21 MB 
[TXT]Usatestprep Inc Ouzzleanswers2010-11-29T16:10:00+00:00 23 MB 
[TXT]Using Econometrics 6th Edition Answers2010-11-30T13:29:00+00:00 24 MB 
[TXT]Ultimate Ap Bio Exam Review Answer Key2010-12-01T10:48:00+00:00 18 MB 
[TXT]Unix Mcqs With Answers2010-12-02T08:07:00+00:00 17 MB 
[TXT]Unit 4 Executive Branch Test Answers2010-12-03T05:26:00+00:00 20 MB 
[TXT]Us History Practice Test Answers2010-12-04T02:45:00+00:00 25 MB 
[TXT]Upsc Scra Model Question Papers With Answers2010-12-05T00:04:00+00:00 25 MB 
[TXT]Upstream B2 Intermediate Answer2010-12-05T21:23:00+00:00 18 MB 
[TXT]Us Lacrosse High School Rules Test Answers2010-12-06T18:42:00+00:00 24 MB 
[TXT]Unit 8 Test Geometric Figures Answers2010-12-07T16:01:00+00:00 17 MB 
[TXT]Upstream B2 Modul 1 2 3 4 5 Test Answer2010-12-08T13:20:00+00:00 17 MB 
[TXT]Uniden Telephone Answering System2010-12-09T10:39:00+00:00 22 MB 
[TXT]Ucsmp Advanced Algebra Answers2010-12-10T07:58:00+00:00 25 MB 
[TXT]United States History Study Guide Answer Key2010-12-11T05:17:00+00:00 17 MB 
[TXT]Ukzn Answers To Past Papers2010-12-12T02:36:00+00:00 18 MB 
[TXT]Uniden Answering Machine Dect 602010-12-12T23:55:00+00:00 22 MB 
[TXT]Upstream Workbook B2 Suggested Answers2010-12-13T21:14:00+00:00 19 MB 
[TXT]Uniden Answering Machine Instruction Manual2010-12-14T18:33:00+00:00 24 MB 
[TXT]Unit Hsc 3003 Answers2010-12-15T15:52:00+00:00 23 MB 
[TXT]Ultimate Guide Job Interview Answers 20092010-12-16T13:11:00+00:00 22 MB 
[TXT]Ultimate Regents Physics Question And Answer2010-12-17T10:30:00+00:00 25 MB 
[TXT]Uniden Manual Answering Machine2010-12-18T07:49:00+00:00 23 MB 
[TXT]Us And Global Economics Final Exam Answers2010-12-19T05:08:00+00:00 25 MB 
[TXT]Unisa Past Exam Papers And Answers Mng302b2010-12-20T02:27:00+00:00 23 MB 
[TXT]Unit E Vocab Answers2010-12-20T23:46:00+00:00 23 MB 
[TXT]Unlawful Detainer Answer Sample2010-12-21T21:05:00+00:00 20 MB 
[TXT]Upsc Preliminary Exam Question Papers With Answers2010-12-22T18:24:00+00:00 21 MB 
[TXT]Upstream Level B1plus Grammar Answers2010-12-23T15:43:00+00:00 25 MB 
[TXT]Usatestprep Answer Key Biology2010-12-24T13:02:00+00:00 20 MB 
[TXT]Uniden Digital Answering Machine2010-12-25T10:21:00+00:00 25 MB 
[TXT]Unit 4 Vocabulary Answer Sheet Biology2010-12-26T07:40:00+00:00 20 MB 
[TXT]Us History E2020 Answers2010-12-27T04:59:00+00:00 17 MB 
[TXT]Unit 4 Lecon 9 Workbook Answers2010-12-28T02:18:00+00:00 23 MB 
[TXT]Unisa Apy1501 Past Exam Papers And Answers2010-12-28T23:37:00+00:00 21 MB 
[TXT]Usa Studies Weekly Week 17 Answers2010-12-29T20:56:00+00:00 17 MB 
[TXT]Unit 3 Geography Challenge Answers2010-12-30T18:15:00+00:00 17 MB 
[TXT]Using Similar Polygons Answer Key2010-12-31T15:34:00+00:00 21 MB 
[TXT]Unidad 7 Vocabulario B Avancemos Answers2011-01-01T12:53:00+00:00 17 MB 
[TXT]Unit 5 Probability Answers2011-01-02T10:12:00+00:00 19 MB 
[TXT]Usatestprep Ratios Crossword Answers2011-01-03T07:31:00+00:00 19 MB 
[TXT]Understing Earth 5th Edition Answers2011-01-04T04:50:00+00:00 17 MB 
[TXT]Unm Homework 4 Answers2011-01-05T02:09:00+00:00 20 MB 
[TXT]Unidad 4 Leccion 1 Answers Spanish2011-01-05T23:28:00+00:00 25 MB 
[TXT]Unit 3 Microeconomics Lesson 6 Activity 41 Answers2011-01-06T20:47:00+00:00 17 MB 
[TXT]Understable Statistics 8th Edition Answers2011-01-07T18:06:00+00:00 20 MB 
[TXT]Unit 3 The Collapse Of Reconstruction Answers2011-01-08T15:25:00+00:00 18 MB 
[TXT]Unit Two Test V1 Answers2011-01-09T12:44:00+00:00 22 MB 
[TXT]Unit 3 Microeconomics Lesson 6 Activity 41 Answer Key2011-01-10T10:03:00+00:00 23 MB 
[TXT]Us History Eoc Review Answers2011-01-11T07:22:00+00:00 25 MB 
[TXT]Us History 2 Apex Answer2011-01-12T04:41:00+00:00 19 MB 
[TXT]Unit 7 Level E Vocab Answers2011-01-13T02:00:00+00:00 19 MB 
[TXT]Urinary System Wordsearch Answers2011-01-13T23:19:00+00:00 25 MB 
[TXT]Usa Studies Weekly Answer Key Week 102011-01-14T20:38:00+00:00 17 MB 
[TXT]Unit Conversion Answer Key2011-01-15T17:57:00+00:00 19 MB 
[TXT]Upstream B1 Answers Students2011-01-16T15:16:00+00:00 23 MB 
[TXT]Us History Semester 2 Final Exam Answers2011-01-17T12:35:00+00:00 24 MB 
[TXT]Usatestprep Answers For History2011-01-18T09:54:00+00:00 22 MB 
[TXT]Upsc Answer Key 2013 Paper 22011-01-19T07:13:00+00:00 19 MB 
[TXT]Unit 2 Collection 6 Selection Test Answers2011-01-20T04:32:00+00:00 23 MB 
[TXT]Unit Circle Project Answer Key2011-01-21T01:51:00+00:00 25 MB 
[TXT]Us History A Final Exam Review Answers2011-01-21T23:10:00+00:00 18 MB 
[TXT]Upstream Upper Intermediate B2 Teacher Answers2011-01-22T20:29:00+00:00 18 MB 
[TXT]University Of Florida Algebra Nation Answer Key2011-01-23T17:48:00+00:00 25 MB 
[TXT]Unit 3 Chemical Equilibrium Assignment 2 Answers2011-01-24T15:07:00+00:00 25 MB 
[TXT]Unite 5 Lecon 16 Workbook Answers2011-01-25T12:26:00+00:00 23 MB 
[TXT]Understanding Shakespeare Sonnet 73 Grade Nine Answers2011-01-26T09:45:00+00:00 17 MB 
[TXT]Us History Scavenger Hunt Packet Answers2011-01-27T07:04:00+00:00 17 MB 
[TXT]Using A Dichotomous Key Freshwater Fish Answers2011-01-28T04:23:00+00:00 18 MB 
[TXT]Upsc Scra Question Papers With Answers2011-01-29T01:42:00+00:00 17 MB 
[TXT]Usa Studies Weekly Week 18 Answer Key2011-01-29T23:01:00+00:00 19 MB 
[TXT]Uniden 60 Manual Answering Machine2011-01-30T20:20:00+00:00 21 MB 
[TXT]University Physics 11th Edition Answers2011-01-31T17:39:00+00:00 18 MB 
[TXT]United States History Since 1877 Key Answers2011-02-01T14:58:00+00:00 22 MB 
[TXT]Understanding Mechanics Sadler Answers Unit 32011-02-02T12:17:00+00:00 20 MB 
[TXT]Us History American Company Eoct Answer Key2011-02-03T09:36:00+00:00 18 MB 
[TXT]Unique Global Imports Manual Simulation Key Answers2011-02-04T06:55:00+00:00 17 MB 
[TXT]Ubc Eosc 112 Past Exams And Answers2011-02-05T04:14:00+00:00 21 MB 
[TXT]Uniden Cordless Phone With Answering Machine Manual2011-02-06T01:33:00+00:00 24 MB 
[TXT]Unite 3 Lecon 8 Lesson Quiz Answers2011-02-06T22:52:00+00:00 23 MB 
[TXT]Understanding Investments Packet Answers Dave Ramsey2011-02-07T20:11:00+00:00 21 MB 
[TXT]Unit 34 Indoor Air Quality Answer Exam2011-02-08T17:30:00+00:00 17 MB 
[TXT]Using Specific Heat Answer Key2011-02-09T14:49:00+00:00 25 MB 
[TXT]Uptet2013 14 Answer Key2011-02-10T12:08:00+00:00 21 MB 
[TXT]Unit 10 System Charging Answers2011-02-11T09:27:00+00:00 18 MB 
[TXT]United Learning Worksheet Answers2011-02-12T06:46:00+00:00 18 MB 
[TXT]Unit 11 Vocab Answers2011-02-13T04:05:00+00:00 18 MB 
[TXT]Upstream Upper Intermediate B2 Work Answers2011-02-14T01:24:00+00:00 25 MB 
[TXT]Us History 2012 Ap Exam Answers2011-02-14T22:43:00+00:00 24 MB 
[TXT]Uce Chemistry Paper2 Answers 20132011-02-15T20:02:00+00:00 21 MB 
[TXT]Ubitums Puzzler Holt Answer2011-02-16T17:21:00+00:00 23 MB 
[TXT]Unit 8 Geography Challenge Answers2011-02-17T14:40:00+00:00 23 MB 
[TXT]Unit 9 Vocabulary Workshop Answers2011-02-18T11:59:00+00:00 22 MB 
[TXT]Unit 2 Economics Test Answers2011-02-19T09:18:00+00:00 24 MB 
[TXT]Us History Guided Answers2011-02-20T06:37:00+00:00 23 MB 
[TXT]Upfront Magazine Answers2011-02-21T03:56:00+00:00 22 MB 
[TXT]Uscis 100 Questions And Answers2011-02-22T01:15:00+00:00 21 MB 
[TXT]Usa Studies Weekly Answer Key Week 72011-02-22T22:34:00+00:00 24 MB 
[TXT]Unit 7 Ws3b V3 Answers2011-02-23T19:53:00+00:00 22 MB 
[TXT]Us History Lesson 19 Handout 31 Answers2011-02-24T17:12:00+00:00 23 MB 
[TXT]Unit 7 Chemistry Final Exam With Answers2011-02-25T14:31:00+00:00 25 MB 
[TXT]Understanding Credit Card Debt Answer Key2011-02-26T11:50:00+00:00 25 MB 
[TXT]Unit 6 Macroeconomics Long Response Answers2011-02-27T09:09:00+00:00 18 MB 
[TXT]Upco Physical Settings Chemistry Review Answers2011-02-28T06:28:00+00:00 17 MB 
[TXT]Unidad 4 Leccion 1 Answers2011-03-01T03:47:00+00:00 22 MB 
[TXT]Uniden Phone Answering Machine Setup2011-03-02T01:06:00+00:00 21 MB 
[TXT]Unix Commands Interview Questions With Answers2011-03-02T22:25:00+00:00 19 MB 
[TXT]Us Citizenship Questions And Answers 20142011-03-03T19:44:00+00:00 22 MB 
[TXT]Ubungsheft Komm Mit Holt German 1 Answers2011-03-04T17:03:00+00:00 17 MB 
[TXT]Ugc Net 2013 Answer Key Electronic Science2011-03-05T14:22:00+00:00 17 MB 
[TXT]Unit Iv Worksheet 1 Answers2011-03-06T11:41:00+00:00 20 MB 
[TXT]Upper Intermediate Test 8 Answers2011-03-07T09:00:00+00:00 22 MB 
[TXT]Understanding The Times Answers2011-03-08T06:19:00+00:00 18 MB 
[TXT]Uga Us History Test And Answers2011-03-09T03:38:00+00:00 20 MB 
[TXT]Unit 3 Refrigeration Seventh Edition Answer Key2011-03-10T00:57:00+00:00 17 MB 
[TXT]Usa Studies Weekly Week 23 Answer Key2011-03-10T22:16:00+00:00 20 MB 
[TXT]Uniden Elite Answering Machine2011-03-11T19:35:00+00:00 22 MB 
[TXT]Usmc Mci Answers 0119h Punctuation2011-03-12T16:54:00+00:00 19 MB 
[TXT]Unidad 6 Leccion 1 Leer B Answers2011-03-13T14:13:00+00:00 19 MB 
[TXT]Us Constitution Study Guide And Answer Key2011-03-14T11:32:00+00:00 20 MB 
[TXT]Unit V Worksheet 3 Answers2011-03-15T08:51:00+00:00 23 MB 
[TXT]Understanding Construction Drawings 6th Edition Answers2011-03-16T06:10:00+00:00 25 MB 
[TXT]Understanding Evolution Packet Answers2011-03-17T03:29:00+00:00 18 MB 
[TXT]Use The Functions To Answer Question2011-03-18T00:48:00+00:00 20 MB 
[TXT]Users Of Chemistry A Modern Course Answers2011-03-18T22:07:00+00:00 24 MB 
[TXT]Unit Hsc 2016 Answers2011-03-19T19:26:00+00:00 24 MB 
[TXT]Usatestprep Understanding And Using Literary Text Answers2011-03-20T16:45:00+00:00 25 MB 
[TXT]Urinary System Multiple Choice Questions And Answers2011-03-21T14:04:00+00:00 20 MB 
[TXT]Uscg Test Questions And Answers2011-03-22T11:23:00+00:00 22 MB 
[TXT]Unit Emathinstruction Review Answers2011-03-23T08:42:00+00:00 22 MB 
[TXT]Usatestprep Answer Key Evolution2011-03-24T06:01:00+00:00 17 MB 
[TXT]Upstream Upper Intermediate Workbook Answer Key2011-03-25T03:20:00+00:00 21 MB 
[TXT]Using And Constructing A Classification Key Answers2011-03-26T00:39:00+00:00 21 MB 
[TXT]Upsc 2010 Prelims Question Paper With Answers2011-03-26T21:58:00+00:00 18 MB 
[TXT]Unattended Installation Answer File2011-03-27T19:17:00+00:00 22 MB 
[TXT]Unit 10 Review South Asia Answer Key2011-03-28T16:36:00+00:00 18 MB 
[TXT]Unit 5 American Government Hsa Review Answers2011-03-29T13:55:00+00:00 23 MB 
[TXT]Ultimate Chemical Equation Answers2011-03-30T11:14:00+00:00 25 MB 
[TXT]Ugc Net Answer Key 2013 Commerce2011-03-31T08:33:00+00:00 24 MB 
[TXT]Understanding Fiscal Policy Guided And Review Answers2011-04-01T05:52:00+00:00 24 MB 
[TXT]Upstream Student S Book B1 Answers2011-04-02T03:11:00+00:00 17 MB 
[TXT]University Admission Test Omr Answer Sheet2011-04-03T00:30:00+00:00 18 MB 
[TXT]Us Bank Web Based Training Answers Doc2011-04-03T21:49:00+00:00 20 MB 
[TXT]U S History Lesson 26 Handout Answers2011-04-04T19:08:00+00:00 19 MB 
[TXT]Unit Hsc 028 Answers2011-04-05T16:27:00+00:00 22 MB 
[TXT]Ugc Net Answer Key 2013 History2011-04-06T13:46:00+00:00 20 MB 
[TXT]Upp Answer Key Download2011-04-07T11:05:00+00:00 22 MB 
[TXT]Us History B Plato Answers2011-04-08T08:24:00+00:00 18 MB 
[TXT]Unit Viii Worksheet 3 Answers2011-04-09T05:43:00+00:00 23 MB 
[TXT]Us History Lesson 7 Handout Answers2011-04-10T03:02:00+00:00 25 MB 
[TXT]Upsc Current Affairs Questions Answers2011-04-11T00:21:00+00:00 22 MB 
[TXT]Unit 2 Assignment 1 Transfer Time Answers2011-04-11T21:40:00+00:00 20 MB 
[TXT]Unidad 4 Leccion 2 Gramatica A Answer2011-04-12T18:59:00+00:00 24 MB 
[TXT]Unit 6 Quadrilaterals Answer Key2011-04-13T16:18:00+00:00 23 MB 
[TXT]Uptet 2013 Answer Key Upper Primary2011-04-14T13:37:00+00:00 23 MB 
[TXT]Unit 1 Similarity Congruence And Proofs Answers2011-04-15T10:56:00+00:00 23 MB 
[TXT]Unit 12 Statistics Review Answer Key2011-04-16T08:15:00+00:00 22 MB 
[TXT]Unit 3 Macroeconomics Test Answers2011-04-17T05:34:00+00:00 23 MB 
[TXT]Usa Trivia Intelligence Quiz Answers2011-04-18T02:53:00+00:00 17 MB 
[TXT]Understanding The Times Answers Pdf2011-04-19T00:12:00+00:00 19 MB 
[TXT]Upstream Pre Intermediate B2 Workbook Answer2011-04-19T21:31:00+00:00 19 MB 
[TXT]Unit 5 Graphing Quadratic Functions Answers2011-04-20T18:50:00+00:00 18 MB 
[TXT]Uneb Past Papers Question And Answers2011-04-21T16:09:00+00:00 24 MB 
[TXT]Usa Test Prep Answers Math 22011-04-22T13:28:00+00:00 24 MB 
[TXT]Usa Eoc History Test Prep Answer Key2011-04-23T10:47:00+00:00 19 MB 
[TXT]Unit 1 Structure Properties Of Matter Answer Key2011-04-24T08:06:00+00:00 21 MB 
[TXT]Upstream B2 Answers2011-04-25T05:25:00+00:00 25 MB 
[TXT]Understing Psychology Answer Key2011-04-26T02:44:00+00:00 17 MB 
[TXT]Unit Vii Ws 3a Answers2011-04-27T00:03:00+00:00 20 MB 
[TXT]Unit Test For Vertebrates With Key Answers2011-04-27T21:22:00+00:00 24 MB 
[TXT]Usa Citizenship Test Questions And Answers 20132011-04-28T18:41:00+00:00 24 MB 
[TXT]Uneb O Level Questions And Answers2011-04-29T16:00:00+00:00 21 MB 
[TXT]Ugc Net Answer Key 2013 Paper 12011-04-30T13:19:00+00:00 17 MB 
[TXT]United Stateshistory Assessment Answers Ch 172011-05-01T10:38:00+00:00 18 MB 
[TXT]Understanding Evolution Answer Key2011-05-02T07:57:00+00:00 23 MB 
[TXT]Upstream Level B1 Answers2011-05-03T05:16:00+00:00 22 MB 
[TXT]Us Constitution Answer Key2011-05-04T02:35:00+00:00 22 MB 
[TXT]Unit 6 Connecting Algebra And Geometry Answers2011-05-04T23:54:00+00:00 19 MB 
[TXT]Upstream For Bulgaria Level B1 Workbook Answers2011-05-05T21:13:00+00:00 24 MB 
[TXT]Unit 2 Business Law Test Answer Key2011-05-06T18:32:00+00:00 19 MB 
[TXT]Unit 12 Reproductive System Worksheet Answers2011-05-07T15:51:00+00:00 18 MB 
[TXT]Unattended Answer File2011-05-08T13:10:00+00:00 20 MB 
[TXT]Unit 7 Chapter 26 Cold War Answer Key2011-05-09T10:29:00+00:00 23 MB 
[TXT]Uneb Past Papers With Answers2011-05-10T07:48:00+00:00 17 MB 
[TXT]Ut Quest Physics Answers2011-05-11T05:07:00+00:00 18 MB 
[TXT]Unit 10 Apush Test Answers2011-05-12T02:26:00+00:00 20 MB 
[TXT]Unit 7 Test Form A Geometry Answers2011-05-12T23:45:00+00:00 23 MB 
[TXT]Ut Quest Answers Physics2011-05-13T21:04:00+00:00 23 MB 
[TXT]Us History January 2013 Answer Key2011-05-14T18:23:00+00:00 18 MB 
[TXT]Usa Studies Weekly Week 10 Answer Key2011-05-15T15:42:00+00:00 24 MB 
[TXT]Unit 1 Review Parts Of Speech Answers2011-05-16T13:01:00+00:00 17 MB 
[TXT]Ucsmp Algebra Answers2011-05-17T10:20:00+00:00 21 MB 
[TXT]Using Sources Effectively 3rd Edition Answer Key2011-05-18T07:39:00+00:00 25 MB 
[TXT]Using Index Fossils Lab Answer Key2011-05-19T04:58:00+00:00 24 MB 
[TXT]Ugc Net Computer Science And Application Answer Key June 20132011-05-20T02:17:00+00:00 19 MB 
[TXT]Unit 3 Vocabulary Packet Answers2011-05-20T23:36:00+00:00 19 MB 
[TXT]Unit 2 The Living Constitution Guided Answers2011-05-21T20:55:00+00:00 19 MB 
[TXT]Ultimate Equations Handbook Answers2011-05-22T18:14:00+00:00 19 MB 
[TXT]Unidad 1 Leccion Answers2011-05-23T15:33:00+00:00 19 MB 
[TXT]Unit 4 Covalent Bonding Webquest Answer Key2011-05-24T12:52:00+00:00 23 MB 
[TXT]Unit 1 Review Test Answer Key2011-05-25T10:11:00+00:00 18 MB 
[TXT]Upco Earth Science Book Answer Key2011-05-26T07:30:00+00:00 18 MB 
[TXT]Upstream 2 Self Assessment Modul 1 Answer2011-05-27T04:49:00+00:00 18 MB 
[TXT]Unit 3 Macroeconomics Answer Key2011-05-28T02:08:00+00:00 18 MB 
[TXT]Unit 1 Living Abroad Answer Key2011-05-28T23:27:00+00:00 20 MB 
[TXT]Unite 5 Lecon 17 Workbook Answers2011-05-29T20:46:00+00:00 24 MB 
[TXT]Underlying Causes Of Ww1 Dbq Answers2011-05-30T18:05:00+00:00 23 MB 
[TXT]Unit 8 Resource Mcdougal Litell Biology Answers2011-05-31T15:24:00+00:00 25 MB 
[TXT]Us Geography Trivia Questions And Answers2011-06-01T12:43:00+00:00 18 MB 
[TXT]Uiuc Math Answers2011-06-02T10:02:00+00:00 22 MB 
[TXT]Us Government Final Exam Review Answer Key2011-06-03T07:21:00+00:00 19 MB 
[TXT]Upco Earth Science 2013 Answer Slideshare2011-06-04T04:40:00+00:00 19 MB 
[TXT]Unisa Eth306w Exam Answers2011-06-05T01:59:00+00:00 25 MB 
[TXT]Understanding Psychology Guided Activities Answer Key2011-06-05T23:18:00+00:00 25 MB 
[TXT]Understanding Meats And Game Study Guide Answers2011-06-06T20:37:00+00:00 20 MB 
[TXT]United States Constitution Worksheet Answers2011-06-07T17:56:00+00:00 18 MB 
[TXT]Unintended Consequences Answer Key Food Inc2011-06-08T15:15:00+00:00 20 MB 
[TXT]Ucsmp Functions Statistics Trigonometry Answer Key2011-06-09T12:34:00+00:00 18 MB 
[TXT]U8 Energy V3 1 Answers2011-06-10T09:53:00+00:00 25 MB 
[TXT]Unit 4 15 Of 22 Answer Key2011-06-11T07:12:00+00:00 22 MB 
[TXT]Unit 31 Hvac Answers2011-06-12T04:31:00+00:00 25 MB 
[TXT]Ut Quest Answers Chemistry2011-06-13T01:50:00+00:00 25 MB 
[TXT]Unit Rate Worksheets And Answer Key2011-06-13T23:09:00+00:00 17 MB 
[TXT]Using Dna To Identify Human Remains Answers2011-06-14T20:28:00+00:00 25 MB 
[TXT]Us Government Final Review Answers2011-06-15T17:47:00+00:00 23 MB 
[TXT]Unit 4 Macroeconomics Lesson 3 Activity 37 Answer Key2011-06-16T15:06:00+00:00 20 MB 
[TXT]Unit 2 Vocabulary Answers Adroit2011-06-17T12:25:00+00:00 19 MB 
[TXT]Unit Hsc 025 Answers2011-06-18T09:44:00+00:00 17 MB 
[TXT]Usa Studies Weekly Week 13 Answers2011-06-19T07:03:00+00:00 23 MB 
[TXT]Us History Semester Review Answers2011-06-20T04:22:00+00:00 22 MB 
[TXT]Unit 9 Homework And Remembering Answers2011-06-21T01:41:00+00:00 23 MB 
[TXT]Unidad 5 Etapa 1 Mas Practica Answers2011-06-21T23:00:00+00:00 24 MB 
[TXT]Unit Iv 1 Answers2011-06-22T20:19:00+00:00 23 MB 
[TXT]Unit 4 Covalent Bonding Webquest Answers2011-06-23T17:38:00+00:00 25 MB 
[TXT]Usa Test Prep Answers Key For Math2011-06-24T14:57:00+00:00 25 MB 
[TXT]Using Irregular Verbs That Stay The Same Answers2011-06-25T12:16:00+00:00 17 MB 
[TXT]Unit 12 Punctuation Abbreviations And Numbers Answers2011-06-26T09:35:00+00:00 23 MB 
[TXT]Us Government Chapter 12 Answer Key Prentixe Hall2011-06-27T06:54:00+00:00 23 MB 
[TXT]Ugc Net Answer Key Dec 20132011-06-28T04:13:00+00:00 17 MB 
[TXT]Unite 5 Lecon 15 Answers2011-06-29T01:32:00+00:00 25 MB 
[TXT]Unit 13 Level E Vocab Answers2011-06-29T22:51:00+00:00 19 MB 
[TXT]Umat Sample Questions And Answers2011-06-30T20:10:00+00:00 20 MB 
[TXT]Upstream B2 Work Answer Key2011-07-01T17:29:00+00:00 19 MB 
[TXT]Understanding Psychology Guided Answers2011-07-02T14:48:00+00:00 19 MB 
[TXT]Unit 6 Anatomy And Physiology Answer Key2011-07-03T12:07:00+00:00 20 MB 
[TXT]Us History Questions With Answers2011-07-04T09:26:00+00:00 22 MB 
[TXT]Unanswered Cries Karen Gregory2011-07-05T06:45:00+00:00 20 MB 
[TXT]Uniden Phone Answering Machine Manual2011-07-06T04:04:00+00:00 24 MB 
[TXT]Unit Magic Square Night Answer Key Ebook Online Library2011-07-07T01:23:00+00:00 23 MB 
[TXT]Usatestprep Crosswords Answers U S Constitution2011-07-07T22:42:00+00:00 20 MB 
[TXT]Upstream Intermediate B2 Teachers Answers2011-07-08T20:01:00+00:00 20 MB 
[TXT]United States History And Government Regents Answer Key2011-07-09T17:20:00+00:00 23 MB 
[TXT]Unit 3 Worksheet 1 Answers2011-07-10T14:39:00+00:00 19 MB 
[TXT]Unit 12 Chemistry Solubility Curves Answers2011-07-11T11:58:00+00:00 21 MB 
[TXT]Unsw Acct 2522 Tutorial Answers2011-07-12T09:17:00+00:00 23 MB 
[TXT]Unit Conversions Answer Key Explore Learning2011-07-13T06:36:00+00:00 17 MB 
[TXT]Unit 7 Test Review Sheet Answers2011-07-14T03:55:00+00:00 24 MB 
[TXT]Unit 7 Test Form B Geometry Answers2011-07-15T01:14:00+00:00 25 MB 
[TXT]Us History First Semester Study Guide Answers2011-07-15T22:33:00+00:00 17 MB 
[TXT]Understanding Scientific Reasoning 5th Edition Answers2011-07-16T19:52:00+00:00 22 MB 
[TXT]Unit 1 Nature Of Science Answer Key2011-07-17T17:11:00+00:00 21 MB 
[TXT]Unit 1 The Driving Task Answers2011-07-18T14:30:00+00:00 24 MB 
[TXT]Us History Gradpoint Course Answers2011-07-19T11:49:00+00:00 20 MB 
[TXT]Unit 4 Resources Poetry Answers Pearson2011-07-20T09:08:00+00:00 19 MB 
[TXT]University Physics 13e Answers2011-07-21T06:27:00+00:00 24 MB 
[TXT]Usmle Sample Questions 2003 Answers With Explanation2011-07-22T03:46:00+00:00 20 MB 
[TXT]Us Answer Reviews2011-07-23T01:05:00+00:00 19 MB 
[TXT]Us History Regents Answer Key2011-07-23T22:24:00+00:00 21 MB 
[TXT]Understanding Business Answers2011-07-24T19:43:00+00:00 18 MB 
[TXT]Usa Test Prep Biology Answer Key2011-07-25T17:02:00+00:00 20 MB 
[TXT]Upsc Exam 2013 Key Answers2011-07-26T14:21:00+00:00 21 MB 
[TXT]Us History Guided Reading Chapter 26 Section 2 Answers2011-07-27T11:40:00+00:00 20 MB 
[TXT]Unidad 1 Leccion 2 Answers2011-07-28T08:59:00+00:00 24 MB 
[TXT]Unit Vii Worksheet 1 Answers2011-07-29T06:18:00+00:00 23 MB 
[TXT]Unite 8 Lecon 31 Workbook Answers2011-07-30T03:37:00+00:00 23 MB 
[TXT]Us History Workbook Answer Key2011-07-31T00:56:00+00:00 18 MB 
[TXT]Use These Answers For Questions 11 14 Chemistry Geek2011-07-31T22:15:00+00:00 19 MB 
[TXT]Unit 5 Creating Perspective Answers2011-08-01T19:34:00+00:00 18 MB 
[TXT]Uniden Dect 60 Cordless Digital Answering System2011-08-02T16:53:00+00:00 17 MB 
[TXT]Unidad 4 Etapa 2 Answers2011-08-03T14:12:00+00:00 17 MB 
[TXT]Unit 17 Nuclear Chemistry Study Guide Answers2011-08-04T11:31:00+00:00 21 MB 
[TXT]Unusual Case Of Animal Reproduction Answers2011-08-05T08:50:00+00:00 20 MB 
[TXT]Usatestprep Answers Evolution Matching2011-08-06T06:09:00+00:00 23 MB 
[TXT]Unit 8 Answer Key Nt11102011-08-07T03:28:00+00:00 23 MB 
[TXT]Understanding Vocabulary Answers Sheet Physics2011-08-08T00:47:00+00:00 24 MB 
[TXT]Unisa Past Exam Papers And Answers Mne37042011-08-08T22:06:00+00:00 20 MB 
[TXT]Unit 4 Answers In Electrical Wiring Residential2011-08-09T19:25:00+00:00 23 MB 
[TXT]Unit 4 Skeletal System Answers2011-08-10T16:44:00+00:00 23 MB 
[TXT]Usatestprep Answers Key2011-08-11T14:03:00+00:00 20 MB 
[TXT]Unit 5 Judicial Branch Guided Notes Answers2011-08-12T11:22:00+00:00 24 MB 
[TXT]Ussf Referee Test Answers2011-08-13T08:41:00+00:00 19 MB 
[TXT]U8 Ws 3 V3 1 Answers2011-08-14T06:00:00+00:00 24 MB 
[TXT]Urinary System Exam With Answers2011-08-15T03:19:00+00:00 23 MB 
[TXT]Ussf State Referee Exam Answers2011-08-16T00:38:00+00:00 23 MB 
[TXT]Urinary System And Excretion Webquest Answers2011-08-16T21:57:00+00:00 17 MB 
[TXT]Us History Practice Test 3 Answers2011-08-17T19:16:00+00:00 21 MB 
[TXT]Urinary System Wordsearch Answer2011-08-18T16:35:00+00:00 17 MB 
[TXT]Upper Intermediate Workbook Answers2011-08-19T13:54:00+00:00 20 MB 
[TXT]Us Army Questions And Answers2011-08-20T11:13:00+00:00 17 MB 
[TXT]Unit 11 Test Conic Sections Answer Key2011-08-21T08:32:00+00:00 18 MB 
[TXT]Usa Answer Key2011-08-22T05:51:00+00:00 24 MB 
[TXT]Us History Exam Odysseyware Answers2011-08-23T03:10:00+00:00 21 MB 
[TXT]Unix Interview Questions And Answers For Java Developers2011-08-24T00:29:00+00:00 22 MB 
[TXT]Upco Physical Setting Earth Science Answer Key2011-08-24T21:48:00+00:00 22 MB 
[TXT]Using Punnett Squares Practice Skills Answers2011-08-25T19:07:00+00:00 19 MB 
[TXT]Upstream Advanced C1 Teachers Answers2011-08-26T16:26:00+00:00 19 MB 
[TXT]Urinary System Word Search Answer2011-08-27T13:45:00+00:00 24 MB 
[TXT]Usa Test Prep Answers2011-08-28T11:04:00+00:00 21 MB 
[TXT]Upsc Exam Papers With Answers 20112011-08-29T08:23:00+00:00 20 MB 
[TXT]Unseen Passages For Class 8 With Answers2011-08-30T05:42:00+00:00 24 MB 
[TXT]Unit 3 Macroeconomics Lesson 7 Activity 29 Answers2011-08-31T03:01:00+00:00 21 MB 
[TXT]Unit 6 Test Bank Questions Answer Key2011-09-01T00:20:00+00:00 25 MB 
[TXT]Usa Test Prep Math Answers2011-09-01T21:39:00+00:00 19 MB 
[TXT]Unit Ix Worksheet 3 Answers2011-09-02T18:58:00+00:00 19 MB 
[TXT]Urinary System Packet Answers Chap 152011-09-03T16:17:00+00:00 22 MB 
[TXT]United States History Chapter 11 Answer Key2011-09-04T13:36:00+00:00 18 MB 
[TXT]University Of Arizona Credit Basics Answer Key2011-09-05T10:55:00+00:00 23 MB 
[TXT]Ucsmp Geometry Lesson Master Answer Key13 52011-09-06T08:14:00+00:00 20 MB 
[TXT]Unit 4 Reteaching Activity Answers2011-09-07T05:33:00+00:00 25 MB 
[TXT]Uv Spectroscopy Practice Problems Answers2011-09-08T02:52:00+00:00 17 MB 
[TXT]Urinary System Coloring Workbook Answers2011-09-09T00:11:00+00:00 19 MB 
[TXT]Unit 16 Nuclear Chemistry Answer Key2011-09-09T21:30:00+00:00 18 MB 
[TXT]Unisa Inf1511 Past Exam Papers With Answers2011-09-10T18:49:00+00:00 25 MB 
[TXT]Unit 3 The Legislative Branch Test Answers2011-09-11T16:08:00+00:00 17 MB 
[TXT]Urinalysis Case Studies Answers2011-09-12T13:27:00+00:00 25 MB 
[TXT]Upstream 4 Student S Book Answers2011-09-13T10:46:00+00:00 17 MB 
[TXT]Understanding Earth 6th Edition Exercise Answers2011-09-14T08:05:00+00:00 21 MB 
[TXT]Urinary System Anatomy Review Answers2011-09-15T05:24:00+00:00 25 MB 
[TXT]Using Sources Effectively Quiz Answer2011-09-16T02:43:00+00:00 21 MB 
[TXT]Uniden Cordless Phones Answering Machine2011-09-17T00:02:00+00:00 22 MB 
[TXT]Uniden Turn Off Answering Machine2011-09-17T21:21:00+00:00 18 MB 
[TXT]U6 Ws1 V2 Answers2011-09-18T18:40:00+00:00 19 MB 
[TXT]Unite 6 Lesson 18 Answer Key2011-09-19T15:59:00+00:00 18 MB 
[TXT]Us History The Learning Odyssey Answers2011-09-20T13:18:00+00:00 23 MB 
[TXT]Unit Vii Review Answers Physics2011-09-21T10:37:00+00:00 25 MB 
[TXT]Understanding Basic Statistics Answers2011-09-22T07:56:00+00:00 20 MB 
[TXT]Unit Test Answer Key2011-09-23T05:15:00+00:00 17 MB 
[TXT]Unidad 5 Leccion 1 Answers 2082011-09-24T02:34:00+00:00 24 MB 
[TXT]Usa Studies Weekly Week 17 Answer Key2011-09-24T23:53:00+00:00 25 MB 
[TXT]Unit 5 Activity 9 Amdm Answers2011-09-25T21:12:00+00:00 21 MB 
[TXT]Unit Three Advanced Algebra And Financial Answers2011-09-26T18:31:00+00:00 22 MB 
[TXT]Usatestprep Physical Science Crosswords Answers2011-09-27T15:50:00+00:00 20 MB 
[TXT]Unite 2 Lecon 5 Blanc Answers2011-09-28T13:09:00+00:00 20 MB 
[TXT]Us History Lesson 21 Handout Answers2011-09-29T10:28:00+00:00 25 MB 
[TXT]Unit 5 Transformations Answers2011-09-30T07:47:00+00:00 23 MB 
[TXT]Unit 3 The Legislative Branch Workbook Answers2011-10-01T05:06:00+00:00 17 MB 
[TXT]Using Information Technology 10e Answers2011-10-02T02:25:00+00:00 18 MB 
[TXT]Unit 7 Chemical Reactions Review Answer Key2011-10-02T23:44:00+00:00 20 MB 
[TXT]Unix Programming Lab Viva Questions And Answer2011-10-03T21:03:00+00:00 21 MB 
[TXT]Unit 7 Apush Exam Answers2011-10-04T18:22:00+00:00 17 MB 
[TXT]Using Financial Accounting Information Porter 8th Answers2011-10-05T15:41:00+00:00 21 MB 
[TXT]Unit 8 Test Form A Geometry Answers2011-10-06T13:00:00+00:00 23 MB 
[TXT]Usmc Mci Answers For Test 81012011-10-07T10:19:00+00:00 19 MB 
[TXT]Unit 3 Chemistry Review Packet Answers2011-10-08T07:38:00+00:00 21 MB 
[TXT]Usatestprep Inc Ouzzleanswers The New Government2011-10-09T04:57:00+00:00 23 MB 
[TXT]Urinary System Test With Answers2011-10-10T02:16:00+00:00 18 MB 
[TXT]Us History Quiz Answers2011-10-10T23:35:00+00:00 21 MB 
[TXT]Upco Earth Science Book Answers2011-10-11T20:54:00+00:00 19 MB 
[TXT]Usa Studies Weekly Ancient America Reconstruction Answers2011-10-12T18:13:00+00:00 18 MB 
[TXT]Usatestprep Puzzle Answers2011-10-13T15:32:00+00:00 25 MB 
[TXT]Uniden Answering System Instruction Manual2011-10-14T12:51:00+00:00 25 MB 
[TXT]Uniformly Accelerated Particle Model Answers2011-10-15T10:10:00+00:00 19 MB 
[TXT]Unit 8 Answers Gateway B12011-10-16T07:29:00+00:00 19 MB 
[TXT]Unix Multiple Choice More Questions Answers2011-10-17T04:48:00+00:00 17 MB 
[TXT]Upstream Intermediate B2 Workbook Teacher Answers Issuu2011-10-18T02:07:00+00:00 17 MB 
[TXT]Unit 2 Muhammad Ali Answer Key2011-10-18T23:26:00+00:00 18 MB 
[TXT]Unit 1 Alchemy Answers2011-10-19T20:45:00+00:00 21 MB 
[TXT]Unit 4 Government Answers2011-10-20T18:04:00+00:00 18 MB 
[TXT]Upcos Living Environment Biology Answer Key2011-10-21T15:23:00+00:00 25 MB 
[TXT]Understanding Bacteria Worksheet Answer Key2011-10-22T12:42:00+00:00 20 MB 
[TXT]United Streaming The Value Of Evidence Answers2011-10-23T10:01:00+00:00 22 MB 
[TXT]Usa Studies Weekly Answer Key Week 252011-10-24T07:20:00+00:00 22 MB 
[TXT]Us History Flvs Module 5 Test Answers2011-10-25T04:39:00+00:00 24 MB 
[TXT]Understanding The Rutherford Model Questions And Answers2011-10-26T01:58:00+00:00 17 MB 
[TXT]Use The Following To Answer Questions 1 2 32011-10-26T23:17:00+00:00 22 MB 
[TXT]Us Government Final Exam Review Answers 20132011-10-27T20:36:00+00:00 21 MB 
[TXT]Unit 7 Extended Trigonometry Answers2011-10-28T17:55:00+00:00 18 MB 
[TXT]Unit 4 Review Geography Answer Key2011-10-29T15:14:00+00:00 23 MB 
[TXT]Unit 4 Resources Poetry Answers Pears2011-10-30T12:33:00+00:00 25 MB 
[TXT]Us Constitution Internet Scavenger Hunt Answer Key2011-10-31T09:52:00+00:00 22 MB 
[TXT]Ucsmp Math Answers2011-11-01T07:11:00+00:00 23 MB 
[TXT]Use The Flipnob Family Answers2011-11-02T04:30:00+00:00 21 MB 
[TXT]Unite 6 Resources Activites Pour Tous Reading Answers2011-11-03T01:49:00+00:00 20 MB 
[TXT]Ultimate Guide To Job Interview Answers Ebook Download2011-11-03T23:08:00+00:00 25 MB 
[TXT]Uml Diagrams Multiple Choice Questions With Answers2011-11-04T20:27:00+00:00 25 MB 
[TXT]Us Constitution Scavenger Hunt Answer Key2011-11-05T17:46:00+00:00 17 MB 
[TXT]Unit 3 Macroeconomics Test Answer Key2011-11-06T15:05:00+00:00 18 MB 
[TXT]Usps Test 473 Questions Answers2011-11-07T12:24:00+00:00 21 MB 
[TXT]Upsc Civil Services Exam 2012 Answer Key2011-11-08T09:43:00+00:00 20 MB 
[TXT]Upco Physical Setting Physics Answer Key2011-11-09T07:02:00+00:00 19 MB 
[TXT]Unit 5 Lesson 4 Activity 59 Answers2011-11-10T04:21:00+00:00 21 MB 
[TXT]Unattended Answer File Windows 72011-11-11T01:40:00+00:00 20 MB 
[TXT]University Physics Answer Key2011-11-11T22:59:00+00:00 22 MB 
[TXT]Unseen Poem With Questions And Answers2011-11-12T20:18:00+00:00 23 MB 
[TXT]Unit 1 Worksheet 2 Reading Scales Answers2011-11-13T17:37:00+00:00 20 MB 
[TXT]Understanding Pharmacology Answers2011-11-14T14:56:00+00:00 22 MB 
[TXT]Unseen Passage For Class Vii With Answers2011-11-15T12:15:00+00:00 25 MB 
[TXT]Upco Science Answer Key2011-11-16T09:34:00+00:00 25 MB 
[TXT]Unix Objective Type Questions And Answers2011-11-17T06:53:00+00:00 23 MB 
[TXT]Unicru Answers For Walmart2011-11-18T04:12:00+00:00 24 MB 
[TXT]Unit 3 2a Answer2011-11-19T01:31:00+00:00 19 MB 
[TXT]Us History Reteaching Activity 25 Answer Key2011-11-19T22:50:00+00:00 20 MB 
[TXT]University Physics 13th Edition Answer Key2011-11-20T20:09:00+00:00 21 MB 
[TXT]Uniden Telephone Answering Machine Instructions2011-11-21T17:28:00+00:00 17 MB 
[TXT]Use The Following To Answer Questions 12011-11-22T14:47:00+00:00 21 MB 
[TXT]Unit 4 Resources Rebels And Dreamers Answers2011-11-23T12:06:00+00:00 17 MB 
[TXT]Uniform Circular Motion Lab Answers2011-11-24T09:25:00+00:00 21 MB 
[TXT]Unanswerable Questions Philosophy2011-11-25T06:44:00+00:00 22 MB 
[TXT]Upstream Express Publishing Advanced C1 Answers2011-11-26T04:03:00+00:00 24 MB 
[TXT]Unit 5 Quadratic Functions Springboard Answers2011-11-27T01:22:00+00:00 21 MB 
[TXT]Us Government Lesson 16 Handout 26 Answers2011-11-27T22:41:00+00:00 19 MB 
[TXT]Umich Orgo Coursepack Answers2011-11-28T20:00:00+00:00 21 MB 
[TXT]Unit 4 Vocabulary Review Answers2011-11-29T17:19:00+00:00 25 MB 
[TXT]Unanswered Questions In Quantum Mechanics2011-11-30T14:38:00+00:00 22 MB 
[TXT]Uptet Answer Key 2013 Download2011-12-01T11:57:00+00:00 21 MB 
[TXT]Unit Test Answers Health2011-12-02T09:16:00+00:00 24 MB 
[TXT]Unit 6 Review Answers Blue Pelican Math2011-12-03T06:35:00+00:00 22 MB 
[TXT]Unit 5 Literary Analysis The Ramayana Answer2011-12-04T03:54:00+00:00 23 MB 
[TXT]Us History Jarrett Answer2011-12-05T01:13:00+00:00 20 MB 
[TXT]Uniden Cordless Phone Answering Machine2011-12-05T22:32:00+00:00 17 MB 
[TXT]Unit 2 Macroeconomics Lesson Activity 11 Answer Key2011-12-06T19:51:00+00:00 25 MB 
[TXT]Unit 11 Trigonometry Class Work Answers2011-12-07T17:10:00+00:00 24 MB 
[TXT]Unit 2 3 Pvt Problems Answer Key2011-12-08T14:29:00+00:00 20 MB 
[TXT]Us Farm Lease Questions And Answers2011-12-09T11:48:00+00:00 21 MB 
[TXT]Unit 219 Store And Retrieve Information Answers2011-12-10T09:07:00+00:00 21 MB 
[TXT]United States Government Textbook Answers2011-12-11T06:26:00+00:00 24 MB 
[TXT]Unit 1 Review Answers2011-12-12T03:45:00+00:00 18 MB 
[TXT]Understandable Statistics 9th Edition Answers2011-12-13T01:04:00+00:00 20 MB 
[TXT]Unit Seven Evolution Of Living Things Answers2011-12-13T22:23:00+00:00 23 MB 
[TXT]United States Government And Politics Section 2 Answers2011-12-14T19:42:00+00:00 25 MB 
[TXT]Using Science Skills Interpreting Diagrams Answer Key2011-12-15T17:01:00+00:00 19 MB 
[TXT]Una Ves Mas Ap Spanish Answer Key2011-12-16T14:20:00+00:00 17 MB 
[TXT]Usa Studies Weekly Answers2011-12-17T11:39:00+00:00 20 MB 
[TXT]Uniden Answering Machine Troubleshooting2011-12-18T08:58:00+00:00 24 MB 
[TXT]University Of Subway Answers2011-12-19T06:17:00+00:00 17 MB 
[TXT]Usa Citizenship Test Questions And Answers2011-12-20T03:36:00+00:00 24 MB 
[TXT]Unit 14 Acids And Bases Answers2011-12-21T00:55:00+00:00 25 MB 
[TXT]Unix Questions And Answers2011-12-21T22:14:00+00:00 22 MB 
[TXT]Us Government Democracy In Action Answers2011-12-22T19:33:00+00:00 21 MB 
[TXT]Unit 4 Test Answer Key Macroeconomics2011-12-23T16:52:00+00:00 23 MB 
[TXT]Unit 3 7th Grade Springboard Answers2011-12-24T14:11:00+00:00 18 MB 
[TXT]Upco Chemistry Chap 4 Answers2011-12-25T11:30:00+00:00 23 MB 
[TXT]Upco Intermediate Level Science Answer Key2011-12-26T08:49:00+00:00 19 MB 
[TXT]Unit 303 Business Administration Answers2011-12-27T06:08:00+00:00 17 MB 
[TXT]United States Government Answer Key2011-12-28T03:27:00+00:00 19 MB 
[TXT]Unisa Finacial Accounting Question Papers And Answers2011-12-29T00:46:00+00:00 23 MB 
[TXT]Usps Questions And Answers2011-12-29T22:05:00+00:00 25 MB 
[TXT]Unit 4 Executive Branch Answers2011-12-30T19:24:00+00:00 25 MB 
[TXT]Usa Studies Weekly Week 20 Answer Key2011-12-31T16:43:00+00:00 21 MB 
[TXT]Urinary System Answers Anatomy And Physiology Coloring Bing2012-01-01T14:02:00+00:00 19 MB 
[TXT]Unit 1 Test Wellness Answer Key2012-01-02T11:21:00+00:00 17 MB 
[TXT]Unit 7 Trigonometric Functions Emathinstrucion Answers2012-01-03T08:40:00+00:00 20 MB 
[TXT]United States History And Government Answer Key 20102012-01-04T05:59:00+00:00 17 MB 
[TXT]Us History Lesson 17 Handout Answers2012-01-05T03:18:00+00:00 21 MB 
[TXT]Unit 6 3 Ionic Compounds Answers2012-01-06T00:37:00+00:00 25 MB 
[TXT]Unit 6 Molecular Genetics Answer Key2012-01-06T21:56:00+00:00 22 MB 
[TXT]Usa Citizenship Test Questions And Answers 20122012-01-07T19:15:00+00:00 19 MB 
[TXT]Unit 6 Macroeconomics Lesson 4 Activity 54 Answer Key2012-01-08T16:34:00+00:00 17 MB 
[TXT]Us History Chapter 19 Study Guide Answers2012-01-09T13:53:00+00:00 17 MB 
[TXT]Umuc Biol 103 Exam Answers2012-01-10T11:12:00+00:00 17 MB 
[TXT]Unit 6 Emathinstruction Review Answers2012-01-11T08:31:00+00:00 25 MB 
[TXT]Unit 2 Progress Tests Answers2012-01-12T05:50:00+00:00 19 MB 
[TXT]Ugc Net Computer Science And Applications Answer Key2012-01-13T03:09:00+00:00 18 MB 
[TXT]Using Econometrics Studenmund Answers2012-01-14T00:28:00+00:00 19 MB 
[TXT]Uscis Citizenship Test Questions Answers2012-01-14T21:47:00+00:00 18 MB 
[TXT]Uk Matrix Test Answers2012-01-15T19:06:00+00:00 19 MB 
[TXT]University Physics 13th Edition Discussion Questions Answers2012-01-16T16:25:00+00:00 18 MB 
[TXT]Uneb Questions And Answers2012-01-17T13:44:00+00:00 17 MB 
[TXT]Unit 7 Stoichiometry 1 Mole Relationships Answers2012-01-18T11:03:00+00:00 24 MB 
[TXT]Uniden Answering Machine User Manual2012-01-19T08:22:00+00:00 22 MB 
[TXT]Using Graphing Skills Lab Answers2012-01-20T05:41:00+00:00 23 MB 
[TXT]Understanding The Scriptures Study Questions Answers2012-01-21T03:00:00+00:00 17 MB 
[TXT]Upco Physical Setting Earth Science Answers2012-01-22T00:19:00+00:00 20 MB 
[TXT]Unit 5 Waves Review Answers2012-01-22T21:38:00+00:00 25 MB 
[TXT]Unidad 5 Leccion 2 Irregular Verbs Answers2012-01-23T18:57:00+00:00 17 MB 
[TXT]Upsc Exam Question Papers With Answers2012-01-24T16:16:00+00:00 22 MB 
[TXT]Up Iti Entrance Exam Answer Key 20132012-01-25T13:35:00+00:00 23 MB 
[TXT]Usa Test Prep Us History Answers2012-01-26T10:54:00+00:00 17 MB 
[TXT]Unit 3 The Dynamic Crust Answers2012-01-27T08:13:00+00:00 22 MB 
[TXT]Unit Viii Worksheet 2 Answers2012-01-28T05:32:00+00:00 18 MB 
[TXT]Upcos Chemistry Answers2012-01-29T02:51:00+00:00 19 MB 
[TXT]Ucsmp Algebra Answer Key For Chapter 92012-01-30T00:10:00+00:00 22 MB 
[TXT]Ultimate Element Crossword Puzzle Answer Key2012-01-30T21:29:00+00:00 22 MB 
[TXT]Upco Answers For Earth Science2012-01-31T18:48:00+00:00 20 MB 
[TXT]Ugc Net Questions Answers2012-02-01T16:07:00+00:00 17 MB 
[TXT]Unit 5 Activity Us History Answer Key2012-02-02T13:26:00+00:00 21 MB 
[TXT]Unit 14 Vocab Answers Level C2012-02-03T10:45:00+00:00 25 MB 
[TXT]Uniden Answering Machine Remote Access Instructions2012-02-04T08:04:00+00:00 20 MB 
[TXT]Us History Chapter 9 Test Answer Key2012-02-05T05:23:00+00:00 21 MB 
[TXT]Unit 5 Interim Assessment Answers2012-02-06T02:42:00+00:00 25 MB 
[TXT]Us History Lesson 24 Handout Answers2012-02-07T00:01:00+00:00 21 MB 
[TXT]Unit 4 Microeconomics Test Answer Key2012-02-07T21:20:00+00:00 21 MB 
[TXT]Us History Practice Test 1 Booklet Answers2012-02-08T18:39:00+00:00 19 MB 
[TXT]Unidad 3 Etapa 1 Answers2012-02-09T15:58:00+00:00 22 MB 
[TXT]Unisa Aasm02g Past Exam Papers And Answers2012-02-10T13:17:00+00:00 23 MB 
[TXT]Upsc Answer Key 2013 Prelims2012-02-11T10:36:00+00:00 20 MB 
[TXT]Unit 9 Developmental Psychology Exam Answers2012-02-12T07:55:00+00:00 24 MB 
[TXT]Unit 3 Bonding Packet Answer Key2012-02-13T05:14:00+00:00 25 MB 
[TXT]Us History Guided Reading Chapter 26 Answers2012-02-14T02:33:00+00:00 20 MB 
[TXT]Unit Magic Square Night Answer2012-02-14T23:52:00+00:00 23 MB 
[TXT]Us History Guided Reading Answers Unit 4 Chapter 122012-02-15T21:11:00+00:00 21 MB 
[TXT]Unit Hsc 008 Answers2012-02-16T18:30:00+00:00 18 MB 
[TXT]Unicru Answers2012-02-17T15:49:00+00:00 23 MB 
[TXT]Unit 6 Electrical And Electronic Principles Answers2012-02-18T13:08:00+00:00 25 MB 
[TXT]Us Constitution Test With Answer2012-02-19T10:27:00+00:00 17 MB 
[TXT]Understandable Statistics 9th Edition Problem Answers2012-02-20T07:46:00+00:00 24 MB 
[TXT]Understanding Geologic Time Answers2012-02-21T05:05:00+00:00 21 MB 
[TXT]Unit 3 Review Answers Pdf Tg1032012-02-22T02:24:00+00:00 24 MB 
[TXT]U Substitution Classwork Stu Schwartz Answers2012-02-22T23:43:00+00:00 24 MB 
[TXT]Uniden Dect 60 Answering Machine Instructions2012-02-23T21:02:00+00:00 17 MB 
[TXT]Unit 2 Test The Legislative Branch Answers2012-02-24T18:21:00+00:00 25 MB 
[TXT]Unit Test 1 Pygmalion Answers2012-02-25T15:40:00+00:00 17 MB 
[TXT]Unit 2 Resources Short Stories Answers 1972012-02-26T12:59:00+00:00 23 MB 
[TXT]Unit 2 Microeconomics Multiple Choice Answers2012-02-27T10:18:00+00:00 21 MB 
[TXT]Unf Math Placement Test Answers2012-02-28T07:37:00+00:00 21 MB 
[TXT]Us History Guided Reading U S Involvement And Escalation Answers2012-02-29T04:56:00+00:00 23 MB 
[TXT]Unisa Past Exam Papers With Answers C2012-03-01T02:15:00+00:00 17 MB 
[TXT]Uneb Sub Ict Questions And Answers2012-03-01T23:34:00+00:00 20 MB 
[TXT]Useless Trivia Questions Answers2012-03-02T20:53:00+00:00 18 MB 
[TXT]Unit 2 Vocabulary Answers2012-03-03T18:12:00+00:00 21 MB 
[TXT]Upsc Answer Key 20142012-03-04T15:31:00+00:00 20 MB 
[TXT]Upsc 2011 Prelims Question Paper With Answers2012-03-05T12:50:00+00:00 22 MB 
[TXT]United States History Government Regents January 2013 Answers2012-03-06T10:09:00+00:00 17 MB 
[TXT]Unidad 5 Leccion 1 Vocabulario Answer Key2012-03-07T07:28:00+00:00 23 MB 
[TXT]Urinary System Word Search Answer Key2012-03-08T04:47:00+00:00 18 MB 
[TXT]Usssa Umpire Test Answers2012-03-09T02:06:00+00:00 24 MB 
[TXT]Uniden Digital Answering System Instruction Manual2012-03-09T23:25:00+00:00 17 MB 
[TXT]Unattend Answer File Windows 7 Example2012-03-10T20:44:00+00:00 17 MB 
[TXT]Upfront Magazine Question Answers2012-03-11T18:03:00+00:00 23 MB 
[TXT]Usa Test Prep Answer Key Biology2012-03-12T15:22:00+00:00 21 MB 
[TXT]Understanding And Using English Grammar Fourth Edition Answer Key2012-03-13T12:41:00+00:00 23 MB 
[TXT]Uneb Economics Question Paper 2013 And Answers2012-03-14T10:00:00+00:00 19 MB 
[TXT]Urinary System Test Questions Answers2012-03-15T07:19:00+00:00 22 MB 
[TXT]Usa Test Prep Answer Key American History2012-03-16T04:38:00+00:00 21 MB 
[TXT]Using Econometrics Studenmund Answers Edition 62012-03-17T01:57:00+00:00 18 MB 
[TXT]Usa Test Prep Answers Analytic Geometry2012-03-17T23:16:00+00:00 23 MB 
[TXT]Us Bank Certification Answers2012-03-18T20:35:00+00:00 19 MB 
[TXT]Uop Math 220 Answers2012-03-19T17:54:00+00:00 22 MB 
[TXT]Unique Global Imports Manual Simulation Answers2012-03-20T15:13:00+00:00 21 MB 
[TXT]Universal Gravitation Circular And Satellite Motion Answers2012-03-21T12:32:00+00:00 17 MB 
[TXT]Ucla Math Diagnostic Test Answers2012-03-22T09:51:00+00:00 23 MB 
[TXT]Ui Developer Interview Question Answers2012-03-23T07:10:00+00:00 21 MB 
[TXT]Uniden Dect 60 Answering System Manual2012-03-24T04:29:00+00:00 18 MB 
[TXT]Unit 209 Taking Minutes Answers2012-03-25T01:48:00+00:00 20 MB 
[TXT]Usa Test Prep Answer Key English2012-03-25T23:07:00+00:00 17 MB 
[TXT]Unit 7 Government Test Answer Key2012-03-26T20:26:00+00:00 23 MB 
[TXT]Uscis 100 Questions Answers 20132012-03-27T17:45:00+00:00 18 MB 
[TXT]Us History Sem 1 Apex Test Answers2012-03-28T15:04:00+00:00 17 MB 
[TXT]Us History Pre Post Test Answers2012-03-29T12:23:00+00:00 17 MB 
[TXT]Unit 8 Vocab Answers2012-03-30T09:42:00+00:00 19 MB 
[TXT]Understanding Electron Configuration Lab Answers2012-03-31T07:01:00+00:00 21 MB 
[TXT]Urinary System Answers Key2012-04-01T04:20:00+00:00 21 MB 
[TXT]Uot Dealer Answers2012-04-02T01:39:00+00:00 25 MB 
[TXT]Usmc Mci Answers Download2012-04-02T22:58:00+00:00 22 MB 
[TXT]Unit 8 Lesson 1 Finding Asymptotes Answers2012-04-03T20:17:00+00:00 18 MB 
[TXT]Urinary System Wordsearch Answers Biology Corner2012-04-04T17:36:00+00:00 17 MB 
[TXT]Unanswerable Questions About God2012-04-05T14:55:00+00:00 20 MB 
[TXT]Unit 6 Ap Microeconomics Problem Set Answers2012-04-06T12:14:00+00:00 19 MB 
[TXT]Unit 4 Vocab Answers Affinity2012-04-07T09:33:00+00:00 18 MB 
[TXT]Understing Business 10th Edition Answer Key2012-04-08T06:52:00+00:00 17 MB 
[TXT]Usa Studies Weekly Week 11 Answers2012-04-09T04:11:00+00:00 23 MB 
[TXT]Us Immigration Questions And Answers2012-04-10T01:30:00+00:00 25 MB 
[TXT]Upsc Scra Answer Key2012-04-10T22:49:00+00:00 19 MB 
[TXT]Unisa Past Exam Papers With Answers Pfin0152012-04-11T20:08:00+00:00 20 MB 
[TXT]Unit 12 Waves And Sound Key Answers2012-04-12T17:27:00+00:00 20 MB 
[TXT]Unit Vii Worksheet 4 Answers2012-04-13T14:46:00+00:00 21 MB 
[TXT]Uncle Toms Cabin Unabridged Accelerated Reader Answers2012-04-14T12:05:00+00:00 17 MB 
[TXT]Ucs Economics Final Study Guide With Answers2012-04-15T09:24:00+00:00 23 MB 
[TXT]Urinary System Mastery Test Answers2012-04-16T06:43:00+00:00 18 MB 
[TXT]Unit 6 Geography Challenge Answers2012-04-17T04:02:00+00:00 22 MB 
[TXT]Upper Limb Exam Answer2012-04-18T01:21:00+00:00 24 MB 
[TXT]Unit V Worksheet 2 Answers2012-04-18T22:40:00+00:00 25 MB 
[TXT]Unit 6 Resource Mcdougal Litell Biology Answer2012-04-19T19:59:00+00:00 17 MB 
[TXT]Unit Ii Worksheet 4 Answers2012-04-20T17:18:00+00:00 17 MB 
[TXT]Unit Iii Worksheet 1 Answers2012-04-21T14:37:00+00:00 19 MB 
[TXT]United States History Amsco Answer Key 20102012-04-22T11:56:00+00:00 17 MB 
[TXT]Unit 2 Level F Answers2012-04-23T09:15:00+00:00 23 MB 
[TXT]Upsc Question Papers With Answers 20122012-04-24T06:34:00+00:00 21 MB 
[TXT]Us History Summer Instructional Packet Answers2012-04-25T03:53:00+00:00 18 MB 
[TXT]Uniden Answering Phone Manual2012-04-26T01:12:00+00:00 24 MB 
[TXT]Understanding Enzymes Worksheet Answers2012-04-26T22:31:00+00:00 24 MB 
[TXT]Using A Dichotomous Key Shark Analysis Answers2012-04-27T19:50:00+00:00 23 MB 
[TXT]Understanding Modern Economics Ch Homework Set Answers2012-04-28T17:09:00+00:00 19 MB 
[TXT]Unisa Past Exam Papers With Answers2012-04-29T14:28:00+00:00 23 MB 
[TXT]Us Citizen Test Questions Answers Cd2012-04-30T11:47:00+00:00 19 MB 
[TXT]Unit 7 Ws3b Answers2012-05-01T09:06:00+00:00 21 MB 
[TXT]Unidad 4 Leccion 1 Answers Reteaching2012-05-02T06:25:00+00:00 24 MB 
[TXT]Upstream Intermediate B2 Students Answers2012-05-03T03:44:00+00:00 22 MB 
[TXT]Usa Studies Weekly Answer Key Week 262012-05-04T01:03:00+00:00 23 MB 
[TXT]Unit 8 Earth And Beyond Answers2012-05-04T22:22:00+00:00 25 MB 
[TXT]Upstream Elementary A2 Workbook Answer2012-05-05T19:41:00+00:00 23 MB 
[TXT]Understing Your Paycheck Worksheet Answers2012-05-06T17:00:00+00:00 21 MB 
[TXT]Unit 5 Resources Progress And Decline Answer Key2012-05-07T14:19:00+00:00 25 MB 
[TXT]Unsw Icas Answers2012-05-08T11:38:00+00:00 17 MB 
[TXT]Unit 2 Checkpoint Answer Summit 12012-05-09T08:57:00+00:00 24 MB 
[TXT]Unit C Concepts Review Answers2012-05-10T06:16:00+00:00 19 MB 
[TXT]Upco Biology Answers2012-05-11T03:35:00+00:00 21 MB 
[TXT]Us History Guided Reading Activity 26 2 Answers2012-05-12T00:54:00+00:00 25 MB 
[TXT]Unit 2 Resources Short Stories Answer Key2012-05-12T22:13:00+00:00 17 MB 
[TXT]University Of Toyota Answers2012-05-13T19:32:00+00:00 22 MB 
[TXT]Unidad 3 Leccion 2 Gramatica A Answers2012-05-14T16:51:00+00:00 22 MB 
[TXT]Usa Studies Weekly Week 8 Answers Corssoword2012-05-15T14:10:00+00:00 24 MB 
[TXT]Unique Global Imports Journal Answers2012-05-16T11:29:00+00:00 21 MB 
[TXT]Understanding Using English Grammar Azar Answer Key2012-05-17T08:48:00+00:00 23 MB 
[TXT]Ultra Leather Products Worksheet Answers2012-05-18T06:07:00+00:00 24 MB 
[TXT]Unit V Worksheet 1 Answers2012-05-19T03:26:00+00:00 24 MB 
[TXT]Us History Eoc Practice Test Answers2012-05-20T00:45:00+00:00 24 MB 
[TXT]Unidad 4 Leccion 2 Answers2012-05-20T22:04:00+00:00 21 MB 
[TXT]Us History Guided Reading Answers Chapter 252012-05-21T19:23:00+00:00 20 MB 
[TXT]Unit 1 Worksheet 2 Significant Figures Answers2012-05-22T16:42:00+00:00 25 MB 
[TXT]Unit 8 Level E Vocab Answers2012-05-23T14:01:00+00:00 19 MB 
[TXT]Unstoppable Solar Cycles Discussion Questions Answers2012-05-24T11:20:00+00:00 18 MB 
[TXT]Upcpmt Question Paper With Answer Key2012-05-25T08:39:00+00:00 22 MB 
[TXT]Understanding Theme With Fables Review Answers2012-05-26T05:58:00+00:00 22 MB 
[TXT]Us History Answer Key2012-05-27T03:17:00+00:00 24 MB 
[TXT]Unite 3 Reading And Culture Activities Answers2012-05-28T00:36:00+00:00 24 MB 
[TXT]Unit 5 Muscular System Answers2012-05-28T21:55:00+00:00 17 MB 
[TXT]University Of Subway Test Answers2012-05-29T19:14:00+00:00 22 MB 
[TXT]Us Citizenship Test Questions And Answers2012-05-30T16:33:00+00:00 21 MB 
[TXT]Unit 2 American Literature Test Answers2012-05-31T13:52:00+00:00 24 MB 
[TXT]University Physics With Modern Answers2012-06-01T11:11:00+00:00 22 MB 
[TXT]Usa Test Prep Crossword Answers2012-06-02T08:30:00+00:00 18 MB 
[TXT]Urdu Quiz Questions And Answers2012-06-03T05:49:00+00:00 19 MB 
[TXT]Us Visa Questions And Answers2012-06-04T03:08:00+00:00 21 MB 
[TXT]Usa Test Prep Benchmark Answers Geometery2012-06-05T00:27:00+00:00 18 MB 
[TXT]Uniden Answering Machine2012-06-05T21:46:00+00:00 18 MB 
[TXT]Us Citizen Test Questions And Answers 20132012-06-06T19:05:00+00:00 24 MB 
[TXT]Understanding Operating Systems 6th Edition Exercise Answers2012-06-07T16:24:00+00:00 22 MB 
[TXT]Unit 8 Battle Of Brooklyn Answers2012-06-08T13:43:00+00:00 17 MB 
[TXT]United States Constitution Scavenger Hunt Answer Key2012-06-09T11:02:00+00:00 24 MB 
[TXT]Unidad 2 Unit Comprehensive Test Answers2012-06-10T08:21:00+00:00 19 MB 
[TXT]Using Mis 4th Edition Answers2012-06-11T05:40:00+00:00 23 MB 
[TXT]Unit 2 Careers In Health Care Answers2012-06-12T02:59:00+00:00 23 MB 
[TXT]Unit 10 Review Answers Blue Pelican Math2012-06-13T00:18:00+00:00 24 MB 
[TXT]Understanding Operating Systems 6th Edition Chapter 2 Answers2012-06-13T21:37:00+00:00 20 MB 
[TXT]Urdu Mcqs Answer2012-06-14T18:56:00+00:00 22 MB 
[TXT]Usc Math Placement Test Answers2012-06-15T16:15:00+00:00 22 MB 
[TXT]Uniden Phones Answering Machine2012-06-16T13:34:00+00:00 18 MB 
[TXT]Understanding Populations Review Answer Key Modern Biology2012-06-17T10:53:00+00:00 18 MB 
[TXT]Unicru Answer Key 20132012-06-18T08:12:00+00:00 25 MB 
[TXT]Unit 7 Chapter 25 Guided Reading Us History Answers2012-06-19T05:31:00+00:00 17 MB 
[TXT]Unit 3 Right Triangle Trigonometry Answers2012-06-20T02:50:00+00:00 21 MB 
[TXT]Us History Unit 5 Review Answers2012-06-21T00:09:00+00:00 18 MB 
[TXT]Ultrasound Physics Questions And Answers2012-06-21T21:28:00+00:00 23 MB 
[TXT]Understanding Health Insurance Fourth Edition Workbook Answers2012-06-22T18:47:00+00:00 17 MB 
[TXT]Unit 10 Rationl Expressions Answer Key2012-06-23T16:06:00+00:00 25 MB 
[TXT]Usa Studies Weekly Answer Key Week 232012-06-24T13:25:00+00:00 21 MB 
[TXT]Unit 5 Heredity And Evolution Answer2012-06-25T10:44:00+00:00 18 MB 
[TXT]Upco Intermediate Level Science Answers Grade 82012-06-26T08:03:00+00:00 22 MB 
[TXT]Uniden Dect Answering Machine Manual2012-06-27T05:22:00+00:00 25 MB 
[TXT]Unit 3 Interim Assessment Answer Key2012-06-28T02:41:00+00:00 25 MB 
[TXT]Ugc Net Commerce Answer Key June 2013 Paper 32012-06-29T00:00:00+00:00 18 MB 
[TXT]Unit 3 Genetics Review Sheet Answers2012-06-29T21:19:00+00:00 18 MB 
[TXT]Unit 6 Lesson 19 French Workbook Answers2012-06-30T18:38:00+00:00 18 MB 
[TXT]Using Index Fossils Lab Answers2012-07-01T15:57:00+00:00 23 MB 
[TXT]Unicru Personality Test Answers2012-07-02T13:16:00+00:00 19 MB 
[TXT]Unit 6 Geography Challenge Skills Answer Key2012-07-03T10:35:00+00:00 20 MB 
[TXT]Ugc Net Answer Key 30 June 20132012-07-04T07:54:00+00:00 21 MB 
[TXT]Unite 3 Lecon 10 Workbook Answers2012-07-05T05:13:00+00:00 25 MB 
[TXT]Unite 7 Lecon 23 French Workbook Answers2012-07-06T02:32:00+00:00 20 MB 
[TXT]Us Constitution Test Answer Key2012-07-06T23:51:00+00:00 20 MB 
[TXT]Usa Test Prep Answer Key Pythagorean Theorem2012-07-07T21:10:00+00:00 18 MB 
[TXT]Understanding The Principles And Practices Assessment Answers2012-07-08T18:29:00+00:00 17 MB 
[TXT]Uniden Dect 60 Answering System2012-07-09T15:48:00+00:00 17 MB 
[TXT]Unix Programming Lab Viva Questions And Answers2012-07-10T13:07:00+00:00 25 MB 
[TXT]Usa Test Prep Biology Answer2012-07-11T10:26:00+00:00 21 MB 
[TXT]Understanding Business 8th Edition Quiz Answers2012-07-12T07:45:00+00:00 23 MB 
[TXT]Us History Cold War Test Answers2012-07-13T05:04:00+00:00 22 MB 
[TXT]Usasf Credential Test Answers2012-07-14T02:23:00+00:00 22 MB 
[TXT]Understing Pharmacology Chapter 4 Answer Study Guide2012-07-14T23:42:00+00:00 24 MB 
[TXT]Unit 1 Review Guide Answers2012-07-15T21:01:00+00:00 22 MB 
[TXT]Unidad 3 Leccion 1 Vocabulario C Answers2012-07-16T18:20:00+00:00 23 MB 
[TXT]Using The Star Model To Answer Behavioural Interview Questions2012-07-17T15:39:00+00:00 19 MB 
[TXT]Us English Basic Skills Test Odesk Answers2012-07-18T12:58:00+00:00 23 MB 
[TXT]Ugc Net Questions Answers 20122012-07-19T10:17:00+00:00 20 MB 
[TXT]Usa Test Prep Answer Key Safemoxoju2012-07-20T07:36:00+00:00 20 MB 
[TXT]Unit 5 Embedded Assessment 1 Springboard Answers2012-07-21T04:55:00+00:00 23 MB 
[TXT]Unit 7 Exponent Rules Worksheet 2 Answer Key2012-07-22T02:14:00+00:00 25 MB 
[TXT]Unit 3 Quiz L1 L3 Kuta Software Llc Answers2012-07-22T23:33:00+00:00 22 MB 
[TXT]Unanswerable Questions About Life2012-07-23T20:52:00+00:00 19 MB 
[TXT]Using Mis Kroenke Case Study 8 Answer2012-07-24T18:11:00+00:00 25 MB 
[TXT]Upsc Prelim 2012 Answer Key2012-07-25T15:30:00+00:00 21 MB 
[TXT]Upstream Intermediate B2 Answers2012-07-26T12:49:00+00:00 21 MB 
[TXT]Understanding Operating Systems 6th Edition Exercises Answers2012-07-27T10:08:00+00:00 17 MB 
[TXT]Unit 3 Resource Mcdougal Litell Biology Answers2012-07-28T07:27:00+00:00 23 MB 
[TXT]Us History Regents Answers August 20092012-07-29T04:46:00+00:00 18 MB 
[TXT]Unit Vii Ws 5 Answers2012-07-30T02:05:00+00:00 19 MB 
[TXT]Unit 10 Answer Key For Flocabulary2012-07-30T23:24:00+00:00 17 MB 
[TXT]Unidad 5 Leccion 2 Reteaching And Practice Answers2012-07-31T20:43:00+00:00 23 MB 
[TXT]Understanding Business And Personal Law Workbook Answers2012-08-01T18:02:00+00:00 18 MB 
[TXT]Unidad 6 Etapa 1 Mas Practica Answers2012-08-02T15:21:00+00:00 21 MB 
[TXT]Unit 9 Stoichiometry Crossword Chapter Packet Answers2012-08-03T12:40:00+00:00 17 MB 
[TXT]Ugc Net Answer Key 2013 30 June2012-08-04T09:59:00+00:00 20 MB 
[TXT]Unit 3 4 Quantitative Energy Problems Answers2012-08-05T07:18:00+00:00 22 MB 
[TXT]Universal Gravitation Phet Lab Answers2012-08-06T04:37:00+00:00 18 MB 
[TXT]Unit 6 Chemistry Test Answers2012-08-07T01:56:00+00:00 19 MB 
[TXT]Uniden 60 Digital Answering System2012-08-07T23:15:00+00:00 17 MB 
[TXT]Understanding Health Insurance Text Book Answer Keys2012-08-08T20:34:00+00:00 24 MB 
[TXT]Unit 5 Counting Particles Objectives Answers2012-08-09T17:53:00+00:00 25 MB 
[TXT]Urinary System Answer Key2012-08-10T15:12:00+00:00 23 MB 
[TXT]Us History Exam 2013 Answer Key2012-08-11T12:31:00+00:00 23 MB 
[TXT]Uniden Tru8885 Digital Answering Machine Greeting2012-08-12T09:50:00+00:00 21 MB 
[TXT]Unisa Eda3046 Question And Answers2012-08-13T07:09:00+00:00 21 MB 
[TXT]Unit 6 Ws3 V3 Modeling Workshop Answers2012-08-14T04:28:00+00:00 17 MB 
[TXT]Us History Chapter 18 Section 3 Answer Key2012-08-15T01:47:00+00:00 19 MB 
[TXT]Uniden Answering Machine Dect 60 Manual2012-08-15T23:06:00+00:00 24 MB 
[TXT]Uniden Powermax 58 Ghz Answering Machine Manual2012-08-16T20:25:00+00:00 20 MB 
[TXT]Us History Second Semester Exam Review Answer2012-08-17T17:44:00+00:00 25 MB 
[TXT]Unit 5 Resources Drama Answers Pearson Education2012-08-18T15:03:00+00:00 24 MB 
[TXT]Ust Designated Operator Test Questions And Answers2012-08-19T12:22:00+00:00 25 MB 
[TXT]Unit 4222 245 Answers2012-08-20T09:41:00+00:00 19 MB 
[TXT]Upco S Physical Setting Chemistry Answer Key2012-08-21T07:00:00+00:00 23 MB 
[TXT]Us History Trivia And Answers2012-08-22T04:19:00+00:00 21 MB 
[TXT]Unit 15 Electrical Curcuits Answers2012-08-23T01:38:00+00:00 24 MB 
[TXT]Usmc Mci Answers2012-08-23T22:57:00+00:00 23 MB 
[TXT]Unit 6 Vocabulary Workshop Answers2012-08-24T20:16:00+00:00 19 MB 
[TXT]Usnscc Seaman Course Answers2012-08-25T17:35:00+00:00 25 MB 
[TXT]Upco Living Environment Answer Key Biology2012-08-26T14:54:00+00:00 17 MB 
[TXT]Unit Conversions Gizmo Answer Key2012-08-27T12:13:00+00:00 20 MB 
[TXT]Unit 1 Uniform Motion Answers2012-08-28T09:32:00+00:00 23 MB 
[TXT]University Of Indiana Plagiarism Test Answers2012-08-29T06:51:00+00:00 18 MB 
[TXT]Understanding Modern Economics Roger Leroy Answers2012-08-30T04:10:00+00:00 24 MB 
[TXT]Unit V Ws4 V30 Answers2012-08-31T01:29:00+00:00 23 MB 
[TXT]Upco Earth Science Review 2013 Answers2012-08-31T22:48:00+00:00 22 MB 
[TXT]Ut Homework Answers2012-09-01T20:07:00+00:00 21 MB 
[TXT]Unit 5 Polynomial Assessment Answer Key2012-09-02T17:26:00+00:00 25 MB 
[TXT]Unit 8 Battle Of Brooklyn Answer Key2012-09-03T14:45:00+00:00 24 MB 
[TXT]Unit 9 Study Guide Chemistry Answers2012-09-04T12:04:00+00:00 22 MB 
[TXT]Usmle Step3 Nbme Form 3 Answers Bing Downloads2012-09-05T09:23:00+00:00 23 MB 
[TXT]Understanding Construction Drawings Answers2012-09-06T06:42:00+00:00 24 MB 
[TXT]Us History Guided Reading Answer Key 19 12012-09-07T04:01:00+00:00 20 MB 
[TXT]Unit 7 Ecology Quiz Questions And Answers2012-09-08T01:20:00+00:00 21 MB 
[TXT]United States History Chapter Tests And Answers2012-09-08T22:39:00+00:00 19 MB 
[TXT]Ugc Net June 2013 English Literature Answer Key2012-09-09T19:58:00+00:00 24 MB 
[TXT]Upco Review Book Answers2012-09-10T17:17:00+00:00 21 MB 
[TXT]Unidad 2 Etapa Exam Answers2012-09-11T14:36:00+00:00 22 MB 
[TXT]Unisa Eth305v Past Exam Papers Answer2012-09-12T11:55:00+00:00 23 MB 
[TXT]Unit 16 Nuclear Chemistry Answers2012-09-13T09:14:00+00:00 25 MB 
[TXT]Unit 3 Study Guide Answers2012-09-14T06:33:00+00:00 21 MB 
[TXT]Us Constitution Scavenger Hunt Answers2012-09-15T03:52:00+00:00 21 MB 
[TXT]United States History Government Answer Key 20102012-09-16T01:11:00+00:00 25 MB 
[TXT]Ugc Net Answer Key December 20132012-09-16T22:30:00+00:00 24 MB 
[TXT]Using Punnett Squares Practice Skills Cats Answers2012-09-17T19:49:00+00:00 19 MB 
[TXT]Unit 4 Describing Data Answers2012-09-18T17:08:00+00:00 20 MB 
[TXT]Us History Finals Answers2012-09-19T14:27:00+00:00 22 MB 
[TXT]Unidad 5 Etapa 1 Exam Answers2012-09-20T11:46:00+00:00 25 MB 
[TXT]Unit 306 Business Administration Answers2012-09-21T09:05:00+00:00 23 MB 
[TXT]Unit 1 Pretest Answers For Us History2012-09-22T06:24:00+00:00 22 MB 
[TXT]Unidad 1 Etapa 3 Activities Answers2012-09-23T03:43:00+00:00 25 MB 
[TXT]Upper Intermediate Test Booklet Key Answer2012-09-24T01:02:00+00:00 17 MB 
[TXT]Understanding Main Ideas Part A Answer Key2012-09-24T22:21:00+00:00 19 MB 
[TXT]Unit 9 Agriscience Fundamentals And Applications Answers2012-09-25T19:40:00+00:00 18 MB 
[TXT]Upco Living Environment Biology Answers2012-09-26T16:59:00+00:00 24 MB 
[TXT]Usatestprep Answer Key Geometry Benchmark2012-09-27T14:18:00+00:00 17 MB 
[TXT]Upco Physical Setting Answer Key2012-09-28T11:37:00+00:00 23 MB 
[TXT]Unscrambling The Periodic Table Answers2012-09-29T08:56:00+00:00 20 MB 
[TXT]Urinary System Wordsearch Answer Key2012-09-30T06:15:00+00:00 25 MB 
[TXT]Us Army Sharp Test Answers2012-10-01T03:34:00+00:00 22 MB 
[TXT]Us History Regents Answers August 20122012-10-02T00:53:00+00:00 25 MB 
[TXT]Unidad 1 Etapa 3 Answers2012-10-02T22:12:00+00:00 23 MB 
[TXT]Unit Rates Worksheet With Answers2012-10-03T19:31:00+00:00 20 MB 
[TXT]Unit Ix 1 Modeling Workshop Project Answers2012-10-04T16:50:00+00:00 19 MB 
[TXT]Unidad 3 Etapa 1 Activities Answers2012-10-05T14:09:00+00:00 18 MB 
[TXT]Unit 6 Assignment 1 Missing Information Answers2012-10-06T11:28:00+00:00 23 MB 
[TXT]Upco Physical Setting Chemistry Answer Key2012-10-07T08:47:00+00:00 17 MB 
[TXT]Uml Objective Type Questions And Answers2012-10-08T06:06:00+00:00 23 MB 
[TXT]Us Citizen Test Questions Answers In Spanish2012-10-09T03:25:00+00:00 19 MB 
[TXT]Unidad 6 Leccion 2 Answers2012-10-10T00:44:00+00:00 24 MB 
[TXT]Unit 10 Usage Glossary Answer Key2012-10-10T22:03:00+00:00 22 MB 
[TXT]Using Si Units Worksheet Answers2012-10-11T19:22:00+00:00 24 MB 
[TXT]Usatestprep Chemistry Acid And Base Crosswords Answers2012-10-12T16:41:00+00:00 19 MB 
[TXT]Unit Conversion Worksheet With Answer Key2012-10-13T14:00:00+00:00 22 MB 
[TXT]Using Punnett Squares Practicing Skills Answers2012-10-14T11:19:00+00:00 22 MB 
[TXT]Usps Exam 473 Answers2012-10-15T08:38:00+00:00 21 MB 
[TXT]Unite 5 Lecon 13 Workbook Answers2012-10-16T05:57:00+00:00 17 MB 
[TXT]Us History Eoct Answer Key2012-10-17T03:16:00+00:00 18 MB 
[TXT]Upco Chemistry Review Answer Key2012-10-18T00:35:00+00:00 21 MB 
[TXT]Ugc Net 2014 Answer Key2012-10-18T21:54:00+00:00 23 MB 
[TXT]Unit 1 Biochemistry Test Review Answers2012-10-19T19:13:00+00:00 24 MB 
[TXT]Unit Hsc 024 Answers2012-10-20T16:32:00+00:00 21 MB 
[TXT]Unit 5 Analytic Trigonometry Homework Answers2012-10-21T13:51:00+00:00 23 MB 
[TXT]Unit 9 Test Answers Physical Science2012-10-22T11:10:00+00:00 17 MB 
[TXT]Using Financial Accounting Information Answers2012-10-23T08:29:00+00:00 22 MB 
[TXT]Usatestprep World History Crosswords Answers2012-10-24T05:48:00+00:00 22 MB 
[TXT]Unit 2 Level D Answers2012-10-25T03:07:00+00:00 17 MB 
[TXT]Upstream Pre Intermediate B1 Work Answers2012-10-26T00:26:00+00:00 19 MB 
[TXT]Us History Trivia Questions And Answers2012-10-26T21:45:00+00:00 25 MB 
[TXT]Upstream Proficiency C2 Answers2012-10-27T19:04:00+00:00 17 MB 
[TXT]Upper Intermediate Work Answers2012-10-28T16:23:00+00:00 25 MB 
[TXT]Unseen Passages For Class 6 In English With Answers2012-10-29T13:42:00+00:00 25 MB 
[TXT]Unit 10 Vocab Answers2012-10-30T11:01:00+00:00 23 MB 
[TXT]Unit 3 Nvq Business Administration Answers2012-10-31T08:20:00+00:00 19 MB 
[TXT]Understanding Construction Drawings Answer Key2012-11-01T05:39:00+00:00 18 MB 
[TXT]Unit 17 Refrigeration Seventh Edition Answer Key2012-11-02T02:58:00+00:00 25 MB 
[TXT]Unit 3 Checkpoint Answer Summit 22012-11-03T00:17:00+00:00 17 MB 
[TXT]Union Pacific Hazmat Test Answers2012-11-03T21:36:00+00:00 19 MB 
[TXT]Unit Conversion And Word Problems Worksheet Answer Key2012-11-04T18:55:00+00:00 23 MB 
[TXT]Upco Earth Intermediate Level Science Answer Key2012-11-05T16:14:00+00:00 20 MB 
[TXT]Unit 2 Vocab Answers2012-11-06T13:33:00+00:00 17 MB 
[TXT]Unit 4 Section A Supplement Answers Chemistry2012-11-07T10:52:00+00:00 19 MB 
[TXT]Unit 8 Vocabulary Answers2012-11-08T08:11:00+00:00 18 MB 
[TXT]Using Similar Polygons Answers2012-11-09T05:30:00+00:00 20 MB 
[TXT]Upward Bound Summer 2011 Geometry 7 Answers2012-11-10T02:49:00+00:00 25 MB 
[TXT]Understanding Credit Report Note Taking Guide Answers2012-11-11T00:08:00+00:00 24 MB 
[TXT]Unit 8 Review World Geography Answers2012-11-11T21:27:00+00:00 25 MB 
[TXT]Unit 3 Electricity And Magnetism Answer Key2012-11-12T18:46:00+00:00 25 MB 
[TXT]Us Driver Training Answers2012-11-13T16:05:00+00:00 17 MB 
[TXT]Unit 6 Reteaching Activity 16 Key Answers2012-11-14T13:24:00+00:00 20 MB 
[TXT]Unit Conversion Problems And Answers2012-11-15T10:43:00+00:00 22 MB 
[TXT]Unit 3 Test Answers2012-11-16T08:02:00+00:00 24 MB 
[TXT]Ugc Net 2013 Answer Key Computer Science Paper 32012-11-17T05:21:00+00:00 24 MB 
[TXT]Unidad 5 Leccion 1 Vocabulario A Answers2012-11-18T02:40:00+00:00 20 MB 
[TXT]Unanswered Cries Book2012-11-18T23:59:00+00:00 24 MB 
[TXT]Understanding Shakespeare Sonnet 18 Answers2012-11-19T21:18:00+00:00 21 MB 
[TXT]Unit 2 Embedded Assessment 3 Springboard Answers2012-11-20T18:37:00+00:00 25 MB 
[TXT]Unit 1 Plato Post Test Answers2012-11-21T15:56:00+00:00 25 MB 
[TXT]Unanswered Prayer2012-11-22T13:15:00+00:00 23 MB 
[TXT]Ucsd Physics Lab Answers2012-11-23T10:34:00+00:00 25 MB 
[TXT]Urinary System Quiz With Answers2012-11-24T07:53:00+00:00 25 MB 
[TXT]Usasf Credential Test Answers Tumbling L42012-11-25T05:12:00+00:00 23 MB 
[TXT]Us History Guided Activity 8 3 Answers2012-11-26T02:31:00+00:00 25 MB 
[TXT]Upco Living Environment Review Biology Answer Key2012-11-26T23:50:00+00:00 23 MB 
[TXT]Unseen Passage For Class 5 With Answers2012-11-27T21:09:00+00:00 17 MB 
[TXT]Unanswered Cries Analysis2012-11-28T18:28:00+00:00 18 MB 
[TXT]Urology Questions And Answers2012-11-29T15:47:00+00:00 23 MB 
[TXT]Urinary System Study Guide Answer Key2012-11-30T13:06:00+00:00 17 MB 
[TXT]Usa Test Prep Chemistry Answer Key2012-12-01T10:25:00+00:00 20 MB 
[TXT]Unit 3 Microeconomics Lesson Activity 31 Answer Key2012-12-02T07:44:00+00:00 20 MB 
[TXT]Using Science Skills Classifying Chemical Reactions Answers2012-12-03T05:03:00+00:00 21 MB 
[TXT]Unit 4 Poetry Benchmark Test 7 Answers2012-12-04T02:22:00+00:00 21 MB 
[TXT]Usa Test Prep The Cell Answer Key2012-12-04T23:41:00+00:00 23 MB 
[TXT]Uniden Cordless Phone With Answering Machine2012-12-05T21:00:00+00:00 22 MB 
[TXT]Unit 217 Organise And Report Data Answers2012-12-06T18:19:00+00:00 25 MB 
[TXT]Understanding Shakespeare Sonnet 18 Foundation Lesson Answers2012-12-07T15:38:00+00:00 22 MB 
[TXT]Unidad 2 Etapa 1 Answers2012-12-08T12:57:00+00:00 21 MB 
[TXT]Unit 2 Vocabulary Answers Level E2012-12-09T10:16:00+00:00 24 MB 
[TXT]Us Government Democracy In Action Answer Key2012-12-10T07:35:00+00:00 21 MB 
[TXT]Ultimate Chemical Equations Handbook Answers Chapter 92012-12-11T04:54:00+00:00 21 MB 
[TXT]Us History Chapter 10 Guided Reading Answers2012-12-12T02:13:00+00:00 18 MB 
[TXT]Upstream Workbook B1 Answers2012-12-12T23:32:00+00:00 18 MB 
[TXT]Unix Basic Interview Questions And Answers2012-12-13T20:51:00+00:00 19 MB 
[TXT]Us History Benchmark Test 1 Answer Sheet2012-12-14T18:10:00+00:00 17 MB 
[TXT]Unit 5 Review Sheet For Physicsfundamental Answer2012-12-15T15:29:00+00:00 21 MB 
[TXT]Unit 6 Ws 3 Answers2012-12-16T12:48:00+00:00 18 MB 
[TXT]Unit 1 Answer Key Cell Biology And Genetics2012-12-17T10:07:00+00:00 21 MB 
[TXT]Us Questions And Answers2012-12-18T07:26:00+00:00 21 MB 
[TXT]Unicef Interview Questions Answers2012-12-19T04:45:00+00:00 17 MB 
[TXT]Unit 8 Ws 1 Mole Relationships Answers2012-12-20T02:04:00+00:00 19 MB 
[TXT]Unit 1 Basic Economics Concepts Answers2012-12-20T23:23:00+00:00 21 MB 
[TXT]Unit 7 Mole Relationships Answer Key2012-12-21T20:42:00+00:00 17 MB 
[TXT]Uae Psbd Question And Answer2012-12-22T18:01:00+00:00 25 MB 
[TXT]Units Of Length Christina Bryant Answer Key2012-12-23T15:20:00+00:00 20 MB 
[TXT]Unit 6 Genetics Test Answer Key2012-12-24T12:39:00+00:00 23 MB 
[TXT]Unit Standard 2787 1 Answers2012-12-25T09:58:00+00:00 17 MB 
[TXT]Unidad 4 Etapa 3 Exam Answers2012-12-26T07:17:00+00:00 21 MB 
[TXT]Usfk Training Answers2012-12-27T04:36:00+00:00 20 MB 
[TXT]Using Econometrics A Practical Guide Answer Key2012-12-28T01:55:00+00:00 17 MB 
[TXT]Us Involvement And Escalation Answers2012-12-28T23:14:00+00:00 25 MB 
[TXT]Us History June 2014 Answers2012-12-29T20:33:00+00:00 23 MB 
[TXT]United States Through Industrialism Work Answers2012-12-30T17:52:00+00:00 21 MB 
[TXT]Us History 2 Lesson Handout Answers2012-12-31T15:11:00+00:00 20 MB 
[TXT]Us Government Cp Answers Unit 22013-01-01T12:30:00+00:00 20 MB 
[TXT]Use It Dont Lose Answers2013-01-02T09:49:00+00:00 18 MB 
[TXT]Unit Magic Square Night Answer Key2013-01-03T07:08:00+00:00 19 MB 
[TXT]Unit 5 Macroeconomics Answer Key2013-01-04T04:27:00+00:00 25 MB 
[TXT]Unit 3 Vocab Answers2013-01-05T01:46:00+00:00 22 MB 
[TXT]Us History Eoct Summer 2014 Answer Key2013-01-05T23:05:00+00:00 18 MB 
[TXT]Us History Multiple Choice Answers 20132013-01-06T20:24:00+00:00 21 MB 
[TXT]Understanding Psychology Guided Activities Answers2013-01-07T17:43:00+00:00 17 MB 
[TXT]Using Solubility Curves Answer The Following Questions2013-01-08T15:02:00+00:00 20 MB 
[TXT]Up Gcor Study Guide Answers2013-01-09T12:21:00+00:00 22 MB 
[TXT]Us Citizenship Test Answers 20132013-01-10T09:40:00+00:00 20 MB 
[TXT]Utexas Quest Chemistry Answers2013-01-11T06:59:00+00:00 20 MB 
[TXT]Us History Shorts Answers2013-01-12T04:18:00+00:00 18 MB 
[TXT]Unit Five Reproduction And Development Answers2013-01-13T01:37:00+00:00 21 MB 
[TXT]Unit Circle Answer Key2013-01-13T22:56:00+00:00 25 MB 
[TXT]Ucsmp Geometry Answers2013-01-14T20:15:00+00:00 22 MB 
[TXT]United States History Mtt Answer Key2013-01-15T17:34:00+00:00 22 MB 
[TXT]Ultrasonic Interferometer Viva Question And Answer2013-01-16T14:53:00+00:00 19 MB 
[TXT]Us History Answer2013-01-17T12:12:00+00:00 18 MB 
[TXT]Upper Limb Anatomy Mcqs With Answers2013-01-18T09:31:00+00:00 22 MB 
[TXT]Us History Lesson 25 Handout Answers2013-01-19T06:50:00+00:00 19 MB 
[TXT]Unidad 8 Leccion 1 Leer A Answers2013-01-20T04:09:00+00:00 21 MB 
[TXT]Underground Railroad Escape From Slavery Answer Key2013-01-21T01:28:00+00:00 19 MB 
[TXT]Upsc Preliminary Exam 2013 Question Papers With Answers2013-01-21T22:47:00+00:00 19 MB 
[TXT]Understanding Health Insurance Review Answers2013-01-22T20:06:00+00:00 17 MB 
[TXT]Unite 7 Lecon 26 Discovering French Answers2013-01-23T17:25:00+00:00 23 MB 
[TXT]Unit 11 Urinary System Answers2013-01-24T14:44:00+00:00 20 MB 
[TXT]Universal Gravitation Answers2013-01-25T12:03:00+00:00 25 MB 
[TXT]Usa Test Prep Answers Biology2013-01-26T09:22:00+00:00 21 MB 
[TXT]Uniden Answering Machine Setup2013-01-27T06:41:00+00:00 25 MB 
[TXT]Utexas Quest Physics Answers2013-01-28T04:00:00+00:00 20 MB 
[TXT]Us History Unit 10 Test Answers2013-01-29T01:19:00+00:00 25 MB 
[TXT]Unit 4 Legal And Ethical Reaponsibilities Answers2013-01-29T22:38:00+00:00 17 MB 
[TXT]Unit Viii Worksheet 4 Answers2013-01-30T19:57:00+00:00 22 MB 
[TXT]Unit 1 The Driving Task Crossword Puzzle Answers2013-01-31T17:16:00+00:00 24 MB 
[TXT]Understanding Business And Personal Law Answers2013-02-01T14:35:00+00:00 23 MB 
[TXT]Us History Section 2 Quiz Answers2013-02-02T11:54:00+00:00 24 MB 
[TXT]Use The Grid To Answer Questions Free Printable Math2013-02-03T09:13:00+00:00 20 MB 
[TXT]Unit 4 Being A Responsible Driver Answers2013-02-04T06:32:00+00:00 24 MB 
[TXT]Understing Operating Systems Sixth Edition Answers2013-02-05T03:51:00+00:00 18 MB 
[TXT]Umpire Questions And Answers2013-02-06T01:10:00+00:00 17 MB 
[TXT]Uniden Answering Machine Set Up2013-02-06T22:29:00+00:00 19 MB 
[TXT]Unit Hsc 303 L3 Answers2013-02-07T19:48:00+00:00 22 MB 
[TXT]U S Involvement And Escalation Guided Reading Answers2013-02-08T17:07:00+00:00 18 MB 
[TXT]Unidad 5 Leccion 1 Answers 1972013-02-09T14:26:00+00:00 23 MB 
[TXT]Us History Eoct Answer Key 20142013-02-10T11:45:00+00:00 22 MB 
[TXT]Usa Studies Weekly Answer Key Week 82013-02-11T09:04:00+00:00 24 MB 
[TXT]Unidad 4 Leccion 1 Reteaching And Practice Answers2013-02-12T06:23:00+00:00 19 MB 
[TXT]Unit Vii 2 Answer2013-02-13T03:42:00+00:00 24 MB 
[TXT]Unwind Study Guide Answers2013-02-14T01:01:00+00:00 25 MB 
[TXT]Unsw Econ1102 Tutorial Answer2013-02-14T22:20:00+00:00 25 MB 
[TXT]Unit Iii Worksheet 2 Answers2013-02-15T19:39:00+00:00 17 MB 
[TXT]Using Econometrics Studenmund 6th Edition Answers2013-02-16T16:58:00+00:00 21 MB 
[TXT]Unit 8 Answers Key2013-02-17T14:17:00+00:00 19 MB 
[TXT]University Of Phoenix Math Answers2013-02-18T11:36:00+00:00 19 MB 
[TXT]Understanding Colligative Properties Answers2013-02-19T08:55:00+00:00 21 MB 
[TXT]Usa Studies Weekly 7 Answer Key2013-02-20T06:14:00+00:00 25 MB 
[TXT]Uneb 2013 Answers2013-02-21T03:33:00+00:00 23 MB 
[TXT]Unit 5 American Goverment Test A Answers2013-02-22T00:52:00+00:00 20 MB 
[TXT]Unit Test Continued Answer Key2013-02-22T22:11:00+00:00 20 MB 
[TXT]U8 Ws2 V3 0 Answers2013-02-23T19:30:00+00:00 22 MB 
[TXT]Uniden Answering Machine Cordless Phone2013-02-24T16:49:00+00:00 23 MB 
[TXT]Union Pacific Rules Test Answers 20132013-02-25T14:08:00+00:00 19 MB 
[TXT]Unit 2 Section C Supplement Answer Key2013-02-26T11:27:00+00:00 23 MB 
[TXT]Understanding Pathophysiology 5th Edition Study Guide Answers2013-02-27T08:46:00+00:00 20 MB 
[TXT]Unit Test 3 Answer Key2013-02-28T06:05:00+00:00 18 MB 
[TXT]Usa Studies Weekly Week 14 Answers2013-03-01T03:24:00+00:00 21 MB 
[TXT]Unit 7 Level D Answers2013-03-02T00:43:00+00:00 19 MB 
[TXT]Unit Hsc 307 Answers2013-03-02T22:02:00+00:00 22 MB 
[TXT]Unit 5 Ecology Review Sheet Answers2013-03-03T19:21:00+00:00 19 MB 
[TXT]Unit 14 Vocab Answers2013-03-04T16:40:00+00:00 20 MB 
[TXT]Unit 309 Business Administration Answers2013-03-05T13:59:00+00:00 22 MB 
[TXT]Umich 2013 Chem 210 Coursepack Answers2013-03-06T11:18:00+00:00 21 MB 
[TXT]Under Cover Workbook John Bevere Answers2013-03-07T08:37:00+00:00 17 MB 
[TXT]Usatestprep Benchmark Answers Math2013-03-08T05:56:00+00:00 24 MB 
[TXT]Uneb Past Papers Question And Answers App2013-03-09T03:15:00+00:00 19 MB 
[TXT]Unit 2 Starry Night College Answers2013-03-10T00:34:00+00:00 22 MB 
[TXT]Unit 2 Test Answers World Geography2013-03-10T21:53:00+00:00 22 MB 
[TXT]Use The Polynomial To Answer Question2013-03-11T19:12:00+00:00 22 MB 
[TXT]Upper Intermediate Workbook Answers Unit 82013-03-12T16:31:00+00:00 20 MB 
[TXT]Ucsmp Geometry Answers Online2013-03-13T13:50:00+00:00 22 MB 
[TXT]United States Democracy In Action Answer Key2013-03-14T11:09:00+00:00 21 MB 
[TXT]United States History Independence To 1914 Answers2013-03-15T08:28:00+00:00 21 MB 
[TXT]Unit 12 Level F Answers2013-03-16T05:47:00+00:00 17 MB 
[TXT]Understanding And Using English Grammar Answer Key2013-03-17T03:06:00+00:00 23 MB 
[TXT]Urinary System Wiki Answers2013-03-18T00:25:00+00:00 24 MB 
[TXT]Unit Iv Worksheet 3 Answers2013-03-18T21:44:00+00:00 21 MB 
[TXT]Unit Vii Worksheet 1 Spring Energy Answer2013-03-19T19:03:00+00:00 23 MB 
[TXT]United States History Chapter Answer Key2013-03-20T16:22:00+00:00 21 MB 
[TXT]Usa Studies Weekly Week 1 Answer Key2013-03-21T13:41:00+00:00 25 MB 
[TXT]Ugc Net Answer Keys2013-03-22T11:00:00+00:00 17 MB 
[TXT]University Of Arizona Answer Keys2013-03-23T08:19:00+00:00 18 MB 
[TXT]United States Government And Politics Section 1 Answers 19992013-03-24T05:38:00+00:00 23 MB 
[TXT]Usa Test Prep Articles Or Constitution Answers2013-03-25T02:57:00+00:00 20 MB 
[TXT]Us History Guided 17 1 Activity Answers2013-03-26T00:16:00+00:00 24 MB 
[TXT]Ufo Triangles Theirs Or Ours Answer Both2013-03-26T21:35:00+00:00 17 MB 
[TXT]Unidad 4 Leccion 1 Escuchar A Answer2013-03-27T18:54:00+00:00 22 MB 
[TXT]Upstream C1 Answers2013-03-28T16:13:00+00:00 19 MB 
[TXT]Unidad 4 Leccion 2 Gramatica B Answer2013-03-29T13:32:00+00:00 19 MB 
[TXT]Us History Puzzle Answers2013-03-30T10:51:00+00:00 18 MB 
[TXT]Unit 4 Macroeconomics Lesson Activity 38 Answer Key2013-03-31T08:10:00+00:00 22 MB 
[TXT]Upward Bound Summer 2011 Geometry 14 Answers2013-04-01T05:29:00+00:00 23 MB 
[TXT]Unidad 5 Leccion 1 Reteaching And Practice Answers2013-04-02T02:48:00+00:00 24 MB 
[TXT]Unite 5 Lecon 13 Writing Activities Answers2013-04-03T00:07:00+00:00 18 MB 
[TXT]Urinary Word Search System Answer Key2013-04-03T21:26:00+00:00 23 MB 
[TXT]Usa Test Prep Analytic Geometry Answer2013-04-04T18:45:00+00:00 22 MB 
[TXT]Unit 5 Vocabulary Answers2013-04-05T16:04:00+00:00 20 MB 
[TXT]Urban Economics Chapter Answer Key2013-04-06T13:23:00+00:00 20 MB 
[TXT]Unit 14 Spelling Rules Answers2013-04-07T10:42:00+00:00 18 MB 
[TXT]Unit 12 Answers Solubility2013-04-08T08:01:00+00:00 17 MB 
[TXT]Unit 3 Macroeconomics Multiple Choice Sample Questions Answers2013-04-09T05:20:00+00:00 24 MB 
[TXT]Unit 6 Embedded Assessment 1 Springboard Answers2013-04-10T02:39:00+00:00 23 MB 
[TXT]Unidad 4 Etapa 2 Exam Answers2013-04-10T23:58:00+00:00 21 MB 
[TXT]United States Government Chapter 14 Packet Answer Key2013-04-11T21:17:00+00:00 19 MB 
[TXT]Understanding Taxes Worksheet Answers2013-04-12T18:36:00+00:00 24 MB 
[TXT]Uniden Dect 60 Answering Machine Manual2013-04-13T15:55:00+00:00 18 MB 
[TXT]Us Citizenship Test Question Answers2013-04-14T13:14:00+00:00 18 MB 
[TXT]Unanswered Cries Movie2013-04-15T10:33:00+00:00 20 MB 
[TXT]Unidad 3 Etapa 2 Mas Practica Answers2013-04-16T07:52:00+00:00 24 MB 
[TXT]Unit 6 Level D Answers2013-04-17T05:11:00+00:00 22 MB 
[TXT]Unit 7 Answers History Alive Th Renaissance2013-04-18T02:30:00+00:00 19 MB 
[TXT]Unit 4 Biology Review Answer2013-04-18T23:49:00+00:00 25 MB 
[TXT]Unit 4 Vocabulary Answers2013-04-19T21:08:00+00:00 23 MB 
[TXT]Urinary System Exam Answers2013-04-20T18:27:00+00:00 25 MB 
[TXT]Uptu Answer Key 2013 By Akash Institute2013-04-21T15:46:00+00:00 20 MB 
[TXT]Usa Studies Weekly Week 22 Answer Key2013-04-22T13:05:00+00:00 22 MB 
[TXT]Unit 3 Resources A Turbulent Time Answers2013-04-23T10:24:00+00:00 17 MB 
[TXT]Unisa Past Exam Papers With Answers Edt101g2013-04-24T07:43:00+00:00 25 MB 
[TXT]Usatestprep Answer Key Reading2013-04-25T05:02:00+00:00 24 MB 
[TXT]Ultimate Chemical Equations Handbook Answers Ch 112013-04-26T02:21:00+00:00 20 MB 
[TXT]Unit Iv Worksheet 2 Answers2013-04-26T23:40:00+00:00 18 MB 
[TXT]Understanding Basic Statistics Brase Answers 5th2013-04-27T20:59:00+00:00 21 MB 
[TXT]Unit 11 Capitalization Answers2013-04-28T18:18:00+00:00 17 MB 
[TXT]Us History Practice Test 3 Answer Key2013-04-29T15:37:00+00:00 25 MB 
[TXT]Us Government 1 Lesson 13 Answers2013-04-30T12:56:00+00:00 22 MB 
[TXT]Understanding Psychology Answer Key2013-05-01T10:15:00+00:00 24 MB 
[TXT]Us Government Unit 7 Answers2013-05-02T07:34:00+00:00 22 MB 
[TXT]Unit 4 Macroeconomics Lesson 5 Activity 39 Answer Key2013-05-03T04:53:00+00:00 25 MB 
[TXT]Uniden Premium Dect Answering Machine Instructions2013-05-04T02:12:00+00:00 18 MB 
[TXT]Usa Sos Scavenger Hunt Answers2013-05-04T23:31:00+00:00 23 MB 
[TXT]Using A Classification Key Lab Answers2013-05-05T20:50:00+00:00 25 MB 
[TXT]Usa Sos Scavenger Hunt Answer 7th Grade2013-05-06T18:09:00+00:00 17 MB 
[TXT]University Calculus Answers2013-05-07T15:28:00+00:00 21 MB 
[TXT]Understand Psychology Answers2013-05-08T12:47:00+00:00 21 MB 
[TXT]Urinalysis And Disease Identification Lab Answers2013-05-09T10:06:00+00:00 19 MB 
[TXT]Unit 5 Chapter 18 Cold War Conflicts Guided Reading Answers2013-05-10T07:25:00+00:00 20 MB 
[TXT]Us Citizenship Test Question Answer2013-05-11T04:44:00+00:00 23 MB 
[TXT]Unalienable Rights Quiz Answers2013-05-12T02:03:00+00:00 21 MB 
[TXT]Unit Hsc 2028 Answers2013-05-12T23:22:00+00:00 23 MB 
[TXT]United States History Examination Fifth Edition Answers2013-05-13T20:41:00+00:00 22 MB 
[TXT]Unit 12 Answer Sheet 5th Grade2013-05-14T18:00:00+00:00 17 MB 
[TXT]Uniden Dect 60 Digital Answering Machine2013-05-15T15:19:00+00:00 17 MB 
[TXT]Unit 10 Flocabulary Answer Key Yellow2013-05-16T12:38:00+00:00 22 MB 
[TXT]Uppsc Exam 2013 Answer Key2013-05-17T09:57:00+00:00 24 MB 
[TXT]Unix Mcq Questions With Answers2013-05-18T07:16:00+00:00 25 MB 
[TXT]Unit 4 Resources Poetry Answers2013-05-19T04:35:00+00:00 25 MB 
[TXT]Unit 2 Vocabulary Answers Level G2013-05-20T01:54:00+00:00 21 MB 
[TXT]Upstream Advanced C2 Workbook Answer Key2013-05-20T23:13:00+00:00 17 MB 
[TXT]Using And Constructing A Dichotomous Key Answers2013-05-21T20:32:00+00:00 25 MB 
[TXT]Unit Rate Questions And Answers2013-05-22T17:51:00+00:00 19 MB 
[TXT]Unit 4 Bonding Webquest Answers Key2013-05-23T15:10:00+00:00 20 MB 
[TXT]Upco Book Answer Key2013-05-24T12:29:00+00:00 18 MB 
[TXT]Unidad 6 Leccion 2 Vocabulario B Answers2013-05-25T09:48:00+00:00 24 MB 
[TXT]Unit 4 Toxins Lesson 5 Answers2013-05-26T07:07:00+00:00 21 MB 
[TXT]Unit 2 Macroeconomics Multiple Choice Sample Questions Answers2013-05-27T04:26:00+00:00 17 MB 
[TXT]Unit 1 Vocab Packet Answers2013-05-28T01:45:00+00:00 20 MB 
[TXT]Understanding Psychology Test Answer Key2013-05-28T23:04:00+00:00 20 MB 
[TXT]Unit 7 Vocab Answers2013-05-29T20:23:00+00:00 23 MB 
[TXT]Uop Math 208 Answers2013-05-30T17:42:00+00:00 20 MB 
[TXT]Uk Tourist Visa Interview Questions Answers2013-05-31T15:01:00+00:00 22 MB 
[TXT]Unidad 3 Etapa 1 Mas Practica Answers2013-06-01T12:20:00+00:00 21 MB 
[TXT]Upper Intermediate Unit Test Answers2013-06-02T09:39:00+00:00 20 MB 
[TXT]Unit 2 Level E Answers2013-06-03T06:58:00+00:00 22 MB 
[TXT]Unit Vii Test V1 Answers2013-06-04T04:17:00+00:00 17 MB 
[TXT]Unit 15 The Urinary System Answer Key2013-06-05T01:36:00+00:00 24 MB 
[TXT]Unit 5 Test Ap Stats Answers2013-06-05T22:55:00+00:00 25 MB 
[TXT]Unit 8 Review Using Pronouns Correctly Answers2013-06-06T20:14:00+00:00 20 MB 
[TXT]Unite 1 Partie 2 Answers2013-06-07T17:33:00+00:00 22 MB 
[TXT]Us History Chapter 19 Guided Reading Answers2013-06-08T14:52:00+00:00 20 MB 
[TXT]Unit 3 Resources Types Of Nonfiction Answers2013-06-09T12:11:00+00:00 17 MB 
[TXT]Usmc Mci Answers Spelling2013-06-10T09:30:00+00:00 18 MB 
[TXT]Unit 7 Function Answer Key Algebra 12013-06-11T06:49:00+00:00 21 MB 
[TXT]Understanding Psychology Answers2013-06-12T04:08:00+00:00 17 MB 
[TXT]Unit 5 Test Answers For American Govt2013-06-13T01:27:00+00:00 23 MB 
[TXT]Usatestprep Answer Key Literature2013-06-13T22:46:00+00:00 20 MB 
[TXT]Us History Regents January 2012 Answer Key2013-06-14T20:05:00+00:00 17 MB 
[TXT]Urinary Word Search Answers2013-06-15T17:24:00+00:00 23 MB 
[TXT]Unit 5 Lesson 1 Answer Key Transformations2013-06-16T14:43:00+00:00 24 MB 
[TXT]Unit Cu743 Answers2013-06-17T12:02:00+00:00 18 MB 
[TXT]Understanding Pharmacology Workman Study Guide Answers2013-06-18T09:21:00+00:00 22 MB 
[TXT]Understing Nutrition 13th Edition Answer Key2013-06-19T06:40:00+00:00 18 MB 
[TXT]Unit Ii Worksheet 3 Answers2013-06-20T03:59:00+00:00 21 MB 
[TXT]Us History B Semester 2 Answers2013-06-21T01:18:00+00:00 23 MB 
[TXT]Unanswered Questions In Science2013-06-21T22:37:00+00:00 25 MB 
[TXT]Upco Living Environment 2014 Answer Key2013-06-22T19:56:00+00:00 17 MB 
[TXT]Unit 4 Answer Sheets Springboard English2013-06-23T17:15:00+00:00 24 MB 
[TXT]United States Through Industrialism Workbook Answers2013-06-24T14:34:00+00:00 19 MB 
[TXT]Unit 1 Answer Key Plate Tectonics And Earth Structure2013-06-25T11:53:00+00:00 20 MB 
[TXT]Unity And Coherence Exercises Answers2013-06-26T09:12:00+00:00 21 MB 
[TXT]Using And Understanding Mathematics Answers2013-06-27T06:31:00+00:00 22 MB 
[TXT]Uptu Answer Key 2013 Set Ac2013-06-28T03:50:00+00:00 17 MB 
[TXT]Us Involvement And Escalation Answer Key2013-06-29T01:09:00+00:00 25 MB 
[TXT]Unit 5 Answers Holt Mcdougal Literature2013-06-29T22:28:00+00:00 25 MB 
[TXT]Unit 4 Interim Assessment Answers2013-06-30T19:47:00+00:00 22 MB 
[TXT]Using Clues To Identify Elements Answer Key2013-07-01T17:06:00+00:00 25 MB 
[TXT]Us History Star Review Answer Key2013-07-02T14:25:00+00:00 24 MB 
[TXT]Unidad 6 Leccion 2 Pg 270 Answers2013-07-03T11:44:00+00:00 22 MB 
[TXT]Urinary System Packet Answers2013-07-04T09:03:00+00:00 20 MB 
[TXT]Unlocking The Mysteries Of Kingdoms Answers2013-07-05T06:22:00+00:00 20 MB 
[TXT]Understanding Electron Configuration Lab Answer Key2013-07-06T03:41:00+00:00 25 MB 
[TXT]Us Government Final Exam Review Answers2013-07-07T01:00:00+00:00 21 MB 
[TXT]Usa Test Prep Answers Vocabulary2013-07-07T22:19:00+00:00 21 MB 
[TXT]Unit V Test V2 Answers2013-07-08T19:38:00+00:00 21 MB 
[TXT]Uniden Dect 60 Digital Answering System User Manual2013-07-09T16:57:00+00:00 21 MB 
[TXT]Ucsmp Geometry Lesson Master Answer Key2013-07-10T14:16:00+00:00 19 MB 
[TXT]Unit 3 Collection 6 Selection Test Answers2013-07-11T11:35:00+00:00 24 MB 
[TXT]Unwind Packet Answer2013-07-12T08:54:00+00:00 22 MB 
[TXT]Understanding Viruses Video Worksheet Answers2013-07-13T06:13:00+00:00 25 MB 
[TXT]United States Government Democracy In Action Answer Key2013-07-14T03:32:00+00:00 22 MB 
[TXT]Unit 13 Vocabulary Answers2013-07-15T00:51:00+00:00 23 MB 
[TXT]Understanding Context Clues Building Vocabulary Skillbuilder Answers2013-07-15T22:10:00+00:00 21 MB 
[TXT]Upco Review Book Earth Science Answers2013-07-16T19:29:00+00:00 23 MB 
[TXT]Ucsmp Algebra Test Answer Key 102013-07-17T16:48:00+00:00 19 MB 
[TXT]Unit 4 Packet Including Answers2013-07-18T14:07:00+00:00 19 MB 
[TXT]Unit 7 Evolution Answer Key Biology2013-07-19T11:26:00+00:00 22 MB 
[TXT]Uscis Naturalization Questions And Answers2013-07-20T08:45:00+00:00 19 MB 
[TXT]Unit One Test Ja Finance Park Answers2013-07-21T06:04:00+00:00 17 MB 
[TXT]Us History Staar Study Packet Answers2013-07-22T03:23:00+00:00 24 MB 
[TXT]Unit F Evolution Crossword Puzzle Answer Key2013-07-23T00:42:00+00:00 23 MB 
[TXT]Uniden Answering Machine Not Working2013-07-23T22:01:00+00:00 22 MB 
[TXT]Usa Test Prep Answer Key Math2013-07-24T19:20:00+00:00 21 MB 
[TXT]Uitm Final Exam Paper Answers2013-07-25T16:39:00+00:00 24 MB 
[TXT]Usa Swimming Foundations Of Coaching Test Answers2013-07-26T13:58:00+00:00 22 MB 
[TXT]Upco Earth Science Lab Answers2013-07-27T11:17:00+00:00 21 MB 
[TXT]Understanding Basic Statistics 6th Edition Answers2013-07-28T08:36:00+00:00 20 MB 
[TXT]Usatestprep Crossword Puzzle Answers2013-07-29T05:55:00+00:00 22 MB 
[TXT]Us History Chapter 19 Reading Guide Answers2013-07-30T03:14:00+00:00 19 MB 
[TXT]Us Government Cp Unit 1 Answers2013-07-31T00:33:00+00:00 25 MB 
[TXT]Understing Management 8th Edition Quiz Answers2013-07-31T21:52:00+00:00 25 MB 
[TXT]Unit 7 Apush Test Answers2013-08-01T19:11:00+00:00 22 MB 
[TXT]Us History Study Guide Answers2013-08-02T16:30:00+00:00 25 MB 
[TXT]Uspap Test Answers2013-08-03T13:49:00+00:00 20 MB 
[TXT]Us History Government Regents Answer Key2013-08-04T11:08:00+00:00 18 MB 
[TXT]Ultimate Guide To Interview Answers2013-08-05T08:27:00+00:00 20 MB 
[TXT]Unit 2 Section C Supplement Answer2013-08-06T05:46:00+00:00 25 MB 
[TXT]Unit 1 Lesson 2 Geometry Answer Key2013-08-07T03:05:00+00:00 20 MB 
[TXT]Upco Review Answers2013-08-08T00:24:00+00:00 18 MB 
[TXT]Unit 3 Embedded Assessment 4 Springboard Answers2013-08-08T21:43:00+00:00 21 MB 
[TXT]Usmc Mci Answers Oo1a2013-08-09T19:02:00+00:00 20 MB 
[TXT]Unisa Past Exam Papers With Answers Pyc26022013-08-10T16:21:00+00:00 23 MB 
[TXT]Uniden User Manual Answering Machine2013-08-11T13:40:00+00:00 19 MB 
[TXT]Usa Test Prep Biology Answer Key Evolution2013-08-12T10:59:00+00:00 24 MB 
[TXT]Unit 5 Test Answer In Economics2013-08-13T08:18:00+00:00 21 MB 
[TXT]Unit 3 Test Answer Key American Nation2013-08-14T05:37:00+00:00 21 MB 
[TXT]Unidad 2 Etapa 3 Exam Answers2013-08-15T02:56:00+00:00 18 MB 
[TXT]Upsee Answer Key 20142013-08-16T00:15:00+00:00 17 MB 
[TXT]Unit Shc 31 Answers2013-08-16T21:34:00+00:00 24 MB 
[TXT]Usatestprep Inc Puzzle Answers2013-08-17T18:53:00+00:00 18 MB 
[TXT]Urinalysis Lab Answer Key Biology2013-08-18T16:12:00+00:00 25 MB 
[TXT]Unit 10 Cscope Pre Cal Answers2013-08-19T13:31:00+00:00 22 MB 
[TXT]Understanding Populations Review Answers2013-08-20T10:50:00+00:00 23 MB 
[TXT]Us V Nixon Icivics Answers2013-08-21T08:09:00+00:00 20 MB 
[TXT]Understanding Your Paycheck Answers2013-08-22T05:28:00+00:00 20 MB 
[TXT]Unit 3 Microeconomics Lesson 5 Activity 39 Answers2013-08-23T02:47:00+00:00 20 MB 
[TXT]Usatestprep Eoc Answer Key2013-08-24T00:06:00+00:00 24 MB 
[TXT]Ultimate Guide To Job Interview Answers2013-08-24T21:25:00+00:00 24 MB 
[TXT]Unit 3 Macroeconomics Multiple Choice Sample Questions Answer Key2013-08-25T18:44:00+00:00 25 MB 
[TXT]Understanding Financial Statements 10th Edition Answers2013-08-26T16:03:00+00:00 18 MB 
[TXT]Us Bank Wbt Answers2013-08-27T13:22:00+00:00 24 MB 
[TXT]Unscramble Baby Shower Game Answers2013-08-28T10:41:00+00:00 24 MB 
[TXT]Unit 4 Macroeconomics Lesson 6 Activity 41 Answer Key2013-08-29T08:00:00+00:00 24 MB 
[TXT]Unit 17 Electromagnetism Key Answers2013-08-30T05:19:00+00:00 23 MB 
[TXT]Us History Lesson 4 Handout 24 Answers2013-08-31T02:38:00+00:00 18 MB 
[TXT]Uniden Answering Machine Codes2013-08-31T23:57:00+00:00 17 MB 
[TXT]Understanding Credit Reports Note Taking Guide Answers2013-09-01T21:16:00+00:00 18 MB 
[TXT]Unit 1 Test Review Answers2013-09-02T18:35:00+00:00 17 MB 
[TXT]Unit Hsc 024 Answers Duty Of Care2013-09-03T15:54:00+00:00 21 MB 
[TXT]Unite 4 Lecon 15 Workbook Answers2013-09-04T13:13:00+00:00 19 MB 
[TXT]Us History 2 Final Exam Answers2013-09-05T10:32:00+00:00 22 MB 
[TXT]Usa Test Prep Biology Eocep Answers2013-09-06T07:51:00+00:00 24 MB 
[TXT]University Physics Wolfson Answers2013-09-07T05:10:00+00:00 17 MB 
[TXT]Us Regents June 2014 Answers2013-09-08T02:29:00+00:00 24 MB 
[TXT]Unit 3 Microeconomics Lesson 2 Activity 26 Answer Key2013-09-08T23:48:00+00:00 23 MB 
[TXT]Use The Following To Answer Questions 17 And 182013-09-09T21:07:00+00:00 22 MB 
[TXT]Usa Test Prep Answer Key 8th Grade2013-09-10T18:26:00+00:00 20 MB 
[TXT]Ucsmp Advanced Algebra Lesson Master B Answers2013-09-11T15:45:00+00:00 24 MB 
[TXT]Unit 8 Test Form B Geometry Answers2013-09-12T13:04:00+00:00 22 MB 
[TXT]Upstream Pre Intermediate B1 Answers2013-09-13T10:23:00+00:00 19 MB 
[TXT]Understanding Pharmacology Study Guide Answers2013-09-14T07:42:00+00:00 25 MB 
[TXT]Units Of Length Christina Bryant Answer2013-09-15T05:01:00+00:00 22 MB 
[TXT]Unit 4 Quiz Answers2013-09-16T02:20:00+00:00 24 MB 
[TXT]Usa Studies Weekly Answer Key Week 312013-09-16T23:39:00+00:00 23 MB 
[TXT]Una Vez Mas Tercera Edicion Answer Key2013-09-17T20:58:00+00:00 25 MB 
[TXT]Using Quotation Marks Ws 1 Answer Sheet2013-09-18T18:17:00+00:00 19 MB 
[TXT]Us History Guided Reading Answers Chapter 122013-09-19T15:36:00+00:00 17 MB 
[TXT]Unit 6 Market Leader Advertising Answer Key2013-09-20T12:55:00+00:00 24 MB 
[TXT]Using Sources Effectively Answer Key2013-09-21T10:14:00+00:00 17 MB 
[TXT]Universal Gravitation Physics Classroom Answer Key2013-09-22T07:33:00+00:00 25 MB 
[TXT]Us History Regents August 2013 Answers2013-09-23T04:52:00+00:00 17 MB 
[TXT]Unit 14 We Innovate Answer Key2013-09-24T02:11:00+00:00 24 MB 
[TXT]Usa Studies Weekly Week 28 Answers2013-09-24T23:30:00+00:00 24 MB 
[TXT]Unit 7 Packet Cardiovascular Answers2013-09-25T20:49:00+00:00 24 MB 
[TXT]Us History Guided Activity 25 Answer Key2013-09-26T18:08:00+00:00 21 MB 
[TXT]Unit 8 Vocabulary Packet Answers Grade 122013-09-27T15:27:00+00:00 25 MB 
[TXT]Urinary System Test Questions And Answers2013-09-28T12:46:00+00:00 25 MB 
[TXT]Unit 8 Answer Key2013-09-29T10:05:00+00:00 23 MB 
[TXT]Uppsc Answer Key 20122013-09-30T07:24:00+00:00 17 MB 
[TXT]Unit Test Looking For Pythagoras Answers2013-10-01T04:43:00+00:00 20 MB 
[TXT]Using The Sentence Composing Toolbox Answers2013-10-02T02:02:00+00:00 25 MB 
[TXT]Uscg Exam Questions And Answers2013-10-02T23:21:00+00:00 23 MB 
[TXT]Unit 3 Answer Key2013-10-03T20:40:00+00:00 18 MB 
[TXT]Unseen Poetry 2003 Junior Cert Sample Answer2013-10-04T17:59:00+00:00 17 MB 
[TXT]Understanding Demand Guided And Review Answer Key2013-10-05T15:18:00+00:00 22 MB 
[TXT]Urinary System Coloring Workbook Answer Key2013-10-06T12:37:00+00:00 24 MB 
[TXT]Unit 2 Answer Key2013-10-07T09:56:00+00:00 22 MB 
[TXT]Unit 12 Statistics Emathinstruction Answer Key2013-10-08T07:15:00+00:00 25 MB 
[TXT]Usa States Word Search Answers2013-10-09T04:34:00+00:00 22 MB 
[TXT]Ucsmp Algebra Lesson Master Answers2013-10-10T01:53:00+00:00 19 MB 
[TXT]Us History Lesson 32 Handout 36 Answers2013-10-10T23:12:00+00:00 18 MB 
[TXT]Us Citizen Test Questions Answers 20112013-10-11T20:31:00+00:00 22 MB 
[TXT]Us History Practice Test 3 Booklet Answers2013-10-12T17:50:00+00:00 24 MB 
[TXT]Unit 1 Parts Of Speech Answer Key2013-10-13T15:09:00+00:00 17 MB 
[TXT]Upsc Csat 2013 Answer Key2013-10-14T12:28:00+00:00 19 MB 
[TXT]University Of Subway Classes Answers2013-10-15T09:47:00+00:00 24 MB 
[TXT]Unit 9 System Of Equations Test Answers2013-10-16T07:06:00+00:00 19 MB 
[TXT]Ucsmp Transition Math Answers2013-10-17T04:25:00+00:00 20 MB 
[TXT]Us History Chapter 18 Section 2 The Cold War Heats Up Answers2013-10-18T01:44:00+00:00 23 MB 
[TXT]Urinary System Questions And Answers2013-10-18T23:03:00+00:00 19 MB 
[TXT]Urinary System Packet Answere2013-10-19T20:22:00+00:00 20 MB 
[TXT]Us History Jarrett Workbook Answers2013-10-20T17:41:00+00:00 24 MB 
[TXT]Us Trivia Questions And Answers2013-10-21T15:00:00+00:00 17 MB 
[TXT]Unit 11 Level F Vocab Answers2013-10-22T12:19:00+00:00 18 MB 
[TXT]Unit Vii Worksheet 2 Answers2013-10-23T09:38:00+00:00 23 MB 
[TXT]U8 Ws 5 V3 1 Answers2013-10-24T06:57:00+00:00 22 MB 
[TXT]Unit 4 Toxins Lesson 7 Answer Key2013-10-25T04:16:00+00:00 18 MB 
[TXT]Unit 4222 266 Answers2013-10-26T01:35:00+00:00 22 MB 
[TXT]Uniden Dect 60 Answering Machine2013-10-26T22:54:00+00:00 19 MB 
[TXT]Upstream Advanced C1 Answers Bing2013-10-27T20:13:00+00:00 18 MB 
[TXT]Unit 2 Right Triangle Trigonometry Answers2013-10-28T17:32:00+00:00 25 MB 
[TXT]Unit 5 Resources Progress And Decline Answers2013-10-29T14:51:00+00:00 19 MB 
[TXT]Unidad 7 Leccion 2 Vocabulario B Answer2013-10-30T12:10:00+00:00 25 MB 
[TXT]Unit 3 Embedded Assessment 1 Springboard Answers2013-10-31T09:29:00+00:00 17 MB 
[TXT]Unit Atlas South Asia Answers2013-11-01T06:48:00+00:00 20 MB 
[TXT]Upco Earth Science Answers 20132013-11-02T04:07:00+00:00 21 MB 
[TXT]United States History Answer Key2013-11-03T01:26:00+00:00 24 MB 
[TXT]Unseen Poems With Questions And Answers2013-11-03T22:45:00+00:00 17 MB 
[TXT]Usa Today Quick Cross Answers2013-11-04T20:04:00+00:00 20 MB 
[TXT]Unit 15 The Cold War Fill In Blanks Answer2013-11-05T17:23:00+00:00 21 MB 
[TXT]Ucf Math Placement Test Answers2013-11-06T14:42:00+00:00 19 MB 
[TXT]Urinary System Chapter Review Answers2013-11-07T12:01:00+00:00 22 MB 
[TXT]Unite 3 Lecon C Workbook Answer Key2013-11-08T09:20:00+00:00 17 MB 
[TXT]Us History Regents Answers 20142013-11-09T06:39:00+00:00 18 MB 
[TXT]Vortex Solution2013-11-10T03:58:00+00:00 22 MB 
[TXT]Vector Analysis Problems And Solutions2013-11-11T01:17:00+00:00 20 MB 
[TXT]Vector Calculus Solutions Manual2013-11-11T22:36:00+00:00 25 MB 
[TXT]Vce Accounting Solutions2013-11-12T19:55:00+00:00 25 MB 
[TXT]Vce Technology Solutions Limited2013-11-13T17:14:00+00:00 24 MB 
[TXT]Volkswagen Beetle Owners Problems Solutions2013-11-14T14:33:00+00:00 23 MB 
[TXT]Vector Mechanics For Engineers 7th Solutions2013-11-15T11:52:00+00:00 18 MB 
[TXT]Verdeyen Laser Electronics Solution Manual2013-11-16T09:11:00+00:00 18 MB 
[TXT]Visual Basic 2010 Exercise Solutions Manual2013-11-17T06:30:00+00:00 21 MB 
[TXT]Vibrations And Waves French Solutions Manual2013-11-18T03:49:00+00:00 19 MB 
[TXT]Viscusi Solutions Antitrust2013-11-19T01:08:00+00:00 20 MB 
[TXT]Vector Mechanics Statics Beer 10th Edition Solutions Bing2013-11-19T22:27:00+00:00 18 MB 
[TXT]Vector Calculus Solutions Manual Marsden2013-11-20T19:46:00+00:00 25 MB 
[TXT]Vector Mechanics For Engineers Statics 8th Edition Solution Manual2013-11-21T17:05:00+00:00 21 MB 
[TXT]Visual Basic 2010 Exercise Solutions2013-11-22T14:24:00+00:00 23 MB 
[TXT]Vector Calculus 4th Edition Solutions2013-11-23T11:43:00+00:00 19 MB 
[TXT]Vax Cleaning Solution Homebase2013-11-24T09:02:00+00:00 23 MB 
[TXT]Viscous Fluid Flow Solutions Chapter42013-11-25T06:21:00+00:00 22 MB 
[TXT]Value Chain Program Design Promoting Market Solutions For2013-11-26T03:40:00+00:00 21 MB 
[TXT]Vector Mechanics For Engineers Statics 9th Edition Solutions Manual2013-11-27T00:59:00+00:00 22 MB 
[TXT]Vector Calculus Solutions Manuals2013-11-27T22:18:00+00:00 23 MB 
[TXT]Video Surveillance Article Abacus Business Solutions2013-11-28T19:37:00+00:00 25 MB 
[TXT]Valkenburg Solutions2013-11-29T16:56:00+00:00 17 MB 
[TXT]Vhdl Solutions Navabi2013-11-30T14:15:00+00:00 22 MB 
[TXT]Voet Biochemistry Student Solutions Manual2013-12-01T11:34:00+00:00 25 MB 
[TXT]Verified Algorithm Design Kleinberg Solutions2013-12-02T08:53:00+00:00 21 MB 
[TXT]Virgo Careeroscope 2014 Astrology And Career Solutions2013-12-03T06:12:00+00:00 17 MB 
[TXT]Vupoint Solutions Magic Wand Jr Portable Scanner2013-12-04T03:31:00+00:00 18 MB 
[TXT]Vector Mechanics For Engineers Solutions2013-12-05T00:50:00+00:00 17 MB 
[TXT]Vector Mechanics For Engineers Statics 9th Edition Solutions2013-12-05T22:09:00+00:00 18 MB 
[TXT]Verilog Hdl Samir Palnitkar Solution Manual2013-12-06T19:28:00+00:00 19 MB 
[TXT]Vector Mechanics For Engineers Statics Solution2013-12-07T16:47:00+00:00 23 MB 
[TXT]Venema Foundations Geometry Solutions Manual2013-12-08T14:06:00+00:00 22 MB 
[TXT]Vector Mechanics For Engineers Dynamics Beer Solution2013-12-09T11:25:00+00:00 19 MB 
[TXT]Vector Mechanics 10th Edition Solutions2013-12-10T08:44:00+00:00 23 MB 
[TXT]Vector Analysis Schaum Series Solution Manual2013-12-11T06:03:00+00:00 20 MB 
[TXT]Vector Calculus 5th Edition Solutions Manual2013-12-12T03:22:00+00:00 17 MB 
[TXT]Viscous Fluid Flow Solution Manuals White2013-12-13T00:41:00+00:00 24 MB 
[TXT]Vector Analysis By Murray R Spiegel With Solutions2013-12-13T22:00:00+00:00 22 MB 
[TXT]Vector Mechanics Solutions2013-12-14T19:19:00+00:00 22 MB 
[TXT]Vector Calculus Colley Solutions Pdf2013-12-15T16:38:00+00:00 18 MB 
[TXT]Verifying Identities Worksheet With Solutions2013-12-16T13:57:00+00:00 25 MB 
[TXT]Valley Publishing Company Solutions 12 The Edition2013-12-17T11:16:00+00:00 23 MB 
[TXT]Vcaa Accounting 2012 Exam Solutions2013-12-18T08:35:00+00:00 18 MB 
[TXT]Vector Calculus Marsden 6th Edition Solutions2013-12-19T05:54:00+00:00 20 MB 
[TXT]Vector Mechanics Beer Johnston 10th Edition Solutions2013-12-20T03:13:00+00:00 21 MB 
[TXT]Valley Publishing Company Audit Solutions2013-12-21T00:32:00+00:00 20 MB 
[TXT]Vlsi Signal Processing Parhi Solution Manual2013-12-21T21:51:00+00:00 18 MB 
[TXT]Van Valkenburg Solution2013-12-22T19:10:00+00:00 18 MB 
[TXT]Vector Mechanics For Engineers Dynamics 7th Edition Solutions2013-12-23T16:29:00+00:00 25 MB 
[TXT]Venn Diagram Concept Problems With Solutions2013-12-24T13:48:00+00:00 23 MB 
[TXT]Vertical Solutions Positioned In The Niche Quadrant Of 22013-12-25T11:07:00+00:00 24 MB 
[TXT]Vibration Schaum Series Solutions2013-12-26T08:26:00+00:00 24 MB 
[TXT]Vector Mechanics For Engineers Statics Dynamics Solution Manual2013-12-27T05:45:00+00:00 23 MB 
[TXT]Vector Problems Solution Mit Opencourseware Free2013-12-28T03:04:00+00:00 20 MB 
[TXT]Vector Calculus 3rd Solution2013-12-29T00:23:00+00:00 24 MB 
[TXT]Vector Mechanics For Engineers Dynamics 9th Edition Textbook Solution2013-12-29T21:42:00+00:00 19 MB 
[TXT]Vijay K Garg Wireless Communication And Networking Manual Solution2013-12-30T19:01:00+00:00 21 MB 
[TXT]Vibrations And Waves Solutions2013-12-31T16:20:00+00:00 17 MB 
[TXT]Ve280x Ve281x Ve280 Ve281 H1 1015 Nec Display Solutions2014-01-01T13:39:00+00:00 20 MB 
[TXT]Valuation Titman Solutions2014-01-02T10:58:00+00:00 22 MB 
[TXT]Vector Mechanics Statics Beer 9th Edition Solution2014-01-03T08:17:00+00:00 20 MB 
[TXT]Valkenburg Network Analysis Solution2014-01-04T05:36:00+00:00 17 MB 
[TXT]Vitra Creative Solution Partner New Pure Ideas 22014-01-05T02:55:00+00:00 18 MB 
[TXT]Vmware Vrealize Operations Guide To Third Party Solutions 22014-01-06T00:14:00+00:00 22 MB 
[TXT]Vector Mechanics Engineers 9th Edition Solutions Manual2014-01-06T21:33:00+00:00 23 MB 
[TXT]Vector Calculus Michael Corral Solution2014-01-07T18:52:00+00:00 22 MB 
[TXT]Vibrations Waves French Solutions2014-01-08T16:11:00+00:00 23 MB 
[TXT]Vector Mechanics For Engineers Dynamics Solution Manual2014-01-09T13:30:00+00:00 22 MB 
[TXT]Vce Technology Solutions2014-01-10T10:49:00+00:00 18 MB 
[TXT]Virtual Learning A Solution To The All Black Male School2014-01-11T08:08:00+00:00 19 MB 
[TXT]Vector Mechanics For Engineers Solution Manual 8th Edition2014-01-12T05:27:00+00:00 24 MB 
[TXT]Vector Mechanics For Engineers Statics 10th Edition Solutions Manual2014-01-13T02:46:00+00:00 18 MB 
[TXT]Visual Logic Exercises Solutions2014-01-14T00:05:00+00:00 25 MB 
[TXT]Vector Mechanics Statics Solutions2014-01-14T21:24:00+00:00 25 MB 
[TXT]Vector Mechanics Solution Manual2014-01-15T18:43:00+00:00 22 MB 
[TXT]Vupoint Solutions Inc2014-01-16T16:02:00+00:00 21 MB 
[TXT]Vector Mechanics 8th Solutions Manual2014-01-17T13:21:00+00:00 20 MB 
[TXT]Verbeek Solution Manual2014-01-18T10:40:00+00:00 23 MB 
[TXT]Vtsp Technology Solutions Professional Sharepoint2014-01-19T07:59:00+00:00 22 MB 
[TXT]Vibration Of Continuous Systems Rao Solutions2014-01-20T05:18:00+00:00 20 MB 
[TXT]Vce Accounting Units 1 And 2 Solutions Manual2014-01-21T02:37:00+00:00 20 MB 
[TXT]Vendor Landscape Mid Market Erp Zift Solutions2014-01-21T23:56:00+00:00 20 MB 
[TXT]Vax Cleaning Solution Asda2014-01-22T21:15:00+00:00 19 MB 
[TXT]Voluntary Dissolution New York Business Corporation2014-01-23T18:34:00+00:00 18 MB 
[TXT]Valix Solution Manual2014-01-24T15:53:00+00:00 24 MB 
[TXT]Vidyalankar Project Management Prelim Question Paper Solution2014-01-25T13:12:00+00:00 17 MB 
[TXT]Venn Diagram Word Problems And Solutions2014-01-26T10:31:00+00:00 20 MB 
[TXT]Van Valkenburg Solution Set2014-01-27T07:50:00+00:00 19 MB 
[TXT]Velleman How To Prove It Solutions2014-01-28T05:09:00+00:00 17 MB 
[TXT]Videos Calculus Larson 9th Edition Solutions Manual2014-01-29T02:28:00+00:00 23 MB 
[TXT]Vector Mechanics For Engineers Cynematic Beer Solution2014-01-29T23:47:00+00:00 25 MB 
[TXT]Vector Mechanics For Engineers Statics 6th Edition Solution Manual2014-01-30T21:06:00+00:00 20 MB 
[TXT]Vector Business Solutions2014-01-31T18:25:00+00:00 24 MB 
[TXT]Vce Year 11 Physics Work Solution2014-02-01T15:44:00+00:00 18 MB 
[TXT]Vector Mechanics Beer Solution Manual2014-02-02T13:03:00+00:00 17 MB 
[TXT]Vlsm Problems And Solutions2014-02-03T10:22:00+00:00 22 MB 
[TXT]Vsl Post Tensioning Solutions International Ltd2014-02-04T07:41:00+00:00 23 MB 
[TXT]Vector Mechanics For Engineers Statics 9th Solution2014-02-05T05:00:00+00:00 23 MB 
[TXT]Video Solutions For Your Project2014-02-06T02:19:00+00:00 19 MB 
[TXT]Vollhardt Solutions Manual2014-02-06T23:38:00+00:00 25 MB 
[TXT]Vector Mechanics For Engineers Solution Manual 10th Edition2014-02-07T20:57:00+00:00 17 MB 
[TXT]Visual Basic Exercise Solutions2014-02-08T18:16:00+00:00 17 MB 
[TXT]Vcaa Accounting Sample Exam Solutions2014-02-09T15:35:00+00:00 17 MB 
[TXT]Vector Calculus 5th Edition Marsden Solutions2014-02-10T12:54:00+00:00 17 MB 
[TXT]Vcaa Sample Chemistry Exam 2013 Solution2014-02-11T10:13:00+00:00 17 MB 
[TXT]Vector Calculus Marsden Solutions Manual Download2014-02-12T07:32:00+00:00 22 MB 
[TXT]Vector Calculus Tromba Solutions2014-02-13T04:51:00+00:00 21 MB 
[TXT]Vector Mechanics For Engineers Statics 9th Edition Solutions Beer2014-02-14T02:10:00+00:00 21 MB 
[TXT]Velocity Solutions Reviews2014-02-14T23:29:00+00:00 19 MB 
[TXT]Vce Technology Solutions Ltd2014-02-15T20:48:00+00:00 18 MB 
[TXT]Vector Mechanics For Engineers Statics Solution Manual 32014-02-16T18:07:00+00:00 24 MB 
[TXT]Ventura County Epdc Meeting Agenda Cultivating Solutions2014-02-17T15:26:00+00:00 23 MB 
[TXT]Van Ness Smith Thermodynamics 5th Edition Solution2014-02-18T12:45:00+00:00 21 MB 
[TXT]Vector Mechanics For Engineers Statics 9th Edition Solution Manual2014-02-19T10:04:00+00:00 18 MB 
[TXT]Visual Solutions Essex Bridleways2014-02-20T07:23:00+00:00 24 MB 
[TXT]Vector Mechanics For Engineers Dynamics 9th Edition Solution Manual2014-02-21T04:42:00+00:00 20 MB 
[TXT]Views And Solutions Philips Lighting Led2014-02-22T02:01:00+00:00 19 MB 
[TXT]Vcaa Methods Exam Solutions2014-02-22T23:20:00+00:00 19 MB 
[TXT]Vector Mechanics Solution Manual 9th2014-02-23T20:39:00+00:00 23 MB 
[TXT]Vector Calculus Solutions2014-02-24T17:58:00+00:00 19 MB 
[TXT]Vollhardt Organic Chemistry 6th Edition Solutions Manual2014-02-25T15:17:00+00:00 25 MB 
[TXT]Venn Diagram Word Problems Solutions2014-02-26T12:36:00+00:00 22 MB 
[TXT]Vector Calculus Marsden 5th Edition Solutions2014-02-27T09:55:00+00:00 23 MB 
[TXT]Venn Diagram Problems Solutions With Formulas2014-02-28T07:14:00+00:00 24 MB 
[TXT]Van Valkenburg Network Analysis Solution2014-03-01T04:33:00+00:00 23 MB 
[TXT]Vector Mechanics For Engineers Statics 5th Edition Solutions2014-03-02T01:52:00+00:00 24 MB 
[TXT]Viscous Fluid Flow White Solution Manual Download2014-03-02T23:11:00+00:00 20 MB 
[TXT]Vector Calculus 5th Edition Solutions2014-03-03T20:30:00+00:00 20 MB 
[TXT]Vector Calculus Marsden Solutions Manual2014-03-04T17:49:00+00:00 22 MB 
[TXT]Vector Mechanics For Engineers Dynamics 8th Edition Solutions2014-03-05T15:08:00+00:00 22 MB 
[TXT]Valencia Solutions Manual Business Tax 6th Edition2014-03-06T12:27:00+00:00 20 MB 
[TXT]Viore Plc7v96 Resolution2014-03-07T09:46:00+00:00 22 MB 
[TXT]Viscosity Polymer Solutions2014-03-08T07:05:00+00:00 23 MB 
[TXT]Verify Trigonometric Identities Problems And Solutions2014-03-09T04:24:00+00:00 20 MB 
[TXT]Vibrations Second Edition Solutions2014-03-10T01:43:00+00:00 22 MB 
[TXT]Van Trees Solution Manual2014-03-10T23:02:00+00:00 24 MB 
[TXT]Video Surveillance In Focus Motorola Solutions Homepage2014-03-11T20:21:00+00:00 25 MB 
[TXT]V Safe 100 Um Verbatim Digital Media Storage Solutions2014-03-12T17:40:00+00:00 18 MB 
[TXT]Vranesic Brown Solutions2014-03-13T14:59:00+00:00 19 MB 
[TXT]Vector Calculus Susan Jane Colley Solutions2014-03-14T12:18:00+00:00 19 MB 
[TXT]Vector Mechanics 9th Edition Dynamics Beer Solution2014-03-15T09:37:00+00:00 19 MB 
[TXT]Vibration Of Continuous System Rao Solution Manual2014-03-16T06:56:00+00:00 18 MB 
[TXT]Vector Calculus Sixth Edition Solution Manual2014-03-17T04:15:00+00:00 25 MB 
[TXT]Volhard Organic Chemistry Manual Solutions2014-03-18T01:34:00+00:00 24 MB 
[TXT]Vupoint Solutions Magic Wand Portable Scanner Manual2014-03-18T22:53:00+00:00 20 MB 
[TXT]Vector Mechanics Solution Manual 10th2014-03-19T20:12:00+00:00 24 MB 
[TXT]Verizon Repair Resolution Center2014-03-20T17:31:00+00:00 18 MB 
[TXT]Vector Mechanics For Engineers Statics 10th Solution2014-03-21T14:50:00+00:00 22 MB 
[TXT]Vector Mechanics For Engineers Statics Solution Manual 10th Edition2014-03-22T12:09:00+00:00 17 MB 
[TXT]Vollhardt Organic Chemistry Solutions Manual 22014-03-23T09:28:00+00:00 24 MB 
[TXT]Video Communications Solutions2014-03-24T06:47:00+00:00 25 MB 
[TXT]Valix Solution Manual Free Download2014-03-25T04:06:00+00:00 17 MB 
[TXT]Vector Calculus Marsden 6th Edition Solutions Manual2014-03-26T01:25:00+00:00 21 MB 
[TXT]Valuation Of Air Thread Connections Case Solution2014-03-26T22:44:00+00:00 22 MB 
[TXT]Vector Calculus Marsden Solutions2014-03-27T20:03:00+00:00 24 MB 
[TXT]Vector Numerical M Karim Solution2014-03-28T17:22:00+00:00 18 MB 
[TXT]Vax Cleaning Solution Tesco2014-03-29T14:41:00+00:00 21 MB 
[TXT]Vascular Disease Vd Medsolutions2014-03-30T12:00:00+00:00 19 MB 
[TXT]Vector Calculus Michael Corral Solution Manual2014-03-31T09:19:00+00:00 22 MB 
[TXT]Viscous Fluid Flow White Solutions Manual2014-04-01T06:38:00+00:00 17 MB 
[TXT]Vector Analysis Solution Manual2014-04-02T03:57:00+00:00 25 MB 
[TXT]Venn Diagram On Solutions And Suspensions Compare2014-04-03T01:16:00+00:00 25 MB 
[TXT]Vax Cleaning Solution2014-04-03T22:35:00+00:00 22 MB 
[TXT]Vnsgu Paper Solution2014-04-04T19:54:00+00:00 22 MB 
[TXT]Verdeyen Laser Electronics Solutions2014-04-05T17:13:00+00:00 20 MB 
[TXT]Vector Mechanics For Engineers Solutions 10th Chegg2014-04-06T14:32:00+00:00 19 MB 
[TXT]Vupoint Solutions Magic Wand Instructions2014-04-07T11:51:00+00:00 20 MB 
[TXT]Vector Mechanics For Engineers Statics 9th Edition Solutions Free2014-04-08T09:10:00+00:00 20 MB 
[TXT]Vistas Spanish Solutions2014-04-09T06:29:00+00:00 20 MB 
[TXT]Vhdl For Digital Design Frank Vahid Solution2014-04-10T03:48:00+00:00 23 MB 
[TXT]Vector Calculus 5th Edition Marsden Solution Manual2014-04-11T01:07:00+00:00 23 MB 
[TXT]Vector Calculus Solution Manual2014-04-11T22:26:00+00:00 23 MB 
[TXT]Vector Calculus And Study Guide Solutions Manual Jerrold2014-04-12T19:45:00+00:00 25 MB 
[TXT]Virgin Mobile Usa Pricing For The Very First Time Solution2014-04-13T17:04:00+00:00 22 MB 
[TXT]Vectors Solutions2014-04-14T14:23:00+00:00 21 MB 
[TXT]Vector Mechanics For Engineers Static Solution Manual2014-04-15T11:42:00+00:00 19 MB 
[TXT]Vector Calculus 3th Edition Marsden Solutions2014-04-16T09:01:00+00:00 20 MB 
[TXT]Vahid Solutions2014-04-17T06:20:00+00:00 23 MB 
[TXT]Vhdl Roth Solution Manual2014-04-18T03:39:00+00:00 24 MB 
[TXT]Vollhardt Organic Chemistry Solution Manual2014-04-19T00:58:00+00:00 20 MB 
[TXT]Vector Mechanics For Engineers Statics 9th Edition Textbook Solution2014-04-19T22:17:00+00:00 22 MB 
[TXT]Vector Mechanics For Engineers Solutions Manual2014-04-20T19:36:00+00:00 23 MB 
[TXT]Vaidyanathan Multi Rate System Solution Manual2014-04-21T16:55:00+00:00 21 MB 
[TXT]Vmd Spc Alizin 30 Mgml Solution For Injection2014-04-22T14:14:00+00:00 17 MB 
[TXT]Varian Intermediate Microeconomics Solution2014-04-23T11:33:00+00:00 20 MB 
[TXT]Vector Mechanics For Engineers Solutions 10th2014-04-24T08:52:00+00:00 19 MB 
[TXT]Vk Kapoor Business Mathematics Solution2014-04-25T06:11:00+00:00 19 MB 
[TXT]Voet Biochemistry Solution Manual2014-04-26T03:30:00+00:00 24 MB 
[TXT]Vidyalankar Solutions2014-04-27T00:49:00+00:00 21 MB 
[TXT]Valueaddedsolutionsinc Com2014-04-27T22:08:00+00:00 25 MB 
[TXT]Viscous Fluid Flow White Solutions Manual Rar2014-04-28T19:27:00+00:00 24 MB 
[TXT]Vba Solution Exercise2014-04-29T16:46:00+00:00 21 MB 
[TXT]Voluntary Dissolution Of Corporation2014-04-30T14:05:00+00:00 25 MB 
[TXT]Valuing Capital Investment Projects Case Solutions Hbs2014-05-01T11:24:00+00:00 21 MB 
[TXT]Vector Calculus Colley 4th Edition Solutions2014-05-02T08:43:00+00:00 17 MB 
[TXT]Vector Mechanics For Engineers Ninth Edition Solutions2014-05-03T06:02:00+00:00 19 MB 
[TXT]Video Wall Controllersplitter Iei Smart City Solutions2014-05-04T03:21:00+00:00 24 MB 
[TXT]Vector Mechanics For Engineers Statics 9th Edition Solution2014-05-05T00:40:00+00:00 21 MB 
[TXT]Varian Intermediate Microeconomics Solutions2014-05-05T21:59:00+00:00 23 MB 
[TXT]Viscous Fluid Flow Solutions Manual2014-05-06T19:18:00+00:00 19 MB 
[TXT]Visual Complex Analysis Solutions2014-05-07T16:37:00+00:00 19 MB 
[TXT]Vhdl For Digital Design Vahid Solution Bing2014-05-08T13:56:00+00:00 20 MB 
[TXT]Value Engineering Exam Solution2014-05-09T11:15:00+00:00 25 MB 
[TXT]Vcaa Past Exam Solutions2014-05-10T08:34:00+00:00 18 MB 
[TXT]Vector Mechanics 9th Edition Dynamics Solution2014-05-11T05:53:00+00:00 17 MB 
[TXT]Valley Publishing Company Audit Case Solutions2014-05-12T03:12:00+00:00 21 MB 
[TXT]Vector Mechanics For Engineers Dynamics 8th Edition Solutions Manual2014-05-13T00:31:00+00:00 20 MB 
[TXT]Viscous Fluid Flow Frank White Solution Manual2014-05-13T21:50:00+00:00 20 MB 
[TXT]Vector Calculus And Linear Algebra Paper Solution2014-05-14T19:09:00+00:00 18 MB 
[TXT]Verified Projection Of Solution Set Parametric Systems2014-05-15T16:28:00+00:00 19 MB 
[TXT]Vce Accounting Workbook Solutions2014-05-16T13:47:00+00:00 24 MB 
[TXT]Vector Mechanics For Engineers Statics 9th Edition Solutions Pdf2014-05-17T11:06:00+00:00 24 MB 
[TXT]Vector Mechanics Statics Solution Manual2014-05-18T08:25:00+00:00 25 MB 
[TXT]Vazirani Algorithms Solutions Manual2014-05-19T05:44:00+00:00 19 MB 
[TXT]Vhdl Solution Manual Charles Roth2014-05-20T03:03:00+00:00 25 MB 
[TXT]Virtual Solution For Microsoft Sql Server Chucks Blog2014-05-21T00:22:00+00:00 20 MB 
[TXT]Vector Mechanics Solution Manual 9th Edition2014-05-21T21:41:00+00:00 22 MB 
[TXT]Value Mapping A Strategic Performance Management Solution2014-05-22T19:00:00+00:00 18 MB 
[TXT]Vector Problems And Solutions2014-05-23T16:19:00+00:00 18 MB 
[TXT]Vector Mechanics For Engineers Dynamics 9th Solutions2014-05-24T13:38:00+00:00 18 MB 
[TXT]Vidhyarjan Solutions Class 10 Maths2014-05-25T10:57:00+00:00 18 MB 
[TXT]Vector Calculus Colley Solutions2014-05-26T08:16:00+00:00 17 MB 
[TXT]Vibrations And Waves French Solutions2014-05-27T05:35:00+00:00 22 MB 
[TXT]Vcla Paper Solution2014-05-28T02:54:00+00:00 17 MB 
[TXT]Vector Mechanics For Engineers Static Dynamic Solution2014-05-29T00:13:00+00:00 22 MB 
[TXT]Valley Publishing Company 12th Edition Solution Manual2014-05-29T21:32:00+00:00 23 MB 
[TXT]Valix Financial Accounting 2 Problems And Solutions2014-05-30T18:51:00+00:00 20 MB 
[TXT]Van Trees Detection Estimation Solution Manual2014-05-31T16:10:00+00:00 20 MB 
[TXT]Vupoint Solutions Magic Wand Portable Scanner User Manual2014-06-01T13:29:00+00:00 19 MB 
[TXT]Vector Mechanics For Engineers Dynamics Solutions Manual2014-06-02T10:48:00+00:00 17 MB 
[TXT]Vibration Of Continuous Systems Rao Solution2014-06-03T08:07:00+00:00 23 MB 
[TXT]Visual Basic Programming Challenges Solutions2014-06-04T05:26:00+00:00 21 MB 
[TXT]Viewsonic Pj556d Resolution2014-06-05T02:45:00+00:00 21 MB 
[TXT]Vollhardt Solutions Manual Download2014-06-06T00:04:00+00:00 23 MB 
[TXT]Viewpoint A Balanced View Of Solutions2014-06-06T21:23:00+00:00 23 MB 
[TXT]Vector Mechanics For Engineers Statics 10th Edition Solutions2014-06-07T18:42:00+00:00 21 MB 
[TXT]Vector Calculus Marsden Solutions Manual 20102014-06-08T16:01:00+00:00 18 MB 
[TXT]Vector Calculus Marsden Solutions Manual 6th2014-06-09T13:20:00+00:00 18 MB 
[TXT]Velux Integra Klr 200 Solutions Home2014-06-10T10:39:00+00:00 25 MB 
[TXT]Vollhardt Organic Chemistry 6th Edition Solution2014-06-11T07:58:00+00:00 20 MB 
[TXT]Verilog Hdl Samir Palnitkar Solution2014-06-12T05:17:00+00:00 20 MB 
[TXT]Vibration Of Continuous Systems Rao Solution Manual2014-06-13T02:36:00+00:00 23 MB 
[TXT]Vollhardt Organic Chemistry Solutions Manual2014-06-13T23:55:00+00:00 18 MB 
[TXT]Vector Addition Word Problems 1 Solutions2014-06-14T21:14:00+00:00 20 MB 
[TXT]Voc Exempt Solvents A Sustainable Solution For2014-06-15T18:33:00+00:00 17 MB 
[TXT]Viscous Fluid Flow Solution Manual2014-06-16T15:52:00+00:00 18 MB 
[TXT]Vector Mechanics 9th Edition Statics Beer Solution2014-06-17T13:11:00+00:00 23 MB 
[TXT]Vector Space Examples And Solutions2014-06-18T10:30:00+00:00 23 MB 
[TXT]Vector Calculus Student Study Guide With Solutions2014-06-19T07:49:00+00:00 19 MB 
[TXT]Viscous Fluid Flow White Solution Manual2014-06-20T05:08:00+00:00 24 MB 
[TXT]Voluntary Dissolution Of Not For Profit Corporations With2014-06-21T02:27:00+00:00 25 MB 
[TXT]Vs1063a Datasheet Vlsi Solution Home2014-06-21T23:46:00+00:00 20 MB 
[TXT]Verbeck Chapter 3 Solutions2014-06-22T21:05:00+00:00 25 MB 
[TXT]Volvo Emissions Solutions2014-06-23T18:24:00+00:00 21 MB 
[TXT]Vce Food Solutions Unit 1 And 22014-06-24T15:43:00+00:00 21 MB 
[TXT]Vector Analysis Spiegel Solution Manual2014-06-25T13:02:00+00:00 21 MB 
[TXT]Vtu Question Paper Solution Unit 1 Sjbit2014-06-26T10:21:00+00:00 19 MB 
[TXT]Vlsi Dsp Parhi Solutions2014-06-27T07:40:00+00:00 24 MB 
[TXT]Vector Calculus Solution To Even Answers Marsden2014-06-28T04:59:00+00:00 25 MB 
[TXT]Vbs Adsoft Solutions Ro2014-06-29T02:18:00+00:00 21 MB 
[TXT]Vector Mechanics For Engineers Dynamics Solutions 8th2014-06-29T23:37:00+00:00 25 MB 
[TXT]Vollhardt Solutions2014-06-30T20:56:00+00:00 22 MB 
[TXT]Vector Mechanics For Engineers Dynamics 9th Solutions Pdf2014-07-01T18:15:00+00:00 17 MB 
[TXT]Versacold Business Unitsend To End Supply Chain Solutions2014-07-02T15:34:00+00:00 20 MB 
[TXT]Vector Mechanics For Engineers Statics Solutions Manual2014-07-03T12:53:00+00:00 19 MB 
[TXT]Vanderbeck Accounting For Labor Solutions2014-07-04T10:12:00+00:00 23 MB 
[TXT]Vcaa Further Maths 2010 Exam 1 Solutions2014-07-05T07:31:00+00:00 25 MB 
[TXT]Vector Mechanics For Engineers Solution Manual 9th Edition2014-07-06T04:50:00+00:00 21 MB 
[TXT]Volume 11 1 Conflict And Solution Incredible But2014-07-07T02:09:00+00:00 25 MB 
[TXT]Vacancy Solution With Lutron Wired Occupancy Sensors Pp2014-07-07T23:28:00+00:00 24 MB 
[TXT]Vector Mechanics Statics 9th Solution Manual2014-07-08T20:47:00+00:00 25 MB 
[TXT]Visual Anatomy And Physiology Martini Solution Manual2014-07-09T18:06:00+00:00 19 MB 
[TXT]Vector Mechanics For Engineers Dynamics 9th Chapter 16 Solutions2014-07-10T15:25:00+00:00 22 MB 
[TXT]Velleman How To Prove It Solutions Manual2014-07-11T12:44:00+00:00 18 MB 
[TXT]Van Horne Financial Management Solution Manual2014-07-12T10:03:00+00:00 22 MB 
[TXT]Valuing Capital Investment Projects Case Solutions2014-07-13T07:22:00+00:00 23 MB 
[TXT]Villa For Sale Ncert Solutions2014-07-14T04:41:00+00:00 19 MB 
[TXT]Valencia Solutions Manual Income Tax 6th Edition2014-07-15T02:00:00+00:00 20 MB 
[TXT]Volume Licensing Guide Enrollment For Education Solutions2014-07-15T23:19:00+00:00 20 MB 
[TXT]Vapor Power Cycle Solutions2014-07-16T20:38:00+00:00 22 MB 
[TXT]Vector Mechanics Dynamics 9th Solution2014-07-17T17:57:00+00:00 18 MB 
[TXT]Vijay Garg Solution Manual Wireless Communication And Networking2014-07-18T15:16:00+00:00 19 MB 
[TXT]Vegas Pro Sony Broadcast And Business Solutions2014-07-19T12:35:00+00:00 17 MB 
[TXT]Vce Mathematical Methods Cas Worked Solutions2014-07-20T09:54:00+00:00 18 MB 
[TXT]Vcaa Accounting Exam Solutions2014-07-21T07:13:00+00:00 24 MB 
[TXT]Vblock Grc Solution With Rsa Governance Risk And2014-07-22T04:32:00+00:00 21 MB 
[TXT]Van Valkenburg Network Analysis Solution Manual2014-07-23T01:51:00+00:00 22 MB 
[TXT]Vector Mechanics For Engineers Solutions 8th Edition2014-07-23T23:10:00+00:00 17 MB 
[TXT]Vlsi Digital Signal Processing Systems Keshab K Parhi Solution Manual2014-07-24T20:29:00+00:00 20 MB 
[TXT]Valley Publishing Audit Case Solution2014-07-25T17:48:00+00:00 21 MB 
[TXT]Vector Calculus 6th Edition Solutions2014-07-26T15:07:00+00:00 22 MB 
[TXT]Volcanoes And Plate Tectonics Schoolworld An Edline Solution2014-07-27T12:26:00+00:00 20 MB 
[TXT]Vmware Presentation Clearpath Solutions Group Private2014-07-28T09:45:00+00:00 18 MB 
[TXT]Verbeek Econometrics Solutions2014-07-29T07:04:00+00:00 22 MB 
[TXT]Vector Calculus Problems Solutions2014-07-30T04:23:00+00:00 23 MB 
[TXT]Vector Mechanics Dynamics Beer 9th Edition Solutions2014-07-31T01:42:00+00:00 21 MB 
[TXT]Vector Mechanics For Engineers Dynamics Solutions Chegg2014-07-31T23:01:00+00:00 20 MB 
[TXT]Vector Calculus Study Guide Solutions Manual Frederick Soon2014-08-01T20:20:00+00:00 23 MB 
[TXT]Vmware And Dell Solutions For Small To Medium Businesses2014-08-02T17:39:00+00:00 17 MB 
[TXT]Vue Manual Problems Solutions2014-08-03T14:58:00+00:00 20 MB 
[TXT]Vibrations Waves A P French Solution Manual2014-08-04T12:17:00+00:00 21 MB 
[TXT]Vax Cleaning Solution For Power40002014-08-05T09:36:00+00:00 25 MB 
[TXT]Vector Mechanics For Engineers Dynamics 10th Edition Solutions2014-08-06T06:55:00+00:00 22 MB 
[TXT]Vector Mechanics For Engineers Dynamics 9th Edition Solutions2014-08-07T04:14:00+00:00 17 MB 
[TXT]Vector Mechanics Dynamics Solution Manual2014-08-08T01:33:00+00:00 17 MB 
[TXT]Vasek Chvatal Linear Programming Solutions2014-08-08T22:52:00+00:00 19 MB 
[TXT]Vocab Solution Reviews2014-08-09T20:11:00+00:00 23 MB 
[TXT]Varian Microeconomic Analysis Solutions2014-08-10T17:30:00+00:00 20 MB 
[TXT]Varistors Ideal Solution To Surge Protection2014-08-11T14:49:00+00:00 22 MB 
[TXT]Vectors 12 Solutions2014-08-12T12:08:00+00:00 18 MB 
[TXT]Visual Basic 2010 Solutions Manual2014-08-13T09:27:00+00:00 25 MB 
[TXT]Vector Word Problems With Solution2014-08-14T06:46:00+00:00 24 MB 
[TXT]Vector Calculus Study Guide Solutions Manual2014-08-15T04:05:00+00:00 20 MB 
[TXT]Viscous Fluid Flow White Solutions2014-08-16T01:24:00+00:00 25 MB 
[TXT]Vibration Fundamentals And Practice Solution Manual2014-08-16T22:43:00+00:00 25 MB 
[TXT]Valley Publishing Company Audit Solutions 12 Edition2014-08-17T20:02:00+00:00 18 MB 
[TXT]Visual Basics 2010 Programming Challenges Solutions2014-08-18T17:21:00+00:00 21 MB 
[TXT]Vshape Virtualization Solutions From A Single Provider2014-08-19T14:40:00+00:00 22 MB 
[TXT]Vector Mechanics Statics 10th Solution Manual2014-08-20T11:59:00+00:00 19 MB 
[TXT]Visual Basic 2012 Solutions2014-08-21T09:18:00+00:00 24 MB 
[TXT]Van Valkenburg Analog Filter Solution Manual2014-08-22T06:37:00+00:00 17 MB 
[TXT]Verizon Wireless Business Solutions2014-08-23T03:56:00+00:00 25 MB 
[TXT]Vector Calculus Marsden Tromba Solutions Manual2014-08-24T01:15:00+00:00 18 MB 
[TXT]Vable Mechanics Of Materials Solutions2014-08-24T22:34:00+00:00 19 MB 
[TXT]Vibrations And Waves King Solutions Manual2014-08-25T19:53:00+00:00 22 MB 
[TXT]Vector Mechanics For Engineers Dynamics 9th Solution Manual2014-08-26T17:12:00+00:00 25 MB 
[TXT]Verizon Repair Resolution Center Phone Number2014-08-27T14:31:00+00:00 24 MB 
[TXT]Vector Addition Problems And Solutions2014-08-28T11:50:00+00:00 25 MB 
[TXT]Viscous Fluid Flow White 3rd Edition Solution Manual2014-08-29T09:09:00+00:00 22 MB 
[TXT]Viscous Fluid Flow White Solution2014-08-30T06:28:00+00:00 24 MB 
[TXT]Vibration Of Mechanical Systems Solution Manual2014-08-31T03:47:00+00:00 20 MB 
[TXT]Venn Diagram Problem And There Solution2014-09-01T01:06:00+00:00 18 MB 
[TXT]Vlsi Digital Signal Processing Systems Solution2014-09-01T22:25:00+00:00 24 MB 
[TXT]Venn Diagram Problems And Solutions2014-09-02T19:44:00+00:00 25 MB 
[TXT]Viper Analog Modular Solutions Lan Power Systems2014-09-03T17:03:00+00:00 18 MB 
[TXT]Vector Calculus Susan Colley Solutions2014-09-04T14:22:00+00:00 25 MB 
[TXT]Vector Calculus Marsden Solutions Manual English2014-09-05T11:41:00+00:00 19 MB 
[TXT]Valix Solution Manual 20132014-09-06T09:00:00+00:00 25 MB 
[TXT]Vector Mechanics For Engineers Statics 9th Edition Solutions Chegg2014-09-07T06:19:00+00:00 19 MB 
[TXT]Voices Bett Solutions We Help Companies Maximize2014-09-08T03:38:00+00:00 24 MB 
[TXT]Vupoint Solutions Magic Wand Portable Scanner Instructions2014-09-09T00:57:00+00:00 17 MB 
[TXT]Vector Calculus Linear Algebra Gtu Paper Solution2014-09-09T22:16:00+00:00 18 MB 
[TXT]Viscous Fluid Flow Solution White2014-09-10T19:35:00+00:00 23 MB 
[TXT]Vax Cleaning Solution Argos2014-09-11T16:54:00+00:00 21 MB 
[TXT]Vibrations Solution Manual2014-09-12T14:13:00+00:00 18 MB 
[TXT]Vector Calculus Marsden Solutions 22014-09-13T11:32:00+00:00 22 MB 
[TXT]Varian Intermediate Microeconomics Solution Pdf2014-09-14T08:51:00+00:00 23 MB 
[TXT]Vector Calculus Solutions Chegg2014-09-15T06:10:00+00:00 22 MB 
[TXT]Viscous Fluid Flow White Solution Manuel Download2014-09-16T03:29:00+00:00 18 MB 
[TXT]Vibration Solutions Wheel Balancer Adapters2014-09-17T00:48:00+00:00 25 MB 
[TXT]Vector Mechanics For Engineers Statics Solution Manual2014-09-17T22:07:00+00:00 20 MB 
[TXT]Vector Algebra Ncert Solutions2014-09-18T19:26:00+00:00 19 MB 
[TXT]Visual Basic Gaddis Solution Manual2014-09-19T16:45:00+00:00 24 MB 
[TXT]Varian Resolutions Pro Manual2014-09-20T14:04:00+00:00 22 MB 
[TXT]Vahid Digital Design Solutions Manual2014-09-21T11:23:00+00:00 22 MB 
[TXT]Version History Known Issues Solutions2014-09-22T08:42:00+00:00 20 MB 
[TXT]Vector Mechanics 10th Edition Statics Beer Solution2014-09-23T06:01:00+00:00 21 MB 
[TXT]Vector Mechanics For Engineers 9th Edition Solution Manual2014-09-24T03:20:00+00:00 20 MB 
[TXT]Vector Mechanics 8th Solution Manual2014-09-25T00:39:00+00:00 20 MB 
[TXT]Vibrations And Waves Solution Manual2014-09-25T21:58:00+00:00 18 MB 
[TXT]Viscous Fluid Flow 3rd Solution Manuals White2014-09-26T19:17:00+00:00 19 MB 
[TXT]V2 Solutions Inc2014-09-27T16:36:00+00:00 23 MB 
[TXT]Virtue Cengage Learning Solutions Training2014-09-28T13:55:00+00:00 19 MB 
[TXT]Valley Publishing Company Solution2014-09-29T11:14:00+00:00 18 MB 
[TXT]Vblock Solution For A Virtualized Scalable 50000 User2014-09-30T08:33:00+00:00 23 MB 
[TXT]Valiant Solutions2014-10-01T05:52:00+00:00 21 MB 
[TXT]Visual Studio Deploy Solution2014-10-02T03:11:00+00:00 17 MB 
[TXT]Vibrations Waves Problems Solutions2014-10-03T00:30:00+00:00 25 MB 
[TXT]Vax Aaa Carpet Cleaning Solution Instructions2014-10-03T21:49:00+00:00 20 MB 
[TXT]Voet And Biochemistry Solutions Manual2014-10-04T19:08:00+00:00 19 MB 
[TXT]Vector Calculus Marsden Solution2014-10-05T16:27:00+00:00 24 MB 
[TXT]Vibrations Waves French Solutions Manual2014-10-06T13:46:00+00:00 20 MB 
[TXT]Viscous Fluid Flow Banssal Solution Manuals White2014-10-07T11:05:00+00:00 21 MB 
[TXT]Viscous Fluid Flow White Solutions Manual Free Download2014-10-08T08:24:00+00:00 21 MB 
[TXT]Vivaz Resolution2014-10-09T05:43:00+00:00 24 MB 
[TXT]Vector Analysis By Spiegel Solution2014-10-10T03:02:00+00:00 22 MB 
[TXT]Van Wylen Solutions 4th Edition2014-10-11T00:21:00+00:00 18 MB 
[TXT]Via Afrika Mathematical Literacy Grade 11 Answers2014-10-11T21:40:00+00:00 21 MB 
[TXT]Vista Higher Learning Answer Key For Text2014-10-12T18:59:00+00:00 18 MB 
[TXT]Vtech 58 Ghz Phone Answering System2014-10-13T16:18:00+00:00 20 MB 
[TXT]Vocabulary Workshop Level A Answer Key2014-10-14T13:37:00+00:00 21 MB 
[TXT]Voyage To The Planets Beyond Answers2014-10-15T10:56:00+00:00 22 MB 
[TXT]Virtual River Lab Answers2014-10-16T08:15:00+00:00 22 MB 
[TXT]Virtual River Answers Certificate2014-10-17T05:34:00+00:00 20 MB 
[TXT]Vietnam War Years Test Answers2014-10-18T02:53:00+00:00 18 MB 
[TXT]Vector Addition Worksheets With Answers2014-10-19T00:12:00+00:00 19 MB 
[TXT]Via Afrika Mathematical Literacy Grade 12 Answers2014-10-19T21:31:00+00:00 24 MB 
[TXT]Viruses And Bacteria Guided Study Answers2014-10-20T18:50:00+00:00 23 MB 
[TXT]Visual Basic Chapter 8 Answers2014-10-21T16:09:00+00:00 22 MB 
[TXT]Vegetable Maze Word Search Answers2014-10-22T13:28:00+00:00 18 MB 
[TXT]Vocabulary Workshop Answers Level F 20122014-10-23T10:47:00+00:00 25 MB 
[TXT]Va Algebra 2 Sol Review Answers2014-10-24T08:06:00+00:00 25 MB 
[TXT]Vista Higher Learning Spanish 1 Work Answers2014-10-25T05:25:00+00:00 25 MB 
[TXT]Vocabulary Answers Level E2014-10-26T02:44:00+00:00 18 MB 
[TXT]Vhl Central Spanish Supersite Answers2014-10-27T00:03:00+00:00 17 MB 
[TXT]Vocabulary Workshop Level D Answers Unit 102014-10-27T21:22:00+00:00 23 MB 
[TXT]Virtual Business Personal Finance Lesson 14 Answers2014-10-28T18:41:00+00:00 23 MB 
[TXT]Vhlcentral Answers2014-10-29T16:00:00+00:00 17 MB 
[TXT]Vodopich And Moore 10th Edition Answers2014-10-30T13:19:00+00:00 23 MB 
[TXT]Vocabulary For Achievement Fourth Course Answer Key2014-10-31T10:38:00+00:00 17 MB 
[TXT]Vhlcentral Answers Descubre2014-11-01T07:57:00+00:00 20 MB 
[TXT]Vhl Descubre 9 Lesson 4 Recapitulacion Answers2014-11-02T05:16:00+00:00 21 MB 
[TXT]Vocabulary Workshop Level D Unit 10 Answers2014-11-03T02:35:00+00:00 21 MB 
[TXT]Virtual Clinical Excursions Maternity Answer Key2014-11-03T23:54:00+00:00 25 MB 
[TXT]Vocab E Answers2014-11-04T21:13:00+00:00 17 MB 
[TXT]Virtual Evolution Stickleback Lab Answer Key2014-11-05T18:32:00+00:00 20 MB 
[TXT]Vtech Phone Answering Machine2014-11-06T15:51:00+00:00 22 MB 
[TXT]Variation Of Acceleration On Earth Answer Key2014-11-07T13:10:00+00:00 19 MB 
[TXT]Vhlcentral Panorama Answers2014-11-08T10:29:00+00:00 25 MB 
[TXT]Vocabulary Workshop Level G Unit 7 Answers2014-11-09T07:48:00+00:00 23 MB 
[TXT]Vhl Central Supersite Answer Key Descubre 22014-11-10T05:07:00+00:00 22 MB 
[TXT]Vhlcentral Answer Key Leccion 5 Prueba2014-11-11T02:26:00+00:00 21 MB 
[TXT]Vocabulary Workshop Answers Level B Unit 12014-11-11T23:45:00+00:00 20 MB 
[TXT]Vadets Answer Key2014-11-12T21:04:00+00:00 19 MB 
[TXT]Vocabulary Workshop Level H Unit 2 Answers2014-11-13T18:23:00+00:00 24 MB 
[TXT]Vistas Spanish Answers Website2014-11-14T15:42:00+00:00 22 MB 
[TXT]Vocabulary From Latin And Greek Roots Unit 5 Answer Key2014-11-15T13:01:00+00:00 21 MB 
[TXT]Vistas 4th Edition Workbook Answer Key Online2014-11-16T10:20:00+00:00 22 MB 
[TXT]Vocabulary Workshop Review Units 10 12 Answers2014-11-17T07:39:00+00:00 20 MB 
[TXT]Vocabulary Workshop Review Unit Answers Level G2014-11-18T04:58:00+00:00 18 MB 
[TXT]Vocabulary Activity 4 Federal System Answers2014-11-19T02:17:00+00:00 24 MB 
[TXT]Vocabulario A Level1 194 198 Answers2014-11-19T23:36:00+00:00 19 MB 
[TXT]Vocab Book B Answers2014-11-20T20:55:00+00:00 17 MB 
[TXT]Vocab C Answers2014-11-21T18:14:00+00:00 24 MB 
[TXT]Vocabulary Quiz A Answer Key Meiosis2014-11-22T15:33:00+00:00 21 MB 
[TXT]Vista Higher Learning Leccion 7 Answer Key2014-11-23T12:52:00+00:00 18 MB 
[TXT]Vocabulary Power Plus Lesson 8 Answer Key2014-11-24T10:11:00+00:00 21 MB 
[TXT]Virtual Business Personal Finance Answer Key 132014-11-25T07:30:00+00:00 18 MB 
[TXT]Vtech 2 Line Cordless Phone With Answering Machine2014-11-26T04:49:00+00:00 19 MB 
[TXT]Vistas Workbook Answers Page 631 32014-11-27T02:08:00+00:00 19 MB 
[TXT]Vista Supersite Answer Key2014-11-27T23:27:00+00:00 19 MB 
[TXT]Vocab Workshop Level F Answers2014-11-28T20:46:00+00:00 23 MB 
[TXT]Virtual Learning Academy Cp Geometry Answers2014-11-29T18:05:00+00:00 24 MB 
[TXT]Vhlcentral Lesson 7 And 8 Answers2014-11-30T15:24:00+00:00 23 MB 
[TXT]Vlsi Interview Questions With Answers2014-12-01T12:43:00+00:00 22 MB 
[TXT]Vocabulary Workshop First Course Answers2014-12-02T10:02:00+00:00 24 MB 
[TXT]Vistas Answer Key For Workbook2014-12-03T07:21:00+00:00 18 MB 
[TXT]Vocabulary Workshop Level E Review Units 1 3 Answers2014-12-04T04:40:00+00:00 18 MB 
[TXT]Vocabulary Workshop Level D Unit 7 Answers Key2014-12-05T01:59:00+00:00 18 MB 
[TXT]Vocabulary From Classical Roots D Answers2014-12-05T23:18:00+00:00 17 MB 
[TXT]Vocabulary Review Mendel Heredity Answer Key2014-12-06T20:37:00+00:00 25 MB 
[TXT]Vector Basics Cstephenmurray Answers Free Ebook2014-12-07T17:56:00+00:00 23 MB 
[TXT]Vista Higher Learning Leccion 9 Workbook Answers2014-12-08T15:15:00+00:00 21 MB 
[TXT]Vocab Workshop Level C Answers2014-12-09T12:34:00+00:00 20 MB 
[TXT]Vocabulary And Spelling Book Mcdougal Littell Answers2014-12-10T09:53:00+00:00 25 MB 
[TXT]Vistas Spanish Workbook 4th Edition Answer Key2014-12-11T07:12:00+00:00 20 MB 
[TXT]Vision2learn Business And Admin Assessment 4 Answers2014-12-12T04:31:00+00:00 25 MB 
[TXT]Vhlcentral Answer Key Spanish 1 Lesson 82014-12-13T01:50:00+00:00 20 MB 
[TXT]Vocabulary Workshop Level F Unit 13 Answers2014-12-13T23:09:00+00:00 25 MB 
[TXT]Verizon Answering Machine Manual2014-12-14T20:28:00+00:00 20 MB 
[TXT]Vista Work Answer Key2014-12-15T17:47:00+00:00 21 MB 
[TXT]Vocabulary For College Bound Student Answers2014-12-16T15:06:00+00:00 24 MB 
[TXT]Virtual Cell Worksheet Answer Key Wisconsin Rapids2014-12-17T12:25:00+00:00 22 MB 
[TXT]Vocabulary Workshop Enriched Edition Level G Answer Key2014-12-18T09:44:00+00:00 22 MB 
[TXT]Vhlcentral Spanish 1 Answer Key Viva2014-12-19T07:03:00+00:00 22 MB 
[TXT]Vocabulary Workshop Level C Unit 5 Answers Synonyms2014-12-20T04:22:00+00:00 18 MB 
[TXT]Vocabulary Workshop Unit 5 Answers2014-12-21T01:41:00+00:00 23 MB 
[TXT]Vhl Central Websam Answers Leccion 62014-12-21T23:00:00+00:00 18 MB 
[TXT]Voyages In English Grade 8 Answers2014-12-22T20:19:00+00:00 20 MB 
[TXT]Ven Conmigo Level 3 Answers2014-12-23T17:38:00+00:00 17 MB 
[TXT]Vocabulary Activity 23 War And Revolution Answers2014-12-24T14:57:00+00:00 20 MB 
[TXT]Visual Art Answers For 2014 Waec2014-12-25T12:16:00+00:00 22 MB 
[TXT]Vista Higher Learning Work Answers Leccion 42014-12-26T09:35:00+00:00 23 MB 
[TXT]Vista Workbook Answer Key Leccion 72014-12-27T06:54:00+00:00 18 MB 
[TXT]Vita Tce Certification Test Answers2014-12-28T04:13:00+00:00 20 MB 
[TXT]Vocabulary Workshop Level Blue Unit 16 Answers2014-12-29T01:32:00+00:00 19 MB 
[TXT]Veterinary Medicine Questions And Answers2014-12-29T22:51:00+00:00 17 MB 
[TXT]Viva Question From Sonometer With Answer2014-12-30T20:10:00+00:00 21 MB 
[TXT]Vocabulary Workshop Level C Answers2014-12-31T17:29:00+00:00 21 MB 
[TXT]Votre Tour Answer Key2015-01-01T14:48:00+00:00 18 MB 
[TXT]Vistas Spanish Homework Answers2015-01-02T12:07:00+00:00 22 MB 
[TXT]Vocabulary From Latin And Greek Roots Unit 3 Answers2015-01-03T09:26:00+00:00 20 MB 
[TXT]Vocabulary Builder Course 4 Answers2015-01-04T06:45:00+00:00 24 MB 
[TXT]Visions Of Americas Past Answers2015-01-05T04:04:00+00:00 18 MB 
[TXT]Vocabulary Workshop Answers Level F Enriched Edition2015-01-06T01:23:00+00:00 23 MB 
[TXT]Video Quiz 6 Biomes Answers2015-01-06T22:42:00+00:00 24 MB 
[TXT]Vernier Series And Parallel Circuits Lab Answers2015-01-07T20:01:00+00:00 21 MB 
[TXT]Vocabulary Workshop Answers Level E2015-01-08T17:20:00+00:00 23 MB 
[TXT]Vertebrate Skeletons Lab Answers2015-01-09T14:39:00+00:00 18 MB 
[TXT]Vtech Digital Answering System Dect 60 Manual2015-01-10T11:58:00+00:00 21 MB 
[TXT]Vocabulary Workshop Answers Level B Unit 22015-01-11T09:17:00+00:00 17 MB 
[TXT]Vocabulary Workshop Answers Unit D2015-01-12T06:36:00+00:00 23 MB 
[TXT]Vocabulary For The College Bound Student Answers Chapter 32015-01-13T03:55:00+00:00 19 MB 
[TXT]Va Disability Questions And Answers2015-01-14T01:14:00+00:00 23 MB 
[TXT]Viruses Bacteria Answer Key2015-01-14T22:33:00+00:00 20 MB 
[TXT]Vhlcentral Answer Key French 12015-01-15T19:52:00+00:00 25 MB 
[TXT]Vistas 4th Edition Websam Answer Key Free2015-01-16T17:11:00+00:00 24 MB 
[TXT]Valix Answer Key2015-01-17T14:30:00+00:00 17 MB 
[TXT]Volleyball Trivia Questions And Answers2015-01-18T11:49:00+00:00 18 MB 
[TXT]Vistas Spanish Workbook Answer Key Lesson 92015-01-19T09:08:00+00:00 18 MB 
[TXT]Vocabulary Workshop Test Answers Level B2015-01-20T06:27:00+00:00 18 MB 
[TXT]Vocabulary For Achievement Third Course Answers2015-01-21T03:46:00+00:00 21 MB 
[TXT]Virtual Evolution Stickleback Lab Answers2015-01-22T01:05:00+00:00 23 MB 
[TXT]Vaccines Webquest Answers2015-01-22T22:24:00+00:00 24 MB 
[TXT]Vlsi Lab Viva Questions Answers2015-01-23T19:43:00+00:00 23 MB 
[TXT]Vocabulary Level H Unit 2 Answers2015-01-24T17:02:00+00:00 18 MB 
[TXT]Vista Higher Learning Daccord 1 Answers French2015-01-25T14:21:00+00:00 18 MB 
[TXT]Vhlcentral Descubre 2 Answer Key2015-01-26T11:40:00+00:00 24 MB 
[TXT]Virtual Business Sports Answers Lesson 52015-01-27T08:59:00+00:00 22 MB 
[TXT]Visual Basic Question And Answer2015-01-28T06:18:00+00:00 22 MB 
[TXT]Vocabulary Activity 17 Answer Key2015-01-29T03:37:00+00:00 25 MB 
[TXT]Vsepr Practice Worksheet With Answers2015-01-30T00:56:00+00:00 19 MB 
[TXT]Variation And Gene Pools Answer Key2015-01-30T22:15:00+00:00 25 MB 
[TXT]Vocabulary Review Mendel And Heredity Answer Key2015-01-31T19:34:00+00:00 24 MB 
[TXT]Vocabulary Workshop Review Units 10 12 Answers Level B2015-02-01T16:53:00+00:00 20 MB 
[TXT]Vale Middle School Article Answers2015-02-02T14:12:00+00:00 23 MB 
[TXT]Video Activities Answer Key Vocabulario2015-02-03T11:31:00+00:00 23 MB 
[TXT]Vocabulary Workshop Level D Answers Unit 1 Choosing Right Word2015-02-04T08:50:00+00:00 24 MB 
[TXT]Visual Basic 2010 Answer Key2015-02-05T06:09:00+00:00 20 MB 
[TXT]Vocabulary Power Plus For The Act Book 1 Answer Key2015-02-06T03:28:00+00:00 24 MB 
[TXT]Visualization Exercise For The Reproductive System Answers2015-02-07T00:47:00+00:00 20 MB 
[TXT]Vlsm Workbook V2 Answers2015-02-07T22:06:00+00:00 20 MB 
[TXT]Vista Leccion 4 Workbook Estructure Answer Key2015-02-08T19:25:00+00:00 22 MB 
[TXT]Vocabulary Skills Environmental Enigma Answers2015-02-09T16:44:00+00:00 22 MB 
[TXT]Vistas Spanish Work Answers2015-02-10T14:03:00+00:00 17 MB 
[TXT]Virtual Blood Typing Lab Answer Key2015-02-11T11:22:00+00:00 25 MB 
[TXT]Vocabulary Packets Greek Roots Answers2015-02-12T08:41:00+00:00 22 MB 
[TXT]Vistas 4th Edition Chapter 6 Answer Key2015-02-13T06:00:00+00:00 25 MB 
[TXT]Vadets Workbook Answers2015-02-14T03:19:00+00:00 17 MB 
[TXT]Vhlcentral Answers Leccion 42015-02-15T00:38:00+00:00 23 MB 
[TXT]Vocabulary Workshop Common Core Enriched Edition Answers Level G2015-02-15T21:57:00+00:00 17 MB 
[TXT]Vlsi Design Questions And Answers2015-02-16T19:16:00+00:00 18 MB 
[TXT]Vocabulary Workshop Unit 8 Answers2015-02-17T16:35:00+00:00 18 MB 
[TXT]Vocab Workshop Answers Level C2015-02-18T13:54:00+00:00 24 MB 
[TXT]Virtual Business Personal Finance Lesson 3 Answers2015-02-19T11:13:00+00:00 17 MB 
[TXT]Virgnia End Of Course Geometry Answer Key2015-02-20T08:32:00+00:00 25 MB 
[TXT]Virtual Lab Types Of Chemical Reactions Answers2015-02-21T05:51:00+00:00 25 MB 
[TXT]Verbal Irony Worksheets And Answers2015-02-22T03:10:00+00:00 18 MB 
[TXT]Vocabulary Workshop Level C Answers Unit 12015-02-23T00:29:00+00:00 23 MB 
[TXT]Vocabulary Workshop Level G Unit 11 Answers2015-02-23T21:48:00+00:00 22 MB 
[TXT]Virtual River Flooding Lab Answers Key2015-02-24T19:07:00+00:00 23 MB 
[TXT]Visual Basic Objective Type Questions And Answers2015-02-25T16:26:00+00:00 23 MB 
[TXT]Virus Webquest Doc Answer Key2015-02-26T13:45:00+00:00 24 MB 
[TXT]Vce Lesson 14 Question And Answer Bing2015-02-27T11:04:00+00:00 23 MB 
[TXT]Vocabulary Workshop Answers D2015-02-28T08:23:00+00:00 21 MB 
[TXT]Volcano Webquest Answers National Geographic2015-03-01T05:42:00+00:00 19 MB 
[TXT]Vita Basic Exam Answers2015-03-02T03:01:00+00:00 21 MB 
[TXT]Volumetric Analysis Lab Report Answers Of Vinegar2015-03-03T00:20:00+00:00 18 MB 
[TXT]Vadets Workbook Answers Module 22015-03-03T21:39:00+00:00 17 MB 
[TXT]Vistas Leccion 7 Answer Key2015-03-04T18:58:00+00:00 24 MB 
[TXT]Vocabulary Workshop Level E Unit 14 Answers2015-03-05T16:17:00+00:00 17 MB 
[TXT]Vietnam War Worksheet Answer2015-03-06T13:36:00+00:00 20 MB 
[TXT]Variables And Patterns Ace Answers2015-03-07T10:55:00+00:00 19 MB 
[TXT]Variation Of Traits Lab Answer Key2015-03-08T08:14:00+00:00 23 MB 
[TXT]Vocabulary Workshop Level G Answers Unit 42015-03-09T05:33:00+00:00 17 MB 
[TXT]Vhlcentral Answers Spanish Lesson 42015-03-10T02:52:00+00:00 20 MB 
[TXT]Vistas Leccion 3 Answers2015-03-11T00:11:00+00:00 23 MB 
[TXT]Vergil Work Answers2015-03-11T21:30:00+00:00 22 MB 
[TXT]Vocabulary From Classical Roots Book E Answers2015-03-12T18:49:00+00:00 19 MB 
[TXT]Visual Basic Questions And Answers2015-03-13T16:08:00+00:00 24 MB 
[TXT]Vocabulary Workshop Level Orange Answers2015-03-14T13:27:00+00:00 19 MB 
[TXT]Vocabulary From Classical Roots A Answers2015-03-15T10:46:00+00:00 19 MB 
[TXT]Vistas Spanish Test Answers2015-03-16T08:05:00+00:00 17 MB 
[TXT]Vocabulary Practice 23 Commonly Misused Words Answers2015-03-17T05:24:00+00:00 21 MB 
[TXT]Vocabulary Unit 4 Answers2015-03-18T02:43:00+00:00 18 MB 
[TXT]Vistas Supersite Leccion 10 Answers2015-03-19T00:02:00+00:00 17 MB 
[TXT]Virtual Ripple Tank Lab Answers2015-03-19T21:21:00+00:00 21 MB 
[TXT]Veitnam War Era Section 4 Quiz Answers2015-03-20T18:40:00+00:00 18 MB 
[TXT]Vocabulary Workshop Level C Review Units 1 3 Answers2015-03-21T15:59:00+00:00 19 MB 
[TXT]Vocabulary Workshop New Edition Answers2015-03-22T13:18:00+00:00 18 MB 
[TXT]Very Easy Quiz Questions And Answers2015-03-23T10:37:00+00:00 23 MB 
[TXT]Vocabulary Level D Answers Homework Hawk2015-03-24T07:56:00+00:00 17 MB 
[TXT]Virtual Chemlab 25 Answers2015-03-25T05:15:00+00:00 25 MB 
[TXT]Vocab Workshop Level F Unit 3 Answers2015-03-26T02:34:00+00:00 22 MB 
[TXT]Virtual Medical Office Mountain View Clinic Answers2015-03-26T23:53:00+00:00 24 MB 
[TXT]Vocabulary From Latin And Greek Roots Unit 4 Answers2015-03-27T21:12:00+00:00 20 MB 
[TXT]Vhlcentral Answers Leccion 52015-03-28T18:31:00+00:00 24 MB 
[TXT]Vistas Workbook Answer Key Online2015-03-29T15:50:00+00:00 19 MB 
[TXT]Virtual Lab Precipitation Reactions Answers2015-03-30T13:09:00+00:00 22 MB 
[TXT]Vistas Fourth Edition Workbook Answers2015-03-31T10:28:00+00:00 25 MB 
[TXT]Vtech Cordless Phone Answering Machine2015-04-01T07:47:00+00:00 17 MB 
[TXT]Vocabulary Workshop Level F Review Units 13 15 Answers2015-04-02T05:06:00+00:00 23 MB 
[TXT]Vista Higher Learning Supersite Answer Key2015-04-03T02:25:00+00:00 20 MB 
[TXT]Vistas 3 E Lab Manual Answer Key2015-04-03T23:44:00+00:00 19 MB 
[TXT]Ven Conmigo Level 2 Answers2015-04-04T21:03:00+00:00 21 MB 
[TXT]Vista Higher Learning Descubre 2 Work Answers2015-04-05T18:22:00+00:00 20 MB 
[TXT]Vocabulary For College Bound Students Answer2015-04-06T15:41:00+00:00 23 MB 
[TXT]Virtual Momentum Lab Answers2015-04-07T13:00:00+00:00 18 MB 
[TXT]Vocabulary Activity 12 Supreme Court Decision Making Answers2015-04-08T10:19:00+00:00 17 MB 
[TXT]Vadriveredu Answers2015-04-09T07:38:00+00:00 25 MB 
[TXT]Vocabulary Classical Roots E Answers2015-04-10T04:57:00+00:00 17 MB 
[TXT]Visual Art Answers Waec 20142015-04-11T02:16:00+00:00 20 MB 
[TXT]Vocabulary Biology Answers2015-04-11T23:35:00+00:00 19 MB 
[TXT]Vocabulary Workshop Level E Unit 14 Answer Key2015-04-12T20:54:00+00:00 17 MB 
[TXT]Vocabulary From Classical Roots Answers Answer Key2015-04-13T18:13:00+00:00 25 MB 
[TXT]Vocab Unit 9 Level E Answers2015-04-14T15:32:00+00:00 20 MB 
[TXT]Virtual Business Lessoons Answers2015-04-15T12:51:00+00:00 18 MB 
[TXT]Vocabulary Workshop Level G Unit 10 Answers2015-04-16T10:10:00+00:00 20 MB 
[TXT]Velocity And Acceleration Calculation Worksheet Answers2015-04-17T07:29:00+00:00 22 MB 
[TXT]Vocabulary Workshop Test Answers Level F2015-04-18T04:48:00+00:00 20 MB 
[TXT]Vista Supersite Leccion 4 Answers Workbook2015-04-19T02:07:00+00:00 22 MB 
[TXT]Vhlcentral Spanish Answer Key2015-04-19T23:26:00+00:00 19 MB 
[TXT]Viruses And Prokaryotes Workbook A Answers2015-04-20T20:45:00+00:00 20 MB 
[TXT]Vocabulary Workshop Level E Final Mastery Test Answers2015-04-21T18:04:00+00:00 21 MB 
[TXT]Vhlcentral Answers Spanish Leccion 12015-04-22T15:23:00+00:00 25 MB 
[TXT]Viruses Bacteria Protists And Fungi Test Answers2015-04-23T12:42:00+00:00 18 MB 
[TXT]Vocabulary Workshop Sixth Course Answers2015-04-24T10:01:00+00:00 25 MB 
[TXT]Viruses And Bacteria Biology Study Guide Answers2015-04-25T07:20:00+00:00 23 MB 
[TXT]Vocabulary Workshop Level C Answers Common Core Enriched Edition2015-04-26T04:39:00+00:00 21 MB 
[TXT]Vocabulary Workshop Level F Unit 7 Answers2015-04-27T01:58:00+00:00 22 MB 
[TXT]Virtual River Answer Key2015-04-27T23:17:00+00:00 22 MB 
[TXT]Vocabulary Practice 4 Prefixes Answers2015-04-28T20:36:00+00:00 21 MB 
[TXT]Vtech 58 Answering Machine Code2015-04-29T17:55:00+00:00 19 MB 
[TXT]Vocabulary Workshop Level B Answers Unit 112015-04-30T15:14:00+00:00 17 MB 
[TXT]Visualization Exercise For The Blood Answers2015-05-01T12:33:00+00:00 24 MB 
[TXT]Variables And Expressions Answers2015-05-02T09:52:00+00:00 24 MB 
[TXT]Vocabulary Level D Questions Answers2015-05-03T07:11:00+00:00 20 MB 
[TXT]Vocabulary Workshop Level D Unit 11 Answers Homework Hawk2015-05-04T04:30:00+00:00 21 MB 
[TXT]Vocabulary Review Answers Acid Bases And Salts2015-05-05T01:49:00+00:00 17 MB 
[TXT]Vhlcentral Activity Answers Spanish2015-05-05T23:08:00+00:00 21 MB 
[TXT]Vista Higher Learning Answers French2015-05-06T20:27:00+00:00 20 MB 
[TXT]Vocabulary For The High School Student Answer Key2015-05-07T17:46:00+00:00 17 MB 
[TXT]Vhl Central Answers Aventuras Fourth2015-05-08T15:05:00+00:00 24 MB 
[TXT]Vocabulary Workshop Second Course Analogies Answers2015-05-09T12:24:00+00:00 23 MB 
[TXT]Virtual River Flooding Lab Answers2015-05-10T09:43:00+00:00 17 MB 
[TXT]Vocabulary For The College Bound Student Answers2015-05-11T07:02:00+00:00 24 MB 
[TXT]Vhl Central Workbook Answers2015-05-12T04:21:00+00:00 18 MB 
[TXT]Vtech 60 Digital Answering System2015-05-13T01:40:00+00:00 19 MB 
[TXT]Vocabulary Workshop Enriched Edition Level E Answer Key2015-05-13T22:59:00+00:00 18 MB 
[TXT]Vsepr Theory Practice Problems And Answers2015-05-14T20:18:00+00:00 23 MB 
[TXT]Vocabulary Workshop Level E Unit 9 Answers2015-05-15T17:37:00+00:00 22 MB 
[TXT]Vhlcentral Answers Leccion 62015-05-16T14:56:00+00:00 23 MB 
[TXT]Virtual Business Lesson 3 Answers2015-05-17T12:15:00+00:00 17 MB 
[TXT]Vhl Central Spanish Answer Key2015-05-18T09:34:00+00:00 17 MB 
[TXT]Veideretti Cabinets Evaluation Answers2015-05-19T06:53:00+00:00 19 MB 
[TXT]Vista Higher Learning Ap Spanish Answer Key2015-05-20T04:12:00+00:00 25 MB 
[TXT]Vista Higher Learning Answers2015-05-21T01:31:00+00:00 19 MB 
[TXT]Viva Questions And Answers On Fet2015-05-21T22:50:00+00:00 18 MB 
[TXT]Vocabulary Power Plus 3 Answers Exercise 1 Lesson 22015-05-22T20:09:00+00:00 23 MB 
[TXT]Vibrations And Waves In Physics Answer Key2015-05-23T17:28:00+00:00 23 MB 
[TXT]Vale Middle School Article Answer Key2015-05-24T14:47:00+00:00 23 MB 
[TXT]Vista Spanish Activity 2 Answers2015-05-25T12:06:00+00:00 20 MB 
[TXT]Volume And Surface Area Worksheets With Answers2015-05-26T09:25:00+00:00 19 MB 
[TXT]Vhlcentral Answers Leccion 82015-05-27T06:44:00+00:00 17 MB 
[TXT]Vlsi Design Interview Questions Answers2015-05-28T04:03:00+00:00 20 MB 
[TXT]Viviana Answer Key2015-05-29T01:22:00+00:00 17 MB 
[TXT]Velocity Worksheet With Answer Key2015-05-29T22:41:00+00:00 24 MB 
[TXT]Vlsm Questions And Answers2015-05-30T20:00:00+00:00 24 MB 
[TXT]Voyages In English Grade 7 Answers2015-05-31T17:19:00+00:00 22 MB 
[TXT]Visualization Exercise For The Digestive System Answers2015-06-01T14:38:00+00:00 24 MB 
[TXT]Vocabulary Power Plus Book 2 Answer Key Online2015-06-02T11:57:00+00:00 19 MB 
[TXT]Vocabulario 1 Gramatica Packet Answers2015-06-03T09:16:00+00:00 17 MB 
[TXT]Vocabulary Workshop Answer Key Level C2015-06-04T06:35:00+00:00 25 MB 
[TXT]Velocity Worksheet 3 1 Answers2015-06-05T03:54:00+00:00 18 MB 
[TXT]Visual Art Answer Waec 20142015-06-06T01:13:00+00:00 23 MB 
[TXT]Vocabulary Workshop Answer Key Download2015-06-06T22:32:00+00:00 17 MB 
[TXT]Viva Questions With Answers2015-06-07T19:51:00+00:00 25 MB 
[TXT]Virtual Earthquake Lab Answer Key2015-06-08T17:10:00+00:00 24 MB 
[TXT]Vocabulary Workshop Unit 3 Answers2015-06-09T14:29:00+00:00 19 MB 
[TXT]Volcanoes Section 2 Reinforcement Answers2015-06-10T11:48:00+00:00 18 MB 
[TXT]Vocab Workshop Level E Unit 9 Answers2015-06-11T09:07:00+00:00 21 MB 
[TXT]Vlsi Design Two Marks With Answers2015-06-12T06:26:00+00:00 24 MB 
[TXT]Vhlcentral Answers Descubre La Salud2015-06-13T03:45:00+00:00 25 MB 
[TXT]Vocabulary Drills Jamestown Answer Key2015-06-14T01:04:00+00:00 22 MB 
[TXT]Vocabulary C College Bound Answer2015-06-14T22:23:00+00:00 25 MB 
[TXT]Vocabulary Workshop Level B Answers Unit 62015-06-15T19:42:00+00:00 18 MB 
[TXT]Vhl Central French Answer Key2015-06-16T17:01:00+00:00 21 MB 
[TXT]Vocabulary Workshop Level C Answers Unit 32015-06-17T14:20:00+00:00 18 MB 
[TXT]Vocabulary Workshop Level C Unit 5 Completing The Sentence Answers2015-06-18T11:39:00+00:00 19 MB 
[TXT]Vmware Scenario Based Interview Questions And Answers2015-06-19T08:58:00+00:00 18 MB 
[TXT]Vectors Ib Exam Questions Answers2015-06-20T06:17:00+00:00 24 MB 
[TXT]Vista Higher Learning Workbook Answers2015-06-21T03:36:00+00:00 25 MB 
[TXT]Vistas 4th Edition Workbook Answer Key2015-06-22T00:55:00+00:00 21 MB 
[TXT]Vocabulary Workshop Level D Unit 1 Answer Key2015-06-22T22:14:00+00:00 17 MB 
[TXT]Vocabulary Workshop Answers Level F 20132015-06-23T19:33:00+00:00 17 MB 
[TXT]Virtual Business Insurance Lesson 18 Answers2015-06-24T16:52:00+00:00 25 MB 
[TXT]Vocab Level D Review Answers2015-06-25T14:11:00+00:00 18 MB 
[TXT]Vocabulary Questions And Answers2015-06-26T11:30:00+00:00 24 MB 
[TXT]Vhlcentral Leccion 5 Prueba A Answers2015-06-27T08:49:00+00:00 23 MB 
[TXT]Vocabulary Workshop Second Course Answers2015-06-28T06:08:00+00:00 23 MB 
[TXT]Virtual Business Sports And Entertainment Sponsorship Answers2015-06-29T03:27:00+00:00 23 MB 
[TXT]Volume And Surface Area Independent Practice Answers2015-06-30T00:46:00+00:00 17 MB 
[TXT]Vocabulary For Achievement Introductory Course Answer Key2015-06-30T22:05:00+00:00 23 MB 
[TXT]Vocab Unit 10 Answers Latin And Greek2015-07-01T19:24:00+00:00 22 MB 
[TXT]Vibrations And Waves Answers2015-07-02T16:43:00+00:00 18 MB 
[TXT]Vhl Enfoques Answers2015-07-03T14:02:00+00:00 21 MB 
[TXT]Vao Exam 2013 Answer Key2015-07-04T11:21:00+00:00 22 MB 
[TXT]Vista Higher Learning French Supersite Answers2015-07-05T08:40:00+00:00 18 MB 
[TXT]View Of The Cell Reinforcement Answers2015-07-06T05:59:00+00:00 19 MB 
[TXT]Viva Questions And Answers From Hdl2015-07-07T03:18:00+00:00 24 MB 
[TXT]Vocabulary From Classical Roots E Answer Key2015-07-08T00:37:00+00:00 20 MB 
[TXT]Vhl Central Answers2015-07-08T21:56:00+00:00 24 MB 
[TXT]Vocabulary Workshop Level G Answers Unit 62015-07-09T19:15:00+00:00 23 MB 
[TXT]Vitamindz Science Booklet Answers2015-07-10T16:34:00+00:00 19 MB 
[TXT]Virtual Rat Endocrine Lab Answers2015-07-11T13:53:00+00:00 20 MB 
[TXT]Virtual Business Lesson 4 Answer Key2015-07-12T11:12:00+00:00 22 MB 
[TXT]Vocabulary Workshop Answers Thirdcourse Lesson 302015-07-13T08:31:00+00:00 20 MB 
[TXT]Virtual Pond Dip Answer Key2015-07-14T05:50:00+00:00 25 MB 
[TXT]Vocabulary Practice Answers The Tree Of Life2015-07-15T03:09:00+00:00 24 MB 
[TXT]Vhl Central Descubre 2 Answers2015-07-16T00:28:00+00:00 23 MB 
[TXT]Vistas Spanish Workbook Answer Key Lesson 52015-07-16T21:47:00+00:00 17 MB 
[TXT]Vocabulary Builder Course 6 Answers2015-07-17T19:06:00+00:00 22 MB 
[TXT]Vocab Level B Answers2015-07-18T16:25:00+00:00 23 MB 
[TXT]Vhl Central French Espaces Answers Unite 102015-07-19T13:44:00+00:00 22 MB 
[TXT]Vista 4th Edition Workbook Answer Key2015-07-20T11:03:00+00:00 23 MB 
[TXT]Vtech Dect 60 Answering Machine Setup2015-07-21T08:22:00+00:00 23 MB 
[TXT]Vao Exam Answer Key 20142015-07-22T05:41:00+00:00 21 MB 
[TXT]Virtual Lab Nutrition Answers2015-07-23T03:00:00+00:00 25 MB 
[TXT]Vsepr Theory Practice With Answers2015-07-24T00:19:00+00:00 22 MB 
[TXT]Vocabulario B Talk About Your School Answers2015-07-24T21:38:00+00:00 19 MB 
[TXT]Virtual Answering Service Companies2015-07-25T18:57:00+00:00 23 MB 
[TXT]Vmware Vsphere Question And Answer2015-07-26T16:16:00+00:00 19 MB 
[TXT]Verbals Worksheets And Answer Key2015-07-27T13:35:00+00:00 19 MB 
[TXT]Vocabulary Workshop Unit Review Answers2015-07-28T10:54:00+00:00 20 MB 
[TXT]Vocab Workshop Level D Unit 10 Answers2015-07-29T08:13:00+00:00 25 MB 
[TXT]Vocabulary Crossword A Raisin In The Sun Answers2015-07-30T05:32:00+00:00 21 MB 
[TXT]Vistas 2 Spanish Supersite Answers2015-07-31T02:51:00+00:00 25 MB 
[TXT]Vocabulary The Theory Of Evolution Answer Key2015-08-01T00:10:00+00:00 22 MB 
[TXT]Vocab Level G Unit 14 Answers2015-08-01T21:29:00+00:00 22 MB 
[TXT]Vanellism Biology Test Answers2015-08-02T18:48:00+00:00 18 MB 
[TXT]Vocabulary Workshop Level C Unit 5 Answers2015-08-03T16:07:00+00:00 21 MB 
[TXT]Vbscript Objective Questions And Answers2015-08-04T13:26:00+00:00 25 MB 
[TXT]Vhlcentral Answer Key Spanish 2 Lesson 52015-08-05T10:45:00+00:00 17 MB 
[TXT]Vistas Work Answer Key2015-08-06T08:04:00+00:00 19 MB 
[TXT]Vocabulary From Latin And Greek Roots Unit 2 Answers Key2015-08-07T05:23:00+00:00 19 MB 
[TXT]Vocabulary For The High School Student Amsco Answers2015-08-08T02:42:00+00:00 21 MB 
[TXT]Vocabulary Workshop Unit D Answers2015-08-09T00:01:00+00:00 24 MB 
[TXT]Virtual Business Math Quiz Answers2015-08-09T21:20:00+00:00 23 MB 
[TXT]Voice Lessons Nancy Dean Activities Answers2015-08-10T18:39:00+00:00 20 MB 
[TXT]Voyages In English Grade 6 Answers2015-08-11T15:58:00+00:00 22 MB 
[TXT]Vocabulary Workshop Level E Unit 1 Answer Key2015-08-12T13:17:00+00:00 20 MB 
[TXT]Vocabulary Workshop Level F Unit 1 3 Review Answers2015-08-13T10:36:00+00:00 20 MB 
[TXT]Virtual Business Lesson 14 Answer Key2015-08-14T07:55:00+00:00 19 MB 
[TXT]Verbal Reasoning Aptitude Test With Answers2015-08-15T05:14:00+00:00 18 MB 
[TXT]Virtual Dating Radiocarbon Answers2015-08-16T02:33:00+00:00 17 MB 
[TXT]Vocabulario 2 Capitulo 7 Answers2015-08-16T23:52:00+00:00 17 MB 
[TXT]Vietnam War Answers2015-08-17T21:11:00+00:00 25 MB 
[TXT]Vistas 4th Websam Answers2015-08-18T18:30:00+00:00 22 MB 
[TXT]Vtech Answering Machine Problem2015-08-19T15:49:00+00:00 17 MB 
[TXT]Vadets Module 4 Answers2015-08-20T13:08:00+00:00 21 MB 
[TXT]Vocab Level C Answers2015-08-21T10:27:00+00:00 24 MB 
[TXT]Vocabulary Workshop Answers Unit 12015-08-22T07:46:00+00:00 23 MB 
[TXT]Vocabulary Power Workbook Grade 8 Answers2015-08-23T05:05:00+00:00 24 MB 
[TXT]Vocab Workshop Unit 13 Answers2015-08-24T02:24:00+00:00 17 MB 
[TXT]Vocabulary Workshop Answers Level C Review Units 1 32015-08-24T23:43:00+00:00 17 MB 
[TXT]Vocabulary Workshop Level A Unit 10 Answers2015-08-25T21:02:00+00:00 24 MB 
[TXT]Vocabulary Workshop Level D Unit 14 Answers2015-08-26T18:21:00+00:00 21 MB 
[TXT]Vista Spanish Workbook Answer Key2015-08-27T15:40:00+00:00 25 MB 
[TXT]Virtual Clinical Excursion Med Surg Answer Key2015-08-28T12:59:00+00:00 20 MB 
[TXT]Vocabulary Power Plus Book Two Answers2015-08-29T10:18:00+00:00 18 MB 
[TXT]Vocab Level E Answers2015-08-30T07:37:00+00:00 18 MB 
[TXT]Virus Webquest Answers2015-08-31T04:56:00+00:00 25 MB 
[TXT]Vocabulary Workshop Answers Weebly Com2015-09-01T02:15:00+00:00 18 MB 
[TXT]Vocab Level F Unit 11 Answers2015-09-01T23:34:00+00:00 19 MB 
[TXT]Vsepr Origami Answers2015-09-02T20:53:00+00:00 18 MB 
[TXT]Vocabulary Practice 22 Analogies Answers Prentice Hall2015-09-03T18:12:00+00:00 20 MB 
[TXT]Vhl Daccord 2 Supersite Answers2015-09-04T15:31:00+00:00 23 MB 
[TXT]Vocabulary Workshop Level G Unit 12 Answers2015-09-05T12:50:00+00:00 25 MB 
[TXT]Vocabulary Workshop Fourth Course Answers Bing2015-09-06T10:09:00+00:00 17 MB 
[TXT]Vhlcentral French Answers Examen 42015-09-07T07:28:00+00:00 17 MB 
[TXT]Verbal Reasoning Answer Sheet Template2015-09-08T04:47:00+00:00 22 MB 
[TXT]Virus And Bacteria Worksheet Answers2015-09-09T02:06:00+00:00 21 MB 
[TXT]Vertebrate Skeleton Lab Answers Key2015-09-09T23:25:00+00:00 21 MB 
[TXT]Vertebrates Diversity Study Guide Answers2015-09-10T20:44:00+00:00 25 MB 
[TXT]Vocab Answers For Level E2015-09-11T18:03:00+00:00 23 MB 
[TXT]Vocabulary Workshop Level E 2012 Answers2015-09-12T15:22:00+00:00 21 MB 
[TXT]Vocabulary Review Holt Biology Answers Pg 632015-09-13T12:41:00+00:00 17 MB 
[TXT]Version 1 World History Final Review Answers2015-09-14T10:00:00+00:00 22 MB 
[TXT]Vocabulary Workshop Level A Answers2015-09-15T07:19:00+00:00 17 MB 
[TXT]Vbscript Multiple Choice With Answers2015-09-16T04:38:00+00:00 17 MB 
[TXT]Vcaa Biology Past Exam Answers2015-09-17T01:57:00+00:00 17 MB 
[TXT]Vocabulary Workshop Level E Unit 8 Answers2015-09-17T23:16:00+00:00 25 MB 
[TXT]Velocity Acceleration Worksheet Answer Key2015-09-18T20:35:00+00:00 23 MB 
[TXT]Vietnam War Years Answers2015-09-19T17:54:00+00:00 24 MB 
[TXT]Vocabulary Power Workbook Grade 10 Answers2015-09-20T15:13:00+00:00 25 MB 
[TXT]Vbscript Interview Questions And Answers2015-09-21T12:32:00+00:00 24 MB 
[TXT]Virtual Business Budgeting And Saving Answers2015-09-22T09:51:00+00:00 23 MB 
[TXT]Virtual Chemlab Answer Key2015-09-23T07:10:00+00:00 21 MB 
[TXT]Viva Supersite Answers2015-09-24T04:29:00+00:00 24 MB 
[TXT]Vocabulary Activity Garden Answers2015-09-25T01:48:00+00:00 17 MB 
[TXT]Vocabulary Power Plus Hlesson 16 Answer Key2015-09-25T23:07:00+00:00 22 MB 
[TXT]Voltaic Cells Lab Report Answers2015-09-26T20:26:00+00:00 25 MB 
[TXT]Vce Chemistry Exam 2013 Answer Bing Free Ebooks2015-09-27T17:45:00+00:00 25 MB 
[TXT]Vocab Workshop Level E Answers2015-09-28T15:04:00+00:00 23 MB 
[TXT]Vocab Workshop Level A Answers2015-09-29T12:23:00+00:00 18 MB 
[TXT]Vocabulary Workshop Answers Level E Unit 122015-09-30T09:42:00+00:00 18 MB 
[TXT]Vocabu Lit Book F Answers2015-10-01T07:01:00+00:00 18 MB 
[TXT]Viruses And Prions Study Guide Answer Key2015-10-02T04:20:00+00:00 25 MB 
[TXT]Vhlcentral Answers Descubre Lesson 72015-10-03T01:39:00+00:00 18 MB 
[TXT]Vectors And Projectiles Packet Answers2015-10-03T22:58:00+00:00 19 MB 
[TXT]Vmware Interview Questions And Answers Pdf2015-10-04T20:17:00+00:00 25 MB 
[TXT]Virginia Algebra 2 Textbook Answers2015-10-05T17:36:00+00:00 23 MB 
[TXT]Vhlcentral Supersite Answers2015-10-06T14:55:00+00:00 24 MB 
[TXT]Vocabulary Activity 26 Answers2015-10-07T12:14:00+00:00 20 MB 
[TXT]Vernier Labquest 20 Answers2015-10-08T09:33:00+00:00 23 MB 
[TXT]Vistas Spanish Workbook Answers2015-10-09T06:52:00+00:00 21 MB 
[TXT]Vocabulary Workshop Unit 2 Answers Level E2015-10-10T04:11:00+00:00 25 MB 
[TXT]Vocabulary From Classical Roots B Answer Key 22015-10-11T01:30:00+00:00 23 MB 
[TXT]Varian Workbook Intermediate Microeconomics Answer Key2015-10-11T22:49:00+00:00 17 MB 
[TXT]Virus And Bacteria Holt Biology Answer Key2015-10-12T20:08:00+00:00 17 MB 
[TXT]Vista Higher Learning Spanish 2 Answer Key2015-10-13T17:27:00+00:00 23 MB 
[TXT]Victorian Poetry Selection Test Answers2015-10-14T14:46:00+00:00 17 MB 
[TXT]Vocabulary Workshop Unit 14 Synonyms Answer Key2015-10-15T12:05:00+00:00 25 MB 
[TXT]Vhl Central Answer Key Spanish Lesson 72015-10-16T09:24:00+00:00 20 MB 
[TXT]Vocabulary Performance Chart Answer Key2015-10-17T06:43:00+00:00 25 MB 
[TXT]Vector Addition Webquest Answers2015-10-18T04:02:00+00:00 25 MB 
[TXT]Vhl Answers Completar Leccion 122015-10-19T01:21:00+00:00 18 MB 
[TXT]Valix Financial Accounting 2 Answer Key2015-10-19T22:40:00+00:00 22 MB 
[TXT]Vector Practice Questions And Answers2015-10-20T19:59:00+00:00 20 MB 
[TXT]Vocabulary Workshop Level C Review 13 15 Answers2015-10-21T17:18:00+00:00 25 MB 
[TXT]Vocabulary Workshop Answers Cumulative Review2015-10-22T14:37:00+00:00 23 MB 
[TXT]Vhl Central Spanish Answers2015-10-23T11:56:00+00:00 17 MB 
[TXT]Vocabulary Unit D Answers2015-10-24T09:15:00+00:00 25 MB 
[TXT]Vita Certification Test Answers2015-10-25T06:34:00+00:00 23 MB 
[TXT]Vhlcentral Work Answer2015-10-26T03:53:00+00:00 23 MB 
[TXT]Vistas Supersite Leccion 3 Answers2015-10-27T01:12:00+00:00 18 MB 
[TXT]Vocabulary Review Holt Biology Ecosystem Answers2015-10-27T22:31:00+00:00 24 MB 
[TXT]Virtual River Flooding Answers2015-10-28T19:50:00+00:00 25 MB 
[TXT]Vocabulary For Achievement Purple Answer Key2015-10-29T17:09:00+00:00 17 MB 
[TXT]Vistas Vhlcentral Supersite Answer Key2015-10-30T14:28:00+00:00 25 MB 
[TXT]Virtual Fruit Fly Lab Answers2015-10-31T11:47:00+00:00 18 MB 
[TXT]Vector Mechanics For Engineers Statics Answers2015-11-01T09:06:00+00:00 25 MB 
[TXT]Vistas Higher Learning Answer Key Leccion 82015-11-02T06:25:00+00:00 23 MB 
[TXT]Vocabulary Workshop Level D Unit 12 Answers2015-11-03T03:44:00+00:00 25 MB 
[TXT]Vocabulary Answers2015-11-04T01:03:00+00:00 20 MB 
[TXT]Vocabulary Power 3 Answer Key2015-11-04T22:22:00+00:00 20 MB 
[TXT]Vocabulary Workshop Level E Answer Key2015-11-05T19:41:00+00:00 20 MB 
[TXT]Vsepr Hybridization Worksheet Answers2015-11-06T17:00:00+00:00 19 MB 
[TXT]Vocabulary Workshop Fourth Course Answers2015-11-07T14:19:00+00:00 17 MB 
[TXT]Vocabulary Workshop Answers Level C Unit 92015-11-08T11:38:00+00:00 20 MB 
[TXT]Virtual Business Personal Finance Lesson 10 Answers2015-11-09T08:57:00+00:00 20 MB 
[TXT]Vocabulary Workshop Level G Cumulative Review Answers2015-11-10T06:16:00+00:00 23 MB 
[TXT]Vocabulary Workshop Level C Unit 7 Answer Key2015-11-11T03:35:00+00:00 21 MB 
[TXT]Voices 2 Workbook Macmillan Answers2015-11-12T00:54:00+00:00 19 MB 
[TXT]Vocabulary Power Plus Lesson 10 Answer Key2015-11-12T22:13:00+00:00 18 MB 
[TXT]Vocab Unit 5 Answers2015-11-13T19:32:00+00:00 21 MB 
[TXT]Visual Basic Question Papers And Answers2015-11-14T16:51:00+00:00 19 MB 
[TXT]Vtech I5867 58 Ghz Answering System2015-11-15T14:10:00+00:00 19 MB 
[TXT]Vocabulary Workshop Level D Unit 2 Answers2015-11-16T11:29:00+00:00 18 MB 
[TXT]Vistas 4th Edition Answer Key Pdf2015-11-17T08:48:00+00:00 22 MB 
[TXT]Vocabulary Workshop Level H Answers Enriched Edition2015-11-18T06:07:00+00:00 18 MB 
[TXT]Vocabulary Workshop Enriched Edition Answers Level C2015-11-19T03:26:00+00:00 24 MB 
[TXT]Volumetric Analysis Lab Answers2015-11-20T00:45:00+00:00 22 MB 
[TXT]Vocabulary Answers Level A2015-11-20T22:04:00+00:00 17 MB 
[TXT]Vocabulary Power Plus 1 Answers Key2015-11-21T19:23:00+00:00 22 MB 
[TXT]Vistas Leccion 7 Recapitulacion Answers2015-11-22T16:42:00+00:00 20 MB 
[TXT]Vietnam War Answers Upfront2015-11-23T14:01:00+00:00 18 MB 
[TXT]Vhlcentral Panorama Answer Key2015-11-24T11:20:00+00:00 21 MB 
[TXT]Vocabu Lit K Answers2015-11-25T08:39:00+00:00 19 MB 
[TXT]Vista Higher Learning Spanish Answers Edition 42015-11-26T05:58:00+00:00 18 MB 
[TXT]Vocabulary Power Plus Lesson 19 Answer Key2015-11-27T03:17:00+00:00 21 MB 
[TXT]Vocab Answers Level E Enhanced2015-11-28T00:36:00+00:00 21 MB 
[TXT]Visit Chemfiesta Com Word Equations Answers2015-11-28T21:55:00+00:00 18 MB 
[TXT]Vocabulary Workshop Level F Unit 2 Answers2015-11-29T19:14:00+00:00 18 MB 
[TXT]Vhlcentral Answer Key Spanish 22015-11-30T16:33:00+00:00 21 MB 
[TXT]Vocabulary Review Cross A Clue Answers2015-12-01T13:52:00+00:00 21 MB 
[TXT]Virtual Business Answer Key Lesson 162015-12-02T11:11:00+00:00 22 MB 
[TXT]Vocabulary Activity 13 Constitutional Freedoms Answers2015-12-03T08:30:00+00:00 24 MB 
[TXT]Virtual Business Retailing 30 Answers2015-12-04T05:49:00+00:00 24 MB 
[TXT]Varian Workouts Answers2015-12-05T03:08:00+00:00 22 MB 
[TXT]Vocabulary Workshop Level F Answers Enriched Edition2015-12-06T00:27:00+00:00 19 MB 
[TXT]Vtech Dect 60 Answering Machine Manual2015-12-06T21:46:00+00:00 18 MB 
[TXT]Version Originale 1 Workbook Answers2015-12-07T19:05:00+00:00 20 MB 
[TXT]Virtual Business Sports Level 2 Answers2015-12-08T16:24:00+00:00 24 MB 
[TXT]Visual Basic Exercise Answers2015-12-09T13:43:00+00:00 21 MB 
[TXT]Vocabulary Workshop New Edition Level B Answers2015-12-10T11:02:00+00:00 21 MB 
[TXT]Vocabulary Workshop Level F Answers Unit 32015-12-11T08:21:00+00:00 19 MB 
[TXT]Vocabulary Power Plus 4 Answer2015-12-12T05:40:00+00:00 23 MB 
[TXT]Vietnam War Chapter 20 Crossword Puzzles Answers2015-12-13T02:59:00+00:00 23 MB 
[TXT]Vocabulary Workshop C Answers2015-12-14T00:18:00+00:00 20 MB 
[TXT]Vhlcentral Answer Key French 4 Lecon 52015-12-14T21:37:00+00:00 20 MB 
[TXT]Viruses Bacteria Protists And Fungi Worksheet Answers2015-12-15T18:56:00+00:00 25 MB 
[TXT]Vistas Leccion 11 Prueba Answer Key2015-12-16T16:15:00+00:00 19 MB 
[TXT]Vocabulary Practice Biology Answers2015-12-17T13:34:00+00:00 17 MB 
[TXT]Virtual Learning Academy Geometry 2 Answers2015-12-18T10:53:00+00:00 25 MB 
[TXT]Vcap Algebra 2 Posttest Unit Answers2015-12-19T08:12:00+00:00 25 MB 
[TXT]Vocab Level G Unit 15 Answers2015-12-20T05:31:00+00:00 20 MB 
[TXT]Volume Of Prism And Answers2015-12-21T02:50:00+00:00 18 MB 
[TXT]Vistas 4th Edition Websam Answer Key2015-12-22T00:09:00+00:00 20 MB 
[TXT]Vocabulary Level F Answer Key2015-12-22T21:28:00+00:00 23 MB 
[TXT]Volcanoes And Plate Tectonics Answer Key Pearson2015-12-23T18:47:00+00:00 20 MB 
[TXT]Virtual Business Lesson 6 Answers2015-12-24T16:06:00+00:00 24 MB 
[TXT]Visual Basic Code Segment Question And Answer2015-12-25T13:25:00+00:00 19 MB 
[TXT]Vocabulary Workshop Level D Unit 3 Answers 20122015-12-26T10:44:00+00:00 22 MB 
[TXT]Vocabulary Workshop Enriched Edition Level E Answers Unit 52015-12-27T08:03:00+00:00 25 MB 
[TXT]Vocabulary Activity 16 War Revolution Answers2015-12-28T05:22:00+00:00 23 MB 
[TXT]Vocab Workshop Level E Unit 6 Answers2015-12-29T02:41:00+00:00 17 MB 
[TXT]Vocabulary Activity 4 The Human World Answers2015-12-30T00:00:00+00:00 22 MB 
[TXT]Virtual Interview Questions And Answers2015-12-30T21:19:00+00:00 21 MB 
[TXT]Vocabulary Workshop Level D Answers 20132015-12-31T18:38:00+00:00 25 MB 
[TXT]Vocabulary Workshop Answers Unit 1 Level F2016-01-01T15:57:00+00:00 18 MB 
[TXT]Vocabulary Workshop Level B Unit 10 Answers Synonyms2016-01-02T13:16:00+00:00 24 MB 
[TXT]Volleyball Packet 1 Answers2016-01-03T10:35:00+00:00 18 MB 
[TXT]Voting In Congress Icivics Answer Key2016-01-04T07:54:00+00:00 22 MB 
[TXT]Vocabulary Workshop Enriched Edition Unit Answers2016-01-05T05:13:00+00:00 22 MB 
[TXT]Viewing Guide To Lincoln Movie Answer Key2016-01-06T02:32:00+00:00 22 MB 
[TXT]Verb Worksheet With Answer Key2016-01-06T23:51:00+00:00 17 MB 
[TXT]Vistas 4th Edition Supersite Answer Key2016-01-07T21:10:00+00:00 25 MB 
[TXT]Ven Conmigo Level 2 Workbook Answers2016-01-08T18:29:00+00:00 20 MB 
[TXT]Volume Worksheets With Answer Key2016-01-09T15:48:00+00:00 24 MB 
[TXT]Vadets Workbook Answer Key2016-01-10T13:07:00+00:00 20 MB 
[TXT]Virginia Drivers Ed Workbook Answers2016-01-11T10:26:00+00:00 23 MB 
[TXT]Vce Biology Answers 20132016-01-12T07:45:00+00:00 23 MB 
[TXT]Virtual River Lab Answer Key2016-01-13T05:04:00+00:00 23 MB 
[TXT]Vocabulary Workshop Answers Level E Unit 132016-01-14T02:23:00+00:00 23 MB 
[TXT]Vocabulary Challenge Se 14 Answer Key2016-01-14T23:42:00+00:00 23 MB 
[TXT]Va Career View Word Search Answer Key2016-01-15T21:01:00+00:00 22 MB 
[TXT]Vistas Vhlcentral Answers2016-01-16T18:20:00+00:00 18 MB 
[TXT]Vocabulary Workshop Common Core Enriched Edition Level G Answers2016-01-17T15:39:00+00:00 25 MB 
[TXT]Vhlcentral Answer Key Spanish 12016-01-18T12:58:00+00:00 17 MB 
[TXT]Vocabulary Practice 8 Suffixes Answers Prentice Hall2016-01-19T10:17:00+00:00 24 MB 
[TXT]Vhlcentral Answer Key Leccion 9 Prueba2016-01-20T07:36:00+00:00 19 MB 
[TXT]Vocabulary For The College Bound Student Answer Key2016-01-21T04:55:00+00:00 24 MB 
[TXT]Verbal Reasoning Questions And Answers2016-01-22T02:14:00+00:00 18 MB 
[TXT]Vocabulary Workshop Book C Answers2016-01-22T23:33:00+00:00 24 MB 
[TXT]Vegetarian Alligators Answer Key2016-01-23T20:52:00+00:00 24 MB 
[TXT]Vista Spanish Answers2016-01-24T18:11:00+00:00 24 MB 
[TXT]Vocabulary Workshop Level C Review Units 13 15 Answers2016-01-25T15:30:00+00:00 25 MB 
[TXT]Venn Diagrams Questions Answer2016-01-26T12:49:00+00:00 20 MB 
[TXT]Volume Word Problems 8th Grade And Answers2016-01-27T10:08:00+00:00 20 MB 
[TXT]Vista Higher Learning Leccion 4 Answer Key2016-01-28T07:27:00+00:00 25 MB 
[TXT]Vocabulary Activity Cellular Crosswords Answers2016-01-29T04:46:00+00:00 22 MB 
[TXT]Vhlcentral French Answer Key2016-01-30T02:05:00+00:00 18 MB 
[TXT]Vocabulary Book Answers Level C2016-01-30T23:24:00+00:00 17 MB 
[TXT]Visual Design Exam Questions And Answers2016-01-31T20:43:00+00:00 18 MB 
[TXT]Vocabulary Review The Environment Science Answer Key2016-02-01T18:02:00+00:00 24 MB 
[TXT]Viewed In Another Light Answers2016-02-02T15:21:00+00:00 23 MB 
[TXT]Vocabulary Workshop Level E Test Answers2016-02-03T12:40:00+00:00 18 MB 
[TXT]Vtech Digital Answering Machine Instructions2016-02-04T09:59:00+00:00 24 MB 
[TXT]Vocabulary For Highschool Students 4th Edition Answers2016-02-05T07:18:00+00:00 18 MB 
[TXT]Vocabulary Connections Answers2016-02-06T04:37:00+00:00 25 MB 
[TXT]Vocabulary Workshop D Answers Unit 12016-02-07T01:56:00+00:00 19 MB 
[TXT]Vendor Questions Answers State Of Wisconsin Vendornet2016-02-07T23:15:00+00:00 24 MB 
[TXT]Vdo Exam Answer Sheet2016-02-08T20:34:00+00:00 23 MB 
[TXT]Vce Physics 2009 Insight Trial Exams Answers2016-02-09T17:53:00+00:00 25 MB 
[TXT]Vhlcentral Answers Panorama2016-02-10T15:12:00+00:00 22 MB 
[TXT]Vocabulary Workshop Enriched Edition Level E Answers Unit 22016-02-11T12:31:00+00:00 20 MB 
[TXT]Vhl Central Answer Key Bing Downloads Blog2016-02-12T09:50:00+00:00 22 MB 
[TXT]Virtual Earthquake Lab Answers2016-02-13T07:09:00+00:00 23 MB 
[TXT]Vocabulary Answers Level D 20122016-02-14T04:28:00+00:00 20 MB 
[TXT]Volume Of Pyramids And Cones Workbook Answers2016-02-15T01:47:00+00:00 22 MB 
[TXT]Vocabulario A Avancemos 2 Answers Pg 1972016-02-15T23:06:00+00:00 22 MB 
[TXT]Vistas Spanish Work 4th Edition Answer Key2016-02-16T20:25:00+00:00 22 MB 
[TXT]Variables And Patterns Answers2016-02-17T17:44:00+00:00 21 MB 
[TXT]Vtu Engineering Physics Viva Questions With Answers2016-02-18T15:03:00+00:00 23 MB 
[TXT]Vocabulary Power Plus Book 3 Lesson 1 Answer Key2016-02-19T12:22:00+00:00 21 MB 
[TXT]Virology Exam Questions And Answers2016-02-20T09:41:00+00:00 19 MB 
[TXT]Vista Higher Learning Spanish Answers Leccion 152016-02-21T07:00:00+00:00 21 MB 
[TXT]Vocabulary Workshop Level G Review Units 13 15 Answers2016-02-22T04:19:00+00:00 21 MB 
[TXT]Virtual Lab The Cell Cycle And Cancer Worksheet Answer Key2016-02-23T01:38:00+00:00 23 MB 
[TXT]Volleyball Pex Packets Answers2016-02-23T22:57:00+00:00 25 MB 
[TXT]Voet Answers2016-02-24T20:16:00+00:00 20 MB 
[TXT]Vocab Level E Review Answers2016-02-25T17:35:00+00:00 19 MB 
[TXT]Visual Basic Chapter 4 Answers2016-02-26T14:54:00+00:00 17 MB 
[TXT]Vocab Unit 11 Level E Answers2016-02-27T12:13:00+00:00 21 MB 
[TXT]Volume Worksheets And Answers2016-02-28T09:32:00+00:00 20 MB 
[TXT]Vocabulario C Pg 173 Spanish Workbook Answers2016-02-29T06:51:00+00:00 25 MB 
[TXT]Virus And Bacteria Answer Key2016-03-01T04:10:00+00:00 19 MB 
[TXT]Vanrakshak Exam Answer Sheet2016-03-02T01:29:00+00:00 22 MB 
[TXT]Vocabulary For Achievement Fifth Course Answers2016-03-02T22:48:00+00:00 24 MB 
[TXT]Viruses And Prokaryotes Vocabulary Practice Answer Key2016-03-03T20:07:00+00:00 20 MB 
[TXT]Vtne Questions And Answers2016-03-04T17:26:00+00:00 22 MB 
[TXT]Vocabworkshopanswers Weebly Com2016-03-05T14:45:00+00:00 17 MB 
[TXT]Vocabu Lit K Answer Key2016-03-06T12:04:00+00:00 19 MB 
[TXT]Vocabulary Workshop Common Core Unit 13 Answers2016-03-07T09:23:00+00:00 19 MB 
[TXT]Vista Higher Learning Answer Key Leccion 112016-03-08T06:42:00+00:00 25 MB 
[TXT]Vocabulary Workshop Level E Review Units 7 9 Answers2016-03-09T04:01:00+00:00 24 MB 
[TXT]Vista Higher Learning Leccion 5 Answer Key2016-03-10T01:20:00+00:00 23 MB 
[TXT]Virtual Lab Enzyme Controlled Reactions Worksheet Answer Key2016-03-10T22:39:00+00:00 22 MB 
[TXT]Vsepr Lab Answers2016-03-11T19:58:00+00:00 21 MB 
[TXT]Vocabulary Activity 17 Revolution Enlightenment Answers2016-03-12T17:17:00+00:00 17 MB 
[TXT]Vista Higher Learning Descubre 1 Answers2016-03-13T14:36:00+00:00 18 MB 
[TXT]Vocabulary Workshop Enhanced Edition Level D Answers2016-03-14T11:55:00+00:00 18 MB 
[TXT]Vistas Third Edition Workbook Answer Key2016-03-15T09:14:00+00:00 23 MB 
[TXT]Vocabulary Energizers 2 Answers2016-03-16T06:33:00+00:00 22 MB 
[TXT]Verbals And Answer Key2016-03-17T03:52:00+00:00 25 MB 
[TXT]Vistas Fourth Edition Answer Key2016-03-18T01:11:00+00:00 19 MB 
[TXT]Vtech 58 Answering Machine Manual2016-03-18T22:30:00+00:00 25 MB 
[TXT]Vocabulary Workshop Level D Answers Unit 22016-03-19T19:49:00+00:00 20 MB 
[TXT]Version D Answer Key American Heart Association2016-03-20T17:08:00+00:00 24 MB 
[TXT]Vista Work Answer Key Leccion 62016-03-21T14:27:00+00:00 22 MB 
[TXT]Vocabulary Power Workbook Grade 6 Answer Key2016-03-22T11:46:00+00:00 19 MB 
[TXT]Vao Study Material With Answers2016-03-23T09:05:00+00:00 18 MB 
[TXT]Vocabulary Workshop Answers Level C Unit 42016-03-24T06:24:00+00:00 24 MB 
[TXT]Vocabulary For Achievement Answer Key2016-03-25T03:43:00+00:00 20 MB 
[TXT]Vocabulary Workshop Level F Answers Unit 62016-03-26T01:02:00+00:00 23 MB 
[TXT]Virtual Lab Model Ecosystems Answers2016-03-26T22:21:00+00:00 19 MB 
[TXT]Virtual Lab Tracking Grizzlies Answers2016-03-27T19:40:00+00:00 20 MB 
[TXT]Verbal Reasoning Test Answers2016-03-28T16:59:00+00:00 17 MB 
[TXT]Vocabu Lit Book J Answer Key2016-03-29T14:18:00+00:00 24 MB 
[TXT]Vista Spanish Workbook Answer Key Lesson 32016-03-30T11:37:00+00:00 18 MB 
[TXT]Vista Higher Learning Answer Key Lezione 82016-03-31T08:56:00+00:00 20 MB 
[TXT]Vocabulary Worksheets Answer Key2016-04-01T06:15:00+00:00 21 MB 
[TXT]Vistas Third Edition Answer Key2016-04-02T03:34:00+00:00 18 MB 
[TXT]Vocabulary Activity Search For Matter Answers2016-04-03T00:53:00+00:00 23 MB 
[TXT]Verbal Reasoning Test Questions And Answers2016-04-03T22:12:00+00:00 24 MB 
[TXT]Variables And Patterns Answer Key2016-04-04T19:31:00+00:00 18 MB 
[TXT]Visual Basic 2010 Diane Zak Answers2016-04-05T16:50:00+00:00 21 MB 
[TXT]Vtech Digital Answering System User Manual2016-04-06T14:09:00+00:00 22 MB 
[TXT]Vietnam War Vocabulary Activity 25 Answers2016-04-07T11:28:00+00:00 23 MB 
[TXT]Vocabulary Workshop Test Answers Level E2016-04-08T08:47:00+00:00 17 MB 
[TXT]Vocabulary Workshop Answers Level B Unit 62016-04-09T06:06:00+00:00 23 MB 
[TXT]Visual Basic Test Questions And Answers2016-04-10T03:25:00+00:00 25 MB 
[TXT]Video Guide Questions The People Paradox Answers2016-04-11T00:44:00+00:00 18 MB 
[TXT]Vhl Central Vistas Answer Key2016-04-11T22:03:00+00:00 20 MB 
[TXT]Vocabulary Answers Cheat2016-04-12T19:22:00+00:00 21 MB 
[TXT]Vocabulary Review Chemistry Of Life Answers2016-04-13T16:41:00+00:00 17 MB 
[TXT]Voters And Voter Behavior Test Answers2016-04-14T14:00:00+00:00 23 MB 
[TXT]Virtual Cell Answer Key2016-04-15T11:19:00+00:00 21 MB 
[TXT]Va English Sol 2010 Answer Key2016-04-16T08:38:00+00:00 21 MB 
[TXT]Vocabulary For The College Bound Student Answer Key Free2016-04-17T05:57:00+00:00 21 MB 
[TXT]Virtual River Discharge Answer Key2016-04-18T03:16:00+00:00 17 MB 
[TXT]Vocabulary Review Ecosystems Answers2016-04-19T00:35:00+00:00 24 MB 
[TXT]Vocab Workshop Enriched Edition Level D Answers2016-04-19T21:54:00+00:00 23 MB 
[TXT]Vistas 4th Edition Workbook Answer Ke2016-04-20T19:13:00+00:00 25 MB 
[TXT]Vocabulary Workshop Unit 7 Answers2016-04-21T16:32:00+00:00 19 MB 
[TXT]Viruses Bacteria Worksheet Answers Biology2016-04-22T13:51:00+00:00 21 MB 
[TXT]Village Administration Question And Answers2016-04-23T11:10:00+00:00 18 MB 
[TXT]Vocabulary Workshop Answers Level Blue2016-04-24T08:29:00+00:00 22 MB 
[TXT]Vocabulary Workshop Level E Answer Key Unit 152016-04-25T05:48:00+00:00 21 MB 
[TXT]Vocabulary Workshop Unit F Answers2016-04-26T03:07:00+00:00 17 MB 
[TXT]Vocab Unit 1 12 Review Answers2016-04-27T00:26:00+00:00 24 MB 
[TXT]Vocab Unit 4 Answers2016-04-27T21:45:00+00:00 25 MB 
[TXT]Vistas 4th Edition Work Answer Key2016-04-28T19:04:00+00:00 22 MB 
[TXT]Vietnam Vocabulary Builder Answers2016-04-29T16:23:00+00:00 25 MB 
[TXT]Vocabulary Workshop Answers Unit 1 Level B2016-04-30T13:42:00+00:00 22 MB 
[TXT]Vocabanswersnet Level G2016-05-01T11:01:00+00:00 20 MB 
[TXT]Vocab Answers Level E Unit 142016-05-02T08:20:00+00:00 18 MB 
[TXT]Vocabulary Power Plus For The New Sat Book 2 Answer Key2016-05-03T05:39:00+00:00 17 MB 
[TXT]Virtual Business Lesson 16 Answer Key2016-05-04T02:58:00+00:00 25 MB 
[TXT]Vocabulary Workshop Answers Level E Review Units 1 32016-05-05T00:17:00+00:00 24 MB 
[TXT]Vista 4th Edition Supersite Answer Key2016-05-05T21:36:00+00:00 18 MB 
[TXT]Vao Exam Answer Key2016-05-06T18:55:00+00:00 22 MB 
[TXT]Va Sol Algebra 2 2011 Answers2016-05-07T16:14:00+00:00 23 MB 
[TXT]Viewing Guide Teacher Answer Key2016-05-08T13:33:00+00:00 20 MB 
[TXT]Virtual Lab Protein Synthesis Answer2016-05-09T10:52:00+00:00 17 MB 
[TXT]Vocabulary Workshop Level E Review Units 10 12 Answers2016-05-10T08:11:00+00:00 19 MB 
[TXT]Vocab Answers Level F2016-05-11T05:30:00+00:00 21 MB 
[TXT]Vhlcentral Answers Leccion 32016-05-12T02:49:00+00:00 23 MB 
[TXT]Vistas Leccion 11 Answers2016-05-13T00:08:00+00:00 23 MB 
[TXT]Vocabulary Workshop Level E Cumulative Review Answers2016-05-13T21:27:00+00:00 17 MB 
[TXT]Vocabulary Workshop Unit 10 Answers2016-05-14T18:46:00+00:00 19 MB 
[TXT]Ven Conmigo Workbook Answers For Spanish 22016-05-15T16:05:00+00:00 23 MB 
[TXT]Vocabulary From Latin And Greek Roots Answers Bing2016-05-16T13:24:00+00:00 24 MB 
[TXT]Vocabulary Workshop New Edition Level D Answers2016-05-17T10:43:00+00:00 25 MB 
[TXT]Vsepr Answer Key2016-05-18T08:02:00+00:00 23 MB 
[TXT]Virtual Sheep Heart Dissection Lab Answers2016-05-19T05:21:00+00:00 18 MB 
[TXT]Vocabulary Power Plus Lesson 17 Answer Key2016-05-20T02:40:00+00:00 21 MB 
[TXT]Vtech Digital Answering System2016-05-20T23:59:00+00:00 24 MB 
[TXT]Vulcan And His Inventions Answer2016-05-21T21:18:00+00:00 24 MB 
[TXT]Virtual Karyotyping Answer Key2016-05-22T18:37:00+00:00 25 MB 
[TXT]Vsepr Worksheet And Answers2016-05-23T15:56:00+00:00 25 MB 
[TXT]Vocabulary Book H Answers2016-05-24T13:15:00+00:00 22 MB 
[TXT]Villa For Sale Question And Answers Ncert2016-05-25T10:34:00+00:00 25 MB 
[TXT]Vocabulary Review Answers For Physics2016-05-26T07:53:00+00:00 21 MB 
[TXT]Velocity Worksheet Answer Key2016-05-27T05:12:00+00:00 22 MB 
[TXT]Ven Conmigo Workbook Answer Key Spanish 32016-05-28T02:31:00+00:00 21 MB 
[TXT]Volcano Quiz Questions And Answers For Kids2016-05-28T23:50:00+00:00 24 MB 
[TXT]Vietnam War Chapter Review Answers2016-05-29T21:09:00+00:00 23 MB 
[TXT]Veideretti Cabinets Transaction Answers2016-05-30T18:28:00+00:00 22 MB 
[TXT]Veterinary Pharmacology Multiple Choice Questions With Answers2016-05-31T15:47:00+00:00 24 MB 
[TXT]Virtual Chemlab 25 Answer Key2016-06-01T13:06:00+00:00 22 MB 
[TXT]Vocabulary Activity A Hunt With Heart Answer2016-06-02T10:25:00+00:00 24 MB 
[TXT]Vocabulary Workshop Answer Key Level F2016-06-03T07:44:00+00:00 20 MB 
[TXT]Virtual Meteorology 101 Answers2016-06-04T05:03:00+00:00 19 MB 
[TXT]Vce Chemistry Exam 2013 Answer Bing Free Ebooks 22016-06-05T02:22:00+00:00 18 MB 
[TXT]Variables And Equation Answers Algebra If87622016-06-05T23:41:00+00:00 21 MB 
[TXT]Va Career View Word Search Answers2016-06-06T21:00:00+00:00 22 MB 
[TXT]Virtual Business Insurance Answers2016-06-07T18:19:00+00:00 22 MB 
[TXT]Virginia Cdl Test Answers2016-06-08T15:38:00+00:00 19 MB 
[TXT]Variation And Key Answers2016-06-09T12:57:00+00:00 19 MB 
[TXT]Vocabulary Power Plus Book 2 Answer Key Free Download2016-06-10T10:16:00+00:00 22 MB 
[TXT]Video Game Questions And Answers2016-06-11T07:35:00+00:00 21 MB 
[TXT]Vhlcentral Imagina Answers2016-06-12T04:54:00+00:00 17 MB 
[TXT]Vocabulary Macbeth Act 2 Answers2016-06-13T02:13:00+00:00 21 MB 
[TXT]Vocabulary Power Plus 2 Answer Key2016-06-13T23:32:00+00:00 21 MB 
[TXT]Vocabulary Power Plus 2 Lesson 13 Answers2016-06-14T20:51:00+00:00 23 MB 
[TXT]Vocab Workshop Answers Level E2016-06-15T18:10:00+00:00 23 MB 
[TXT]Vhl Central Answer Spanish 1022016-06-16T15:29:00+00:00 17 MB 
[TXT]Vocabulary Workshop Answers For Analogies2016-06-17T12:48:00+00:00 22 MB 
[TXT]Vistas Workbook Answers2016-06-18T10:07:00+00:00 21 MB 
[TXT]Vocabulary Workshop Third Course Lesson 1 Answers2016-06-19T07:26:00+00:00 25 MB 
[TXT]Vtech Answering Machine Manual Instructions2016-06-20T04:45:00+00:00 21 MB 
[TXT]Vocabulary Builder 1 Answer Key2016-06-21T02:04:00+00:00 18 MB 
[TXT]Vocab Book Answers Level G2016-06-21T23:23:00+00:00 25 MB 
[TXT]Vocabu Lit K Answers Lesson 72016-06-22T20:42:00+00:00 17 MB 
[TXT]Vocabulary Workshop Common Core Enriched Edition Answers2016-06-23T18:01:00+00:00 23 MB 
[TXT]Virtual Lab The Moving Man Key Answers2016-06-24T15:20:00+00:00 20 MB 
[TXT]Velocity Acceleration Worksheets With Answers2016-06-25T12:39:00+00:00 25 MB 
[TXT]Vista Higher Learning Descubre Answers2016-06-26T09:58:00+00:00 20 MB 
[TXT]Vocabulary Power Plus 3 Answer Key Lesson 62016-06-27T07:17:00+00:00 17 MB 
[TXT]Vocabulary Workshop Level E Unit 2 Answers 20122016-06-28T04:36:00+00:00 23 MB 
[TXT]Vhlcentral Answer Key Leccion 102016-06-29T01:55:00+00:00 25 MB 
[TXT]Vocabulary Workshop Fourth Course Answers Key2016-06-29T23:14:00+00:00 24 MB 
[TXT]Vocabulario A Level 2 Pp 222 226 Answers2016-06-30T20:33:00+00:00 18 MB 
[TXT]Volleyball Answer Key Physical Education Learning Packets2016-07-01T17:52:00+00:00 19 MB 
[TXT]Vocabulary For Achievement Second Course Answer Key2016-07-02T15:11:00+00:00 17 MB 
[TXT]Vocabulary Workshop Answers Free2016-07-03T12:30:00+00:00 22 MB 
[TXT]Virtual Business Sports And Entertainment Mogul Answers2016-07-04T09:49:00+00:00 24 MB 
[TXT]Video Game Trivia Answers2016-07-05T07:08:00+00:00 22 MB 
[TXT]Vocab Workshop Level E Unit 7 Answers2016-07-06T04:27:00+00:00 24 MB 
[TXT]Ven Conmigo Level 1 Chapter 5 Work Answers2016-07-07T01:46:00+00:00 18 MB 
[TXT]Virtual Chemlab Workbook Answers2016-07-07T23:05:00+00:00 19 MB 
[TXT]Verbal Reasoning Test With Answers2016-07-08T20:24:00+00:00 20 MB 
[TXT]Vista Higher Learning Leccion 9 Answer Key2016-07-09T17:43:00+00:00 18 MB 
[TXT]Vocabulary Level C Answers2016-07-10T15:02:00+00:00 24 MB 
[TXT]Vocab Unit 5 Level G Answers2016-07-11T12:21:00+00:00 25 MB 
[TXT]Vocabulary In Us Intermediate With Answers2016-07-12T09:40:00+00:00 25 MB 
[TXT]Variations In Gene Expression Worksheet Answers2016-07-13T06:59:00+00:00 21 MB 
[TXT]Virtual Genetics Lab Answers2016-07-14T04:18:00+00:00 25 MB 
[TXT]Vocabulary Review Answers Holt Biology Ecosystems2016-07-15T01:37:00+00:00 21 MB 
[TXT]Vocabulary The Crucible Assignments Answer Key2016-07-15T22:56:00+00:00 17 MB 
[TXT]Vista Workbook Answer Key Chile2016-07-16T20:15:00+00:00 25 MB 
[TXT]Vistas Supersite Leccion 12 Answer Key2016-07-17T17:34:00+00:00 17 MB 
[TXT]Vinegar And Baking Soda Stoichiometry Lab Answers2016-07-18T14:53:00+00:00 18 MB 
[TXT]Vocabulary Crossword Fahrenheit 451 Answers2016-07-19T12:12:00+00:00 24 MB 
[TXT]Vce Psychiatric Answer Key2016-07-20T09:31:00+00:00 18 MB 
[TXT]Viva Question Series Resonance Experiment And Answers2016-07-21T06:50:00+00:00 24 MB 
[TXT]Vocabulary For Achievement Third Course Answer Key2016-07-22T04:09:00+00:00 19 MB 
[TXT]Very Big Branch Answer Key2016-07-23T01:28:00+00:00 17 MB 
[TXT]Vadets Module 5 Workbook Answers2016-07-23T22:47:00+00:00 19 MB 
[TXT]Vocabulary Review Answer Key 11 152016-07-24T20:06:00+00:00 20 MB 
[TXT]Vocabulary Workshop Answers Level B Unit 72016-07-25T17:25:00+00:00 24 MB 
[TXT]Viviana Y Su Gran Aventura Mexicana Answers2016-07-26T14:44:00+00:00 19 MB 
[TXT]Virtual Lab Answer Key2016-07-27T12:03:00+00:00 18 MB 
[TXT]Veterinary Answers Online2016-07-28T09:22:00+00:00 25 MB 
[TXT]Vistas 4th Edition Answer Key2016-07-29T06:41:00+00:00 22 MB 
[TXT]Venn Diagram Questions And Answers2016-07-30T04:00:00+00:00 19 MB 
[TXT]Visual Art Waec Objectives Answers 20142016-07-31T01:19:00+00:00 22 MB 
[TXT]Vocabulary Connections Answer Key2016-07-31T22:38:00+00:00 20 MB 
[TXT]Vocabulary Workshop Answers Level Orange2016-08-01T19:57:00+00:00 24 MB 
[TXT]Vocab Packet Answers Grade 12 Unit 92016-08-02T17:16:00+00:00 20 MB 
[TXT]Vhlcentral Answer Key Spanish 1 Lesson 62016-08-03T14:35:00+00:00 21 MB 
[TXT]Vocabulary For Achievement Third Course Answers Online2016-08-04T11:54:00+00:00 18 MB 
[TXT]Vista Higher Learning French Answers Bing2016-08-05T09:13:00+00:00 24 MB 
[TXT]Vocabulary Workshop Level C Unit 13 Answers2016-08-06T06:32:00+00:00 23 MB 
[TXT]Vtech Answer Machine2016-08-07T03:51:00+00:00 25 MB 
[TXT]Vocab Level F Answers2016-08-08T01:10:00+00:00 24 MB 
[TXT]Visual Basic Programming Challenges Answers2016-08-08T22:29:00+00:00 22 MB 
[TXT]Vocabulary Workshop Level B Unit 12 Answer Key2016-08-09T19:48:00+00:00 20 MB 
[TXT]Vhlcentral Answer Key Italian2016-08-10T17:07:00+00:00 23 MB 
[TXT]Vocabulary And Section Summary B Answer Key2016-08-11T14:26:00+00:00 18 MB 
[TXT]Vocabulary For Achievement Fifth Course Answer Key2016-08-12T11:45:00+00:00 20 MB 
[TXT]Viruses And Prokaryotes Study Guide Answers2016-08-13T09:04:00+00:00 23 MB 
[TXT]Vro Exam Model Papers With Answers In Telugu2016-08-14T06:23:00+00:00 19 MB 
[TXT]Verilog Objective Type Questions And Answers2016-08-15T03:42:00+00:00 22 MB 
[TXT]Voltaic Cell Lab Answer Key2016-08-16T01:01:00+00:00 21 MB 
[TXT]Vocabulary From Classical Roots B Answer Key2016-08-16T22:20:00+00:00 20 MB 
[TXT]Vhlcentral Answer Key Spanish Imagina2016-08-17T19:39:00+00:00 20 MB 
[TXT]Viva Questions And Answers Physics Class 112016-08-18T16:58:00+00:00 24 MB 
[TXT]Vocabulary Workshop Enriched Edition Answers Level E2016-08-19T14:17:00+00:00 21 MB 
[TXT]Vocabulary Workshop Answers Level C Review Units 13 152016-08-20T11:36:00+00:00 23 MB 
[TXT]Vista Higher Learning Leccion 3answer Key2016-08-21T08:55:00+00:00 18 MB 
[TXT]Vista Higher Learning Answer Key Lecon 22016-08-22T06:14:00+00:00 19 MB 
[TXT]Virtual Business Quiz Answers2016-08-23T03:33:00+00:00 25 MB 
[TXT]Vocabulary Review Introduction To Animals Answer2016-08-24T00:52:00+00:00 20 MB 
[TXT]Veins And Arteries Labeling Answer Key2016-08-24T22:11:00+00:00 18 MB 
[TXT]Vocabulary Workshop Level D Unit 3 Answers2016-08-25T19:30:00+00:00 21 MB 
[TXT]Virtual Business Turnaround Answers2016-08-26T16:49:00+00:00 22 MB 
[TXT]Variables And Patterns Investigation 2 Answers2016-08-27T14:08:00+00:00 23 MB 
[TXT]Vocabulary Workshop Answer Key2016-08-28T11:27:00+00:00 25 MB 
[TXT]Vietnam And Sixties Answers2016-08-29T08:46:00+00:00 21 MB 
[TXT]Vb Net Multiple Choice Questions Answers2016-08-30T06:05:00+00:00 18 MB 
[TXT]Volume And Density Worksheet Answers2016-08-31T03:24:00+00:00 21 MB 
[TXT]Vocab Workshop Unit 6 Answers2016-09-01T00:43:00+00:00 22 MB 
[TXT]Vocabulary Power 6th Grade Answers2016-09-01T22:02:00+00:00 17 MB 
[TXT]Vocabulary Workshop Level B Unit 5 Answers2016-09-02T19:21:00+00:00 19 MB 
[TXT]Variable And Patterns Investigation 1 Answers2016-09-03T16:40:00+00:00 22 MB 
[TXT]Virtual Answering Machine2016-09-04T13:59:00+00:00 24 MB 
[TXT]Virtual River Discharge Answers Key2016-09-05T11:18:00+00:00 25 MB 
[TXT]Vocabulary From Classical Roots E Answers2016-09-06T08:37:00+00:00 25 MB 
[TXT]Vocabulary Workshop Answers Level C Review Units 1 32016-09-07T05:56:00+00:00 21 MB 
[TXT]Vocabulary From Classical Roots Lesson 6c Answers2016-09-08T03:15:00+00:00 17 MB 
[TXT]Vocabulary Workshop F Answers2016-09-09T00:34:00+00:00 20 MB 
[TXT]Vocabulary From Classical Roots E Answer Key Online2016-09-09T21:53:00+00:00 19 MB 
[TXT]Vocabulary Workshop Introdutory Course Answer Key2016-09-10T19:12:00+00:00 20 MB 
[TXT]Vocabulary Power Grade 11 Answer Key2016-09-11T16:31:00+00:00 25 MB 
[TXT]Visual Basic 2010 Programming Answers2016-09-12T13:50:00+00:00 23 MB 
[TXT]Vocab Level G Unit 7 Answers2016-09-13T11:09:00+00:00 23 MB 
[TXT]Vista Websam Answers2016-09-14T08:28:00+00:00 20 MB 
[TXT]Vocabulary For Achievement Answers Sixth Course2016-09-15T05:47:00+00:00 22 MB 
[TXT]Virtual Astronomy Lab Quiz Answers Cengage2016-09-16T03:06:00+00:00 18 MB 
[TXT]Vtct Beauty Therapy Level 2 Waxing Answer2016-09-17T00:25:00+00:00 17 MB 
[TXT]Vista Higher Learning Spanish 101 Answer Key2016-09-17T21:44:00+00:00 24 MB 
[TXT]Vibrations And Waves Answers Conceptual Physics2016-09-18T19:03:00+00:00 21 MB 
[TXT]Vhlcentral Imagina Answer Key2016-09-19T16:22:00+00:00 17 MB 
[TXT]Viva Questions And Answers Sonometer Experiment2016-09-20T13:41:00+00:00 19 MB 
[TXT]Vocab Level C Unit 10 Answers2016-09-21T11:00:00+00:00 22 MB 
[TXT]Virtual Lab Blood Typing Answer Key2016-09-22T08:19:00+00:00 22 MB 
[TXT]Vocabulary For Achievement Sixth Course Answer Key2016-09-23T05:38:00+00:00 25 MB 
[TXT]Vistas Lesson 4 Spanish Answers2016-09-24T02:57:00+00:00 20 MB 
[TXT]Vhlcentral Answer Key Panorama2016-09-25T00:16:00+00:00 21 MB 
[TXT]Vocabulary Review Answer Key World History2016-09-25T21:35:00+00:00 20 MB 
[TXT]Vocabulary Power Plus For The New Sat Book 1 Answer Key2016-09-26T18:54:00+00:00 21 MB 
[TXT]Vocabulary Workshop Common Core Enriched Edition Level C Answers2016-09-27T16:13:00+00:00 17 MB 
[TXT]Vocab Level F Answers Review2016-09-28T13:32:00+00:00 17 MB 
[TXT]Vocabulary Workshop Level D Answers Unit 32016-09-29T10:51:00+00:00 22 MB 
[TXT]Vocabulary Development Unit 4 Collection 8 Answers2016-09-30T08:10:00+00:00 19 MB 
[TXT]Virtual Pig Dissection Answers2016-10-01T05:29:00+00:00 22 MB 
[TXT]Variety Games Com Cw Puzzles Answers2016-10-02T02:48:00+00:00 20 MB 
[TXT]Vista Supersite Answers2016-10-03T00:07:00+00:00 18 MB